[[{"header":{"parameterUnit":"m.s-1","parameterCategory":1,"la1":31.0,"la2":29.5877,"lo1":-88.7671,"lo2":-86.6584,"dy":0.0162,"dx":0.0185,"nx":115,"ny":88,"refTime":"2026-05-18T00:00:00:Z","depth":0,"parameterNumber":2,"parameterNumberName":"U-component_of_WINDS"},"data":[0.0,0.0,0.0,0.0,0.0,0.0,0.0,0.0,0.0,0.0,0.0,0.0,0.0,0.0,0.0,0.0,0.0,0.0,0.0,0.0,0.0,0.0,0.0,0.0,0.0,0.0,0.0,0.0,0.0,0.0,0.0,0.0,0.0,0.0,0.0,0.0,0.0,0.0,0.0,0.0,0.0,0.0,0.0,0.0,0.0,0.0,0.0,0.0,0.0,0.0,0.0,0.0,0.0,0.0,0.0,0.0,0.0,0.0,0.0,0.0,0.0,0.0,0.0,0.0,0.0,0.0,0.0,0.0,0.0,0.0,0.0,0.0,0.0,0.0,0.0,0.0,0.0,0.0,0.0,0.0,0.0,0.0,0.0,0.0,0.0,0.0,0.0,0.0,0.0,0.0,0.0,0.0,0.0,0.0,0.0,0.0,0.0,0.0,0.0,0.0,0.0,0.0,0.0,0.0,0.0,0.0,0.0,0.0,0.0,0.0,0.0,0.0,0.0,0.0,0.0,0.0,0.0,0.0,0.0,0.0,0.0,0.0,0.0,0.0,0.0,0.0,0.0,0.0,0.0,0.0,0.0,0.0,0.0,0.0,0.0,0.0,0.0,0.0,0.0,0.0,0.0,0.0,0.0,0.0,0.0,0.0,0.0,0.0,0.0,0.0,0.0,0.0,0.0,0.0,0.0,0.0,0.0,0.0,0.0,0.0,0.0,0.0,0.0,0.0,0.0,0.0,0.0,0.0,0.0,0.0,0.0,0.0,0.0,0.0,0.0,0.0,0.0,0.0,0.0,0.0,0.0,0.0,0.0,0.0,0.0,0.0,0.0,0.0,0.0,0.0,0.0,0.0,0.0,0.0,0.0,0.0,0.0,0.0,0.0,0.0,0.0,0.0,0.0,0.0,0.0,0.0,0.0,0.0,0.0,0.0,0.0,0.0,0.0,0.0,0.0,0.0,0.0,0.0,0.0,0.0,0.0,0.0,0.0,0.0,0.0,0.0,0.0,0.0,0.0,0.0,0.0,0.0,0.0,0.0,0.0,0.0,0.0,0.0,0.0,0.0,0.0,0.0,0.0,0.0,0.0,0.0,0.0,0.0,0.0,0.0,0.0,0.0,0.0,0.0,0.0,0.0,0.0,0.0,0.0,0.0,0.0,0.0,0.0,0.0,0.0,0.0,0.0,0.0,0.0,0.0,0.0,0.0,0.0,0.0,0.0,0.0,0.0,0.0,0.0,0.0,0.0,0.0,0.0,0.0,0.0,0.0,0.0,0.0,0.0,0.0,0.0,0.0,0.0,0.0,0.0,0.0,0.0,0.0,0.0,0.0,0.0,0.0,0.0,0.0,0.0,0.0,0.0,0.0,0.0,0.0,0.0,0.0,0.0,0.0,0.0,0.0,0.0,0.0,0.0,0.0,0.0,0.0,0.0,0.0,0.0,0.0,0.0,0.0,0.0,0.0,0.0,0.0,0.0,0.0,0.0,0.0,0.0,0.0,0.0,0.0,0.0,0.0,0.0,0.0,0.0,0.0,0.0,0.0,0.0,0.0,0.0,0.0,0.0,0.0,0.0,0.0,0.0,0.0,0.0,0.0,0.0,0.0,0.0,0.0,0.0,0.0,0.0,0.0,0.0,0.0,0.0,0.0,0.0,0.0,0.0,0.0,0.0,0.0,0.0,0.0,0.0,0.0,0.0,0.0,0.0,0.0,0.0,0.0,0.0,0.0,0.0,0.0,0.0,0.0,0.0,0.0,0.0,0.0,0.0,0.0,0.0,0.0,0.0,0.0,0.0,0.0,0.0,0.0,0.0,0.0,0.0,0.0,0.0,0.0,0.0,0.0,0.0,0.0,0.0,0.0,0.0,0.0,0.0,0.0,0.0,0.0,0.0,0.0,0.0,0.0,0.0,0.0,0.0,0.0,0.0,0.0,0.0,0.0,0.0,0.0,0.0,0.0,0.0,0.0,0.0,0.0,0.0,0.0,0.0,0.0,0.0,0.0,0.0,0.0,0.0,0.0,0.0,0.0,0.0,0.0,0.0,0.0,0.0,0.0,0.0,0.0,0.0,0.0,0.0,0.0,0.0,0.0,0.0,0.0,0.0,0.0,0.0,0.0,0.0,0.0,0.0,0.0,0.0,0.0,0.0,0.0,0.0,0.0,0.0,0.0,0.0,0.0,0.0,0.0,0.0,0.0,0.0,0.0,0.0,0.0,0.0,0.0,0.0,0.0,0.0,0.0,0.0,0.0,0.0,0.0,0.0,0.0,0.0,0.0,0.0,0.0,0.0,0.0,0.0,0.0,0.0,0.0,0.0,0.0,0.0,0.0,0.0,0.0,0.0,0.0,0.0,0.0,0.0,0.0,0.0,0.0,0.0,0.0,0.0,0.0,0.0,0.0,0.0,0.0,0.0,0.0,0.0,0.0,0.0,0.0,0.0,0.0,0.0,0.0,0.0,0.0,0.0,0.0,0.0,0.0,0.0,0.0,0.0,0.0,0.0,0.0,0.0,0.0,0.0,0.0,0.0,0.0,0.0,0.0,0.0,0.0,0.0,0.0,0.0,0.0,0.0,0.0,0.0,0.0,0.0,0.0,0.0,0.0,0.0,0.0,0.0,0.0,0.0,0.0,0.0,0.0,0.0,0.0,0.0,0.0,0.0,0.0,0.0,0.0,0.0,0.0,0.0,0.0,0.0,0.0,0.0,0.0,0.0,0.0,0.0,0.0,0.0,0.0,0.0,0.0,0.0,0.0,0.0,0.0,0.0,0.0,0.0,0.0,0.0,0.0,0.0,0.0,0.0,0.0,0.0,0.0,0.0,0.0,0.0,0.0,0.0,0.0,0.0,0.0,0.0,0.0,0.0,0.0,0.0,0.0,0.0,0.0,0.0,0.0,0.0,0.0,0.0,0.0,0.0,0.0,0.0,0.0,0.0,0.0,0.0,0.0,0.0,0.0,0.0,0.0,0.0,0.0,0.0,0.0,0.0,0.0,0.0,0.0,0.0,0.0,0.0,0.0,0.0,0.0,0.0,0.0,0.0,0.0,0.0,0.0,0.0,0.0,0.0,0.0,0.0,0.0,0.0,0.0,0.0,0.0,0.0,0.0,0.0,0.0,0.0,0.0,0.0,0.0,0.0,0.0,0.0,0.0,0.0,0.0,0.0,0.0,0.0,0.0,0.0,0.0,0.0,0.0,0.0,0.0,0.0,0.0,0.0,0.0,0.0,0.0,0.0,0.0,0.0,0.0,0.0,0.0,0.0,0.0,0.0,0.0,0.0,0.0,0.0,0.0,0.0,0.0,0.0,0.0,0.0,0.0,0.0,0.0,0.0,0.0,0.0,0.0,0.0,0.0,0.0,0.0,0.0,0.0,0.0,0.0,0.0,0.0,0.0,0.0,0.0,0.0,0.0,0.0,0.0,0.0,0.0,0.0,0.0,0.0,0.0,0.0,0.0,0.0,0.0,0.0,0.0,0.0,0.0,0.0,0.0,0.0,0.0,0.0,0.0,0.0,0.0,0.0,0.0,0.0,0.0,0.0,0.0,0.0,0.0,0.0,0.0,0.0,0.0,0.0,0.0,0.0,0.0,0.0,0.0,0.0,0.0,0.0,0.0,0.0,0.0,0.0,0.0,0.0,0.0,0.0,0.0,0.0,0.0,0.0,0.0,0.0,0.0,0.0,0.0,0.0,0.0,0.0,0.0,0.0,0.0,0.0,0.0,0.0,0.0,0.0,0.0,0.0,0.0,0.0,0.0,0.0,0.0,0.0,0.0,0.0,0.0,0.0,0.0,0.0,0.0,0.0,0.0,0.0,0.0,0.0,0.0,0.0,0.0,0.0,0.0,0.0,0.0,0.0,0.0,0.0,0.0,0.0,0.0,0.0,0.0,0.0,0.0,0.0,0.0,0.0,0.0,0.0,0.0,0.0,0.0,0.0,0.0,0.0,0.0,0.0,0.0,0.0,0.0,0.0,0.0,0.0,0.0,0.0,0.0,0.0,0.0,0.0,0.0,0.0,0.0,0.0,0.0,0.0,0.0,0.0,0.0,0.0,0.0,0.0,0.0,0.0,0.0,0.0,0.0,0.0,0.0,0.0,0.0,0.0,0.0,0.0,0.0,0.0,0.0,0.0,0.0,0.0,0.0,0.0,0.0,0.0,0.0,0.0,0.0,0.0,0.0,0.0,0.0,0.0,0.0,0.0,0.0,0.0,0.0,0.0,0.0,0.0,0.0,0.0,0.0,0.0,0.0,0.0,0.0,0.0,0.0,0.0,-3.7358,0.0,0.0,0.0,0.0,0.0,0.0,0.0,0.0,0.0,0.0,0.0,0.0,0.0,0.0,0.0,0.0,0.0,0.0,0.0,0.0,0.0,0.0,0.0,0.0,0.0,0.0,0.0,0.0,0.0,0.0,0.0,0.0,0.0,0.0,0.0,0.0,0.0,0.0,0.0,0.0,0.0,0.0,0.0,0.0,0.0,0.0,0.0,0.0,0.0,0.0,0.0,0.0,0.0,0.0,0.0,0.0,0.0,0.0,0.0,0.0,0.0,0.0,0.0,0.0,0.0,0.0,0.0,0.0,0.0,0.0,0.0,0.0,0.0,0.0,0.0,0.0,0.0,0.0,0.0,0.0,0.0,0.0,0.0,0.0,0.0,0.0,0.0,0.0,0.0,0.0,0.0,0.0,0.0,0.0,0.0,0.0,0.0,0.0,0.0,0.0,0.0,0.0,0.0,0.0,0.0,0.0,0.0,0.0,0.0,0.0,-4.0909,-4.0625,-4.0564,-3.9741,-3.8081,0.0,0.0,0.0,0.0,0.0,0.0,0.0,0.0,0.0,0.0,0.0,0.0,0.0,0.0,0.0,0.0,0.0,0.0,0.0,0.0,0.0,0.0,0.0,0.0,0.0,0.0,0.0,0.0,0.0,0.0,0.0,0.0,0.0,0.0,0.0,0.0,0.0,0.0,0.0,0.0,0.0,0.0,0.0,0.0,0.0,0.0,0.0,0.0,0.0,0.0,0.0,0.0,0.0,0.0,0.0,0.0,0.0,0.0,0.0,0.0,0.0,0.0,0.0,0.0,0.0,0.0,0.0,0.0,0.0,0.0,0.0,0.0,0.0,0.0,0.0,0.0,0.0,0.0,0.0,0.0,0.0,0.0,0.0,0.0,0.0,0.0,0.0,0.0,0.0,0.0,0.0,0.0,0.0,0.0,0.0,0.0,0.0,0.0,0.0,0.0,0.0,0.0,0.0,0.0,0.0,0.0,0.0,0.0,0.0,0.0,0.0,0.0,-4.1228,-4.0306,-3.8645,0.0,0.0,0.0,0.0,0.0,0.0,0.0,0.0,0.0,0.0,0.0,0.0,0.0,0.0,0.0,0.0,0.0,0.0,0.0,0.0,0.0,0.0,0.0,0.0,0.0,0.0,0.0,0.0,0.0,0.0,0.0,0.0,0.0,0.0,0.0,0.0,0.0,0.0,0.0,0.0,0.0,0.0,0.0,0.0,0.0,0.0,0.0,0.0,0.0,0.0,0.0,0.0,0.0,0.0,0.0,0.0,0.0,0.0,0.0,0.0,0.0,0.0,0.0,0.0,0.0,0.0,0.0,0.0,0.0,0.0,0.0,0.0,0.0,0.0,0.0,0.0,0.0,0.0,0.0,0.0,0.0,0.0,0.0,0.0,0.0,0.0,0.0,0.0,0.0,0.0,0.0,0.0,0.0,0.0,0.0,0.0,0.0,0.0,0.0,0.0,0.0,0.0,0.0,0.0,0.0,0.0,0.0,0.0,0.0,0.0,-4.1417,-4.2246,-4.1501,0.0,-3.8691,0.0,0.0,0.0,0.0,0.0,0.0,0.0,0.0,0.0,0.0,0.0,0.0,0.0,0.0,0.0,0.0,0.0,0.0,0.0,0.0,0.0,0.0,0.0,0.0,0.0,0.0,0.0,0.0,0.0,0.0,0.0,0.0,0.0,0.0,0.0,0.0,0.0,0.0,0.0,0.0,0.0,0.0,0.0,0.0,0.0,0.0,0.0,0.0,0.0,0.0,0.0,0.0,0.0,0.0,0.0,0.0,0.0,0.0,0.0,0.0,0.0,0.0,0.0,0.0,0.0,0.0,0.0,0.0,0.0,0.0,0.0,0.0,0.0,0.0,0.0,0.0,0.0,0.0,0.0,0.0,0.0,0.0,0.0,0.0,0.0,0.0,0.0,0.0,0.0,0.0,0.0,0.0,0.0,0.0,0.0,0.0,0.0,0.0,0.0,0.0,0.0,0.0,0.0,0.0,0.0,0.0,0.0,0.0,0.0,0.0,-4.1676,-4.3075,-4.1347,-3.9834,0.0,0.0,0.0,0.0,0.0,0.0,0.0,0.0,0.0,0.0,0.0,0.0,0.0,0.0,0.0,0.0,0.0,0.0,0.0,0.0,0.0,0.0,0.0,0.0,0.0,0.0,0.0,0.0,0.0,0.0,0.0,0.0,0.0,0.0,0.0,0.0,0.0,0.0,0.0,0.0,0.0,0.0,0.0,0.0,0.0,0.0,0.0,0.0,0.0,0.0,0.0,0.0,0.0,0.0,0.0,0.0,0.0,0.0,0.0,0.0,0.0,0.0,0.0,0.0,0.0,0.0,0.0,0.0,0.0,0.0,0.0,0.0,0.0,0.0,0.0,0.0,0.0,0.0,0.0,0.0,0.0,0.0,0.0,0.0,0.0,0.0,0.0,0.0,0.0,0.0,0.0,0.0,0.0,0.0,0.0,0.0,0.0,0.0,0.0,0.0,0.0,0.0,0.0,0.0,0.0,0.0,0.0,0.0,0.0,0.0,-4.1848,-4.1949,-4.3094,-4.1289,-3.9718,-3.865,0.0,0.0,0.0,0.0,0.0,0.0,0.0,0.0,0.0,0.0,0.0,0.0,0.0,0.0,0.0,0.0,0.0,0.0,0.0,0.0,0.0,0.0,0.0,0.0,0.0,0.0,0.0,0.0,0.0,0.0,0.0,0.0,0.0,0.0,0.0,0.0,0.0,0.0,0.0,0.0,0.0,0.0,0.0,0.0,0.0,0.0,0.0,0.0,0.0,0.0,0.0,0.0,0.0,0.0,0.0,0.0,0.0,0.0,0.0,0.0,0.0,0.0,0.0,0.0,0.0,0.0,0.0,0.0,0.0,0.0,0.0,0.0,0.0,0.0,0.0,0.0,0.0,0.0,0.0,0.0,0.0,0.0,0.0,0.0,0.0,0.0,0.0,0.0,0.0,0.0,0.0,0.0,0.0,0.0,0.0,0.0,0.0,0.0,0.0,0.0,0.0,0.0,0.0,0.0,0.0,0.0,0.0,0.0,-4.4399,-4.3,-4.2247,-4.2478,-4.1557,-4.0283,0.0,0.0,0.0,0.0,0.0,0.0,0.0,0.0,0.0,0.0,0.0,0.0,0.0,0.0,0.0,0.0,0.0,0.0,0.0,0.0,0.0,0.0,0.0,0.0,0.0,0.0,0.0,0.0,0.0,0.0,0.0,0.0,0.0,0.0,0.0,0.0,0.0,0.0,0.0,0.0,0.0,0.0,0.0,0.0,0.0,0.0,0.0,0.0,0.0,0.0,0.0,0.0,0.0,0.0,0.0,0.0,0.0,0.0,0.0,0.0,0.0,0.0,0.0,0.0,0.0,0.0,0.0,0.0,0.0,0.0,0.0,0.0,0.0,0.0,0.0,0.0,0.0,0.0,0.0,0.0,0.0,0.0,0.0,0.0,0.0,0.0,0.0,0.0,0.0,0.0,0.0,0.0,0.0,0.0,0.0,0.0,0.0,0.0,0.0,0.0,0.0,0.0,0.0,0.0,0.0,0.0,0.0,0.0,0.0,-4.4543,-4.4135,-4.3671,-4.3199,-4.1362,-4.0029,0.0,0.0,0.0,0.0,0.0,0.0,0.0,0.0,0.0,0.0,0.0,0.0,0.0,0.0,0.0,0.0,0.0,0.0,0.0,0.0,0.0,0.0,0.0,0.0,0.0,0.0,0.0,0.0,0.0,0.0,0.0,0.0,0.0,0.0,0.0,0.0,0.0,0.0,0.0,0.0,0.0,0.0,0.0,0.0,0.0,0.0,0.0,0.0,0.0,0.0,0.0,0.0,0.0,0.0,0.0,0.0,0.0,0.0,0.0,0.0,0.0,0.0,0.0,0.0,0.0,0.0,0.0,0.0,0.0,0.0,0.0,0.0,0.0,0.0,0.0,0.0,0.0,0.0,0.0,0.0,0.0,0.0,0.0,0.0,0.0,0.0,0.0,0.0,0.0,0.0,0.0,0.0,0.0,0.0,0.0,0.0,0.0,0.0,0.0,0.0,0.0,0.0,0.0,0.0,0.0,0.0,0.0,0.0,0.0,-4.4209,0.0,-4.443,-4.3667,-4.1498,-4.001,0.0,0.0,0.0,0.0,0.0,0.0,0.0,0.0,0.0,0.0,0.0,0.0,0.0,0.0,0.0,0.0,0.0,0.0,0.0,0.0,0.0,0.0,0.0,0.0,0.0,0.0,0.0,0.0,0.0,0.0,0.0,0.0,0.0,0.0,0.0,0.0,0.0,0.0,0.0,0.0,0.0,0.0,0.0,0.0,0.0,0.0,0.0,0.0,0.0,0.0,0.0,0.0,0.0,0.0,0.0,0.0,0.0,0.0,0.0,0.0,0.0,0.0,0.0,0.0,0.0,0.0,0.0,0.0,0.0,0.0,0.0,0.0,0.0,0.0,0.0,0.0,0.0,0.0,0.0,0.0,0.0,0.0,0.0,0.0,0.0,0.0,0.0,0.0,0.0,0.0,0.0,0.0,0.0,0.0,0.0,0.0,0.0,0.0,0.0,0.0,0.0,0.0,0.0,0.0,0.0,0.0,0.0,0.0,-4.2565,-4.3526,-4.438,-4.4489,-4.3727,-4.2026,-4.0322,0.0,0.0,0.0,0.0,0.0,0.0,0.0,0.0,0.0,0.0,0.0,0.0,0.0,0.0,0.0,0.0,0.0,0.0,0.0,0.0,0.0,0.0,0.0,0.0,0.0,0.0,0.0,0.0,0.0,0.0,0.0,0.0,0.0,0.0,0.0,0.0,0.0,0.0,0.0,0.0,0.0,0.0,0.0,0.0,0.0,0.0,0.0,0.0,0.0,0.0,0.0,0.0,0.0,0.0,0.0,0.0,0.0,0.0,0.0,0.0,0.0,0.0,0.0,0.0,0.0,0.0,0.0,0.0,0.0,0.0,0.0,0.0,0.0,0.0,0.0,0.0,0.0,0.0,0.0,0.0,0.0,0.0,0.0,0.0,0.0,0.0,0.0,0.0,0.0,0.0,0.0,0.0,0.0,0.0,0.0,0.0,0.0,0.0,0.0,0.0,0.0,0.0,0.0,0.0,0.0,0.0,0.0,0.0,0.0,-4.4407,-4.4656,-4.5018,-4.5366,-4.265,-4.0868,0.0,0.0,0.0,0.0,0.0,0.0,0.0,0.0,0.0,0.0,0.0,0.0,0.0,0.0,0.0,0.0,0.0,0.0,0.0,0.0,0.0,0.0,0.0,0.0,0.0,0.0,0.0,0.0,0.0,0.0,0.0,0.0,0.0,0.0,0.0,0.0,0.0,0.0,0.0,0.0,0.0,0.0,0.0,0.0,0.0,0.0,0.0,0.0,0.0,0.0,0.0,0.0,0.0,0.0,0.0,0.0,0.0,0.0,0.0,0.0,0.0,0.0,0.0,0.0,0.0,0.0,0.0,0.0,0.0,0.0,0.0,0.0,0.0,0.0,0.0,0.0,0.0,0.0,0.0,0.0,0.0,0.0,0.0,0.0,0.0,0.0,0.0,0.0,0.0,0.0,0.0,0.0,0.0,0.0,0.0,0.0,0.0,0.0,0.0,0.0,0.0,0.0,0.0,0.0,0.0,0.0,0.0,0.0,0.0,-4.4812,-4.5108,-4.5464,-4.5797,-4.3061,-4.1436,-4.1035,0.0,0.0,0.0,0.0,0.0,0.0,0.0,0.0,0.0,0.0,0.0,0.0,0.0,0.0,0.0,0.0,0.0,0.0,0.0,0.0,0.0,0.0,0.0,0.0,0.0,0.0,0.0,0.0,0.0,0.0,0.0,0.0,0.0,0.0,0.0,0.0,0.0,0.0,0.0,0.0,0.0,0.0,0.0,0.0,0.0,0.0,0.0,0.0,0.0,0.0,0.0,0.0,0.0,0.0,0.0,0.0,0.0,0.0,0.0,0.0,0.0,0.0,0.0,0.0,0.0,0.0,0.0,0.0,0.0,0.0,0.0,0.0,0.0,0.0,0.0,0.0,0.0,0.0,0.0,0.0,0.0,0.0,0.0,0.0,0.0,0.0,0.0,0.0,0.0,0.0,0.0,0.0,0.0,0.0,0.0,0.0,0.0,0.0,0.0,0.0,0.0,0.0,0.0,0.0,0.0,0.0,0.0,0.0,-4.4878,-4.5673,-4.5774,-4.5097,-4.3394,-4.2063,0.0,0.0,0.0,0.0,0.0,0.0,0.0,0.0,0.0,0.0,0.0,0.0,0.0,0.0,0.0,0.0,0.0,0.0,0.0,0.0,0.0,0.0,0.0,0.0,0.0,0.0,0.0,0.0,0.0,0.0,0.0,0.0,0.0,0.0,0.0,0.0,0.0,0.0,0.0,0.0,0.0,0.0,0.0,0.0,0.0,0.0,0.0,0.0,0.0,0.0,0.0,0.0,0.0,0.0,0.0,0.0,0.0,0.0,0.0,0.0,0.0,0.0,0.0,0.0,0.0,0.0,0.0,0.0,0.0,0.0,0.0,0.0,0.0,0.0,0.0,0.0,0.0,0.0,0.0,0.0,0.0,0.0,0.0,0.0,0.0,0.0,0.0,0.0,0.0,0.0,0.0,0.0,0.0,0.0,0.0,0.0,0.0,0.0,0.0,0.0,0.0,0.0,0.0,0.0,0.0,0.0,0.0,0.0,0.0,-4.5764,-4.5985,-4.6067,-4.5917,-4.4273,-4.2961,0.0,0.0,0.0,0.0,0.0,0.0,0.0,0.0,0.0,0.0,0.0,0.0,0.0,0.0,0.0,0.0,0.0,0.0,0.0,0.0,0.0,0.0,0.0,0.0,0.0,0.0,0.0,0.0,0.0,0.0,0.0,0.0,0.0,0.0,0.0,0.0,0.0,0.0,0.0,0.0,0.0,0.0,0.0,0.0,0.0,0.0,0.0,0.0,0.0,0.0,0.0,0.0,0.0,0.0,0.0,0.0,0.0,0.0,0.0,0.0,0.0,0.0,0.0,0.0,0.0,0.0,0.0,0.0,0.0,0.0,0.0,0.0,0.0,0.0,0.0,0.0,0.0,0.0,0.0,0.0,0.0,0.0,0.0,0.0,0.0,0.0,0.0,0.0,0.0,0.0,0.0,0.0,0.0,0.0,0.0,0.0,0.0,0.0,0.0,0.0,0.0,0.0,0.0,0.0,0.0,0.0,0.0,0.0,-4.5916,-4.6114,-4.6118,-4.6182,-4.6289,-4.4978,-4.3842,0.0,0.0,0.0,0.0,0.0,0.0,0.0,0.0,0.0,0.0,0.0,0.0,0.0,0.0,0.0,0.0,0.0,0.0,0.0,0.0,0.0,0.0,0.0,0.0,0.0,0.0,0.0,0.0,0.0,0.0,0.0,0.0,0.0,0.0,0.0,0.0,0.0,0.0,0.0,0.0,0.0,0.0,0.0,0.0,0.0,0.0,0.0,0.0,0.0,0.0,0.0,0.0,0.0,0.0,0.0,0.0,0.0,0.0,0.0,0.0,0.0,0.0,0.0,0.0,0.0,0.0,0.0,0.0,0.0,0.0,0.0,0.0,0.0,0.0,0.0,0.0,0.0,0.0,0.0,0.0,0.0,0.0,0.0,0.0,0.0,0.0,0.0,0.0,0.0,0.0,0.0,0.0,0.0,0.0,0.0,0.0,0.0,0.0,0.0,0.0,0.0,0.0,0.0,0.0,0.0,0.0,0.0,0.0,-4.5896,-4.6095,-4.6118,-4.618,-4.6269,-4.5448,-4.4587,0.0,0.0,0.0,0.0,0.0,0.0,0.0,0.0,0.0,0.0,0.0,0.0,0.0,0.0,0.0,0.0,0.0,0.0,0.0,0.0,0.0,0.0,0.0,0.0,0.0,0.0,0.0,0.0,0.0,0.0,0.0,0.0,0.0,0.0,0.0,0.0,0.0,0.0,0.0,0.0,0.0,0.0,0.0,0.0,0.0,0.0,0.0,0.0,0.0,0.0,0.0,0.0,0.0,0.0,0.0,0.0,0.0,0.0,0.0,0.0,0.0,0.0,0.0,0.0,0.0,0.0,0.0,0.0,0.0,0.0,0.0,0.0,0.0,0.0,0.0,0.0,0.0,0.0,0.0,0.0,0.0,0.0,0.0,0.0,0.0,0.0,0.0,0.0,0.0,0.0,0.0,0.0,0.0,0.0,0.0,0.0,0.0,0.0,0.0,0.0,0.0,0.0,0.0,0.0,0.0,0.0,0.0,0.0,-4.5896,-4.6095,-4.6118,-4.616,-4.6289,-4.5448,-4.4607,0.0,0.0,0.0,0.0,0.0,0.0,0.0,0.0,0.0,0.0,0.0,0.0,0.0,0.0,0.0,0.0,0.0,0.0,0.0,0.0,0.0,0.0,0.0,0.0,0.0,0.0,0.0,0.0,0.0,0.0,0.0,0.0,0.0,0.0,0.0,0.0,0.0,0.0,0.0,0.0,0.0,0.0,0.0,0.0,0.0,0.0,0.0,0.0,-4.4607,0.0,0.0,0.0,0.0,0.0,0.0,0.0,0.0,0.0,0.0,0.0,0.0,0.0,0.0,0.0,0.0,0.0,0.0,0.0,0.0,0.0,0.0,0.0,0.0,0.0,0.0,0.0,0.0,0.0,0.0,0.0,0.0,0.0,0.0,0.0,0.0,0.0,0.0,0.0,0.0,0.0,0.0,0.0,0.0,0.0,0.0,0.0,0.0,0.0,0.0,0.0,0.0,0.0,0.0,0.0,0.0,0.0,0.0,0.0,-4.5866,-4.6035,-4.608,-4.6147,-4.6223,-4.582,-4.4999,0.0,0.0,0.0,0.0,0.0,0.0,0.0,0.0,0.0,0.0,0.0,0.0,0.0,0.0,0.0,0.0,0.0,0.0,0.0,0.0,0.0,0.0,0.0,0.0,0.0,0.0,0.0,0.0,0.0,0.0,0.0,0.0,0.0,0.0,0.0,0.0,0.0,0.0,0.0,0.0,0.0,0.0,0.0,0.0,0.0,0.0,0.0,0.0,0.0,0.0,0.0,0.0,0.0,0.0,0.0,0.0,0.0,0.0,0.0,0.0,0.0,0.0,0.0,0.0,0.0,0.0,0.0,0.0,0.0,0.0,0.0,0.0,0.0,0.0,0.0,0.0,0.0,0.0,0.0,0.0,0.0,0.0,0.0,0.0,0.0,0.0,0.0,0.0,0.0,0.0,0.0,0.0,0.0,0.0,0.0,0.0,0.0,0.0,0.0,0.0,0.0,0.0,0.0,0.0,0.0,0.0,0.0,-4.5807,-4.5854,-4.5997,-4.6076,-4.6131,-4.6202,-4.6266,-4.5468,-4.3785,0.0,0.0,0.0,0.0,0.0,0.0,0.0,0.0,0.0,0.0,0.0,0.0,0.0,0.0,0.0,0.0,0.0,0.0,0.0,0.0,0.0,0.0,0.0,0.0,0.0,0.0,0.0,0.0,0.0,0.0,0.0,0.0,0.0,0.0,0.0,0.0,0.0,0.0,-4.3173,-4.4773,0.0,0.0,0.0,0.0,0.0,0.0,0.0,0.0,-4.5016,0.0,0.0,0.0,0.0,0.0,0.0,0.0,0.0,0.0,0.0,0.0,0.0,0.0,0.0,0.0,0.0,0.0,0.0,0.0,0.0,0.0,0.0,0.0,0.0,0.0,0.0,0.0,0.0,0.0,0.0,0.0,0.0,0.0,0.0,0.0,0.0,0.0,0.0,0.0,0.0,0.0,0.0,0.0,0.0,0.0,0.0,0.0,0.0,0.0,0.0,0.0,0.0,0.0,0.0,0.0,0.0,-4.5807,-4.5807,-4.5854,-4.5997,-4.6056,-4.6134,-4.6202,-4.6266,-4.5468,-4.3826,0.0,0.0,0.0,0.0,0.0,0.0,0.0,0.0,0.0,0.0,0.0,0.0,0.0,0.0,0.0,0.0,0.0,0.0,0.0,0.0,0.0,0.0,0.0,0.0,0.0,0.0,0.0,0.0,0.0,0.0,0.0,0.0,0.0,0.0,0.0,0.0,0.0,0.0,0.0,-4.5144,-4.5807,0.0,0.0,0.0,0.0,0.0,0.0,0.0,0.0,-4.4953,0.0,0.0,0.0,0.0,0.0,0.0,0.0,0.0,0.0,0.0,0.0,0.0,0.0,0.0,0.0,0.0,0.0,0.0,0.0,0.0,0.0,0.0,0.0,0.0,0.0,0.0,0.0,0.0,0.0,0.0,0.0,0.0,0.0,0.0,0.0,0.0,0.0,0.0,0.0,0.0,0.0,0.0,0.0,0.0,0.0,0.0,0.0,0.0,0.0,0.0,0.0,0.0,0.0,0.0,0.0,-4.5807,-4.5807,-4.5841,-4.5905,-4.5983,-4.6056,-4.6095,-4.6181,-4.5444,0.0,0.0,0.0,0.0,0.0,0.0,0.0,0.0,0.0,0.0,0.0,0.0,0.0,0.0,0.0,0.0,0.0,0.0,0.0,0.0,0.0,0.0,0.0,0.0,0.0,0.0,0.0,0.0,0.0,0.0,0.0,0.0,0.0,0.0,0.0,0.0,0.0,0.0,0.0,0.0,-4.5565,-4.6268,-4.5865,0.0,0.0,0.0,0.0,0.0,0.0,-4.4665,-4.4961,0.0,0.0,0.0,0.0,0.0,0.0,0.0,0.0,0.0,0.0,0.0,0.0,0.0,0.0,0.0,0.0,0.0,0.0,0.0,0.0,0.0,0.0,0.0,0.0,0.0,0.0,0.0,0.0,0.0,0.0,0.0,0.0,0.0,0.0,0.0,0.0,0.0,0.0,0.0,0.0,0.0,0.0,0.0,0.0,0.0,0.0,0.0,0.0,0.0,0.0,0.0,0.0,0.0,0.0,0.0,-4.573,-4.5778,-4.58,-4.5807,-4.5922,-4.5982,-4.6002,-4.6118,-4.5377,0.0,0.0,0.0,0.0,0.0,0.0,0.0,0.0,0.0,0.0,0.0,0.0,0.0,0.0,0.0,0.0,0.0,0.0,0.0,0.0,0.0,0.0,0.0,0.0,0.0,0.0,0.0,0.0,0.0,0.0,0.0,0.0,0.0,0.0,0.0,0.0,0.0,0.0,0.0,0.0,0.0,-4.6901,-4.595,-4.5102,0.0,0.0,0.0,0.0,-4.378,-4.4584,0.0,0.0,0.0,0.0,0.0,0.0,0.0,0.0,0.0,0.0,0.0,0.0,0.0,0.0,0.0,0.0,0.0,0.0,0.0,0.0,0.0,0.0,0.0,0.0,0.0,0.0,0.0,0.0,0.0,0.0,0.0,0.0,0.0,0.0,0.0,0.0,0.0,0.0,0.0,0.0,0.0,0.0,0.0,0.0,0.0,0.0,0.0,0.0,0.0,0.0,0.0,0.0,0.0,0.0,0.0,0.0,-4.5444,-4.568,-4.581,-4.5807,-4.5935,-4.5982,-4.6002,-4.6068,-4.5337,0.0,0.0,0.0,0.0,0.0,0.0,0.0,0.0,0.0,0.0,0.0,0.0,0.0,0.0,0.0,0.0,0.0,0.0,0.0,0.0,0.0,0.0,0.0,0.0,0.0,0.0,0.0,0.0,0.0,0.0,0.0,0.0,0.0,0.0,0.0,0.0,0.0,0.0,0.0,0.0,0.0,-4.7584,-4.5998,-4.5123,-4.4608,0.0,0.0,-4.3689,-4.4536,-4.5445,0.0,0.0,0.0,0.0,0.0,0.0,0.0,0.0,0.0,0.0,0.0,0.0,0.0,0.0,0.0,0.0,0.0,0.0,0.0,0.0,0.0,0.0,0.0,0.0,0.0,0.0,0.0,0.0,0.0,0.0,0.0,0.0,0.0,0.0,0.0,0.0,0.0,0.0,0.0,0.0,0.0,0.0,0.0,0.0,0.0,0.0,0.0,0.0,0.0,0.0,0.0,0.0,0.0,0.0,0.0,-4.4661,-4.4753,-4.5422,-4.5803,-4.5807,-4.5848,-4.5873,-4.588,-4.5993,-4.5266,0.0,0.0,0.0,0.0,0.0,0.0,0.0,0.0,0.0,0.0,0.0,0.0,0.0,0.0,0.0,0.0,0.0,0.0,0.0,0.0,0.0,0.0,0.0,0.0,0.0,0.0,0.0,0.0,0.0,0.0,0.0,0.0,0.0,0.0,0.0,0.0,0.0,0.0,0.0,0.0,0.0,0.0,-4.5984,-4.5534,0.0,0.0,0.0,-4.4228,-4.4685,0.0,0.0,0.0,0.0,0.0,0.0,0.0,0.0,0.0,0.0,0.0,0.0,0.0,0.0,0.0,0.0,0.0,0.0,0.0,0.0,0.0,0.0,0.0,0.0,0.0,0.0,0.0,0.0,0.0,0.0,0.0,0.0,0.0,0.0,0.0,0.0,0.0,0.0,0.0,0.0,0.0,0.0,0.0,0.0,0.0,0.0,0.0,0.0,0.0,0.0,0.0,0.0,0.0,0.0,0.0,0.0,0.0,-4.4087,-4.5131,-4.5723,-4.5805,-4.5812,-4.5812,-4.5807,-4.5711,0.0,0.0,0.0,0.0,0.0,0.0,0.0,0.0,0.0,0.0,0.0,0.0,0.0,0.0,0.0,0.0,0.0,0.0,0.0,0.0,0.0,0.0,0.0,0.0,0.0,0.0,0.0,-3.6477,0.0,0.0,0.0,0.0,0.0,0.0,0.0,0.0,0.0,0.0,0.0,0.0,0.0,0.0,-4.6923,-4.5862,-4.5788,-4.5638,0.0,0.0,-4.4673,-4.4927,-4.5534,-4.5643,0.0,0.0,0.0,0.0,0.0,0.0,0.0,0.0,0.0,0.0,0.0,0.0,0.0,0.0,0.0,0.0,0.0,0.0,0.0,0.0,0.0,0.0,0.0,0.0,0.0,0.0,0.0,0.0,0.0,0.0,0.0,0.0,0.0,0.0,0.0,0.0,0.0,0.0,0.0,0.0,0.0,0.0,0.0,0.0,0.0,0.0,0.0,0.0,0.0,0.0,0.0,0.0,0.0,0.0,-4.3404,-4.3737,-4.4772,-4.5475,-4.5781,-4.5807,-4.581,-4.578,-4.5091,-4.4305,0.0,0.0,0.0,0.0,0.0,0.0,0.0,0.0,0.0,0.0,0.0,0.0,0.0,0.0,0.0,0.0,0.0,0.0,0.0,0.0,0.0,0.0,0.0,0.0,0.0,0.0,0.0,0.0,0.0,0.0,0.0,0.0,0.0,0.0,0.0,0.0,0.0,0.0,0.0,0.0,0.0,-4.7328,-4.5647,-4.5648,-4.5803,0.0,-4.5084,-4.4852,-4.5608,-4.5871,-4.5433,-4.3763,0.0,0.0,0.0,0.0,0.0,0.0,0.0,0.0,0.0,0.0,0.0,0.0,0.0,0.0,0.0,0.0,0.0,0.0,0.0,0.0,0.0,0.0,0.0,0.0,0.0,0.0,0.0,0.0,0.0,0.0,0.0,0.0,0.0,0.0,0.0,0.0,0.0,0.0,0.0,0.0,0.0,0.0,0.0,0.0,0.0,0.0,0.0,0.0,0.0,0.0,0.0,0.0,0.0,-4.2266,-4.194,-4.4,-4.5203,-4.5472,-4.549,-4.5327,-4.4984,-4.4699,-4.3918,0.0,0.0,0.0,0.0,0.0,0.0,0.0,0.0,0.0,0.0,0.0,0.0,0.0,0.0,0.0,0.0,0.0,0.0,0.0,0.0,0.0,0.0,0.0,0.0,0.0,0.0,0.0,0.0,-3.9578,-4.0127,-3.9669,0.0,0.0,0.0,0.0,0.0,0.0,0.0,0.0,0.0,0.0,-4.5932,-4.5476,-4.5481,0.0,0.0,-4.5529,-4.5452,-4.5749,-4.5422,-4.4911,-4.4246,-4.3707,0.0,0.0,0.0,0.0,0.0,0.0,0.0,0.0,0.0,0.0,0.0,0.0,0.0,0.0,0.0,0.0,0.0,0.0,0.0,0.0,0.0,0.0,0.0,0.0,0.0,0.0,0.0,0.0,0.0,0.0,0.0,0.0,0.0,0.0,0.0,0.0,0.0,0.0,0.0,0.0,0.0,0.0,0.0,0.0,0.0,0.0,0.0,0.0,0.0,0.0,0.0,0.0,-4.1147,-4.0421,-4.2817,-4.4159,-4.443,-4.4518,-4.4381,-4.4002,-4.3821,-4.3194,0.0,0.0,0.0,0.0,0.0,0.0,0.0,0.0,0.0,0.0,0.0,0.0,0.0,0.0,0.0,0.0,0.0,0.0,0.0,0.0,0.0,0.0,0.0,0.0,0.0,0.0,0.0,0.0,-3.9839,-4.0183,-4.0026,0.0,0.0,0.0,0.0,0.0,0.0,0.0,0.0,0.0,0.0,-4.4981,-4.5156,-4.5333,-4.5449,-4.536,-4.5604,-4.571,-4.5471,-4.4968,-4.4497,-4.4253,0.0,0.0,0.0,0.0,0.0,0.0,0.0,0.0,0.0,0.0,0.0,0.0,0.0,0.0,0.0,0.0,0.0,0.0,0.0,0.0,0.0,0.0,0.0,0.0,0.0,0.0,0.0,-4.2801,0.0,0.0,-4.3841,0.0,0.0,0.0,0.0,0.0,0.0,0.0,0.0,0.0,0.0,0.0,0.0,0.0,0.0,0.0,0.0,0.0,0.0,0.0,0.0,0.0,0.0,-4.0122,-3.9545,-4.123,-4.2234,-4.249,-4.2717,-4.2852,-4.282,-4.2248,-4.1945,-4.1817,0.0,0.0,0.0,0.0,0.0,0.0,0.0,0.0,0.0,0.0,0.0,0.0,0.0,0.0,0.0,0.0,0.0,0.0,0.0,0.0,0.0,0.0,0.0,0.0,0.0,0.0,-3.8928,-3.8851,-3.8974,0.0,0.0,0.0,0.0,0.0,0.0,0.0,0.0,0.0,-4.4014,-4.4508,-4.4852,-4.4726,-4.5222,-4.5267,-4.4509,-4.5167,-4.551,-4.4768,-4.4594,-4.4304,0.0,0.0,0.0,0.0,0.0,0.0,0.0,0.0,0.0,0.0,0.0,0.0,0.0,0.0,0.0,0.0,0.0,0.0,0.0,0.0,0.0,0.0,0.0,0.0,0.0,0.0,0.0,-4.204,-4.1758,0.0,0.0,0.0,0.0,0.0,0.0,0.0,0.0,0.0,0.0,0.0,-3.8492,-3.8294,0.0,0.0,0.0,0.0,0.0,0.0,0.0,0.0,0.0,0.0,0.0,0.0,-3.9175,-3.8592,-4.0607,-4.1873,-4.2127,-4.2212,-4.2098,-4.1749,-4.1493,-4.0663,-3.9144,0.0,0.0,0.0,0.0,0.0,0.0,0.0,0.0,0.0,0.0,0.0,0.0,0.0,0.0,0.0,0.0,0.0,0.0,0.0,0.0,0.0,0.0,0.0,0.0,0.0,-3.9633,0.0,0.0,0.0,0.0,0.0,0.0,0.0,0.0,0.0,0.0,-4.2358,-4.2687,-4.3132,-4.3955,-4.4541,-4.4682,-4.4505,-4.4517,0.0,0.0,0.0,0.0,0.0,0.0,0.0,0.0,0.0,0.0,0.0,0.0,0.0,0.0,-4.2592,-4.1529,-4.0897,-4.0526,-4.056,0.0,0.0,0.0,0.0,0.0,0.0,0.0,0.0,0.0,0.0,0.0,0.0,0.0,0.0,-4.1505,-4.1226,-4.0759,0.0,0.0,0.0,0.0,0.0,0.0,0.0,0.0,-3.9795,-3.9164,-3.8417,-3.8228,-3.7608,-3.6576,-3.6273,-3.6166,0.0,0.0,0.0,0.0,0.0,0.0,0.0,0.0,-3.8432,-3.8005,-3.9751,-4.0812,-4.098,-4.1072,-4.096,-4.0632,-4.0639,-3.9673,-3.7632,-3.7737,-3.6941,0.0,0.0,0.0,0.0,0.0,0.0,0.0,0.0,0.0,0.0,0.0,0.0,0.0,0.0,0.0,0.0,0.0,0.0,0.0,0.0,0.0,0.0,0.0,-3.8856,0.0,0.0,0.0,0.0,0.0,0.0,0.0,0.0,0.0,-4.1111,-4.1719,-4.2314,-4.3113,-4.358,-4.3915,-4.415,0.0,0.0,0.0,0.0,0.0,0.0,0.0,-4.213,-4.269,-4.2125,-4.1854,-4.2705,-4.286,-4.2841,-4.2841,0.0,0.0,-4.1865,-4.129,-4.0854,-4.0609,-4.1509,-4.1708,-3.9776,-4.0055,-4.0309,0.0,0.0,0.0,0.0,-4.2429,0.0,0.0,0.0,-4.1184,-4.1147,0.0,-4.102,0.0,0.0,0.0,0.0,-4.1114,-4.0562,0.0,0.0,-3.9181,-3.822,-3.75,-3.7019,-3.6719,-3.6742,-3.7301,-3.7059,-3.6149,-3.6534,0.0,0.0,0.0,0.0,0.0,0.0,-3.7824,-3.7806,-3.8623,-3.9045,-3.904,-3.9288,-3.9408,-3.9389,-3.9588,-3.8896,-3.7342,-3.7289,-3.6207,-3.3778,-3.4486,0.0,0.0,0.0,0.0,0.0,0.0,0.0,0.0,0.0,0.0,0.0,0.0,0.0,0.0,0.0,0.0,0.0,0.0,0.0,0.0,-3.7801,0.0,0.0,0.0,0.0,0.0,0.0,0.0,0.0,0.0,-3.8673,-4.017,-4.1683,-4.302,-4.3726,0.0,0.0,0.0,0.0,-4.2205,-4.1587,-4.2231,-4.2504,-4.1765,-4.1703,-4.1736,-4.1755,0.0,0.0,-4.1828,-4.1938,-4.1931,-4.1964,-4.1931,-4.2215,-4.2963,-4.3027,-4.2859,-4.215,-4.1989,-4.1902,-4.1136,-4.0172,-3.9727,-4.2903,0.0,0.0,0.0,0.0,-4.1403,-4.1184,-4.1372,-4.0824,-4.0404,-4.0053,-3.901,0.0,0.0,0.0,0.0,0.0,0.0,-3.8638,-3.912,-3.8753,-3.822,-3.7512,-3.7331,-3.6976,-3.6423,-3.6594,-3.6334,-3.5698,-3.5814,-3.5989,-3.6194,0.0,0.0,0.0,0.0,-3.6342,-3.6016,-3.7253,-3.778,-3.7392,-3.7484,-3.7485,-3.7504,-3.7699,-3.7318,-3.6279,-3.6383,-3.5865,-3.4595,-3.4187,0.0,0.0,0.0,0.0,0.0,0.0,0.0,0.0,0.0,0.0,0.0,0.0,0.0,0.0,0.0,0.0,0.0,0.0,0.0,-3.5361,-3.5832,-3.6546,0.0,0.0,0.0,0.0,0.0,0.0,0.0,0.0,0.0,-3.9356,-4.0401,-4.1163,0.0,0.0,-4.2146,-4.2188,-4.1757,-4.1601,-4.2129,-4.1454,0.0,-4.1527,-4.111,-4.0724,-4.0732,-4.0572,-4.0519,-4.075,-4.0788,-4.0781,-4.0788,-4.0788,-4.0885,-4.1085,-4.1368,-4.1246,-4.0551,-4.0369,-4.0127,-3.9353,-3.8991,-3.8867,-4.1864,-4.1687,-4.1687,-4.1687,-4.1635,-4.1155,-4.1073,-4.1243,-4.0749,-4.04,-4.0135,-3.9255,-3.8686,-3.8341,-3.7542,0.0,0.0,0.0,-3.8461,-3.8594,-3.8594,-3.8025,-3.7042,-3.7029,-3.6766,-3.6318,-3.6402,-3.6222,-3.5815,-3.568,-3.5447,-3.5151,0.0,-3.4591,-3.4805,-3.5279,-3.5484,-3.55,-3.6399,-3.6746,-3.6427,-3.6541,-3.6607,-3.6718,-3.6827,-3.6507,-3.5722,-3.5796,-3.5477,-3.4658,-3.4129,-3.3688,0.0,0.0,0.0,0.0,0.0,0.0,0.0,0.0,0.0,0.0,0.0,-3.442,-3.494,0.0,0.0,0.0,-3.6718,-3.6278,-3.5274,-3.5659,0.0,0.0,0.0,0.0,0.0,0.0,0.0,-3.8635,-3.8488,-3.8437,-3.8919,-3.9437,-4.0036,-4.0791,-4.1082,-4.126,-4.1329,0.0,-4.0583,-4.1291,-4.0572,-4.0172,-4.0797,-4.0548,-4.0144,-3.9859,-3.9512,-3.932,-3.932,-3.932,-3.932,-3.9301,-3.9301,-3.932,-3.9301,-3.9484,-3.9624,-3.9457,-3.9176,-3.8805,-3.8336,-3.8109,-3.7916,-4.1419,-4.0776,-4.0799,-4.0847,-4.0894,-4.0894,-4.0894,-4.0894,-4.0894,-4.0894,-4.0894,-4.0843,-4.0353,-3.9514,-3.882,0.0,-3.9606,-3.9537,-3.9164,-3.855,-3.8503,-3.7671,-3.6276,-3.6297,-3.628,-3.6259,-3.6523,-3.6474,-3.608,-3.5808,-3.5154,-3.4145,-3.4004,-3.4159,-3.4608,-3.4677,-3.5071,-3.5772,-3.5811,-3.5845,-3.5805,-3.606,-3.6256,-3.643,-3.6474,-3.6116,-3.541,-3.5367,-3.5045,-3.4271,-3.4216,-3.3826,-3.3039,0.0,0.0,0.0,0.0,0.0,0.0,0.0,0.0,0.0,0.0,0.0,0.0,0.0,0.0,0.0,-3.6461,0.0,-3.6536,-3.6554,0.0,0.0,0.0,-3.6554,-3.6647,-3.7259,-3.7686,-3.7742,0.0,0.0,-3.8574,-3.8556,-3.9198,-4.0922,-4.0647,-4.0347,-4.0485,-3.9821,-3.9389,-3.9729,-3.9693,-3.9683,-3.9635,-3.9581,-3.9423,-3.8995,-3.826,-3.7753,-3.7803,-3.76,-3.7589,-3.7688,-3.7608,-3.76,-3.7666,-3.7685,-3.7862,-3.872,-3.8371,-3.79,-3.7744,-3.7288,-3.6882,-4.0197,-3.9627,-3.9817,-4.0286,-4.0894,-4.0894,-4.0894,-4.0894,-4.0894,-4.0894,-4.086,-4.0233,-3.9381,-3.8376,-3.7905,-3.8082,-3.8763,-3.8207,-3.8038,-3.8086,-3.757,-3.6807,-3.5954,-3.6195,-3.6174,-3.5941,-3.6237,-3.5794,-3.4665,-3.454,-3.3857,-3.2665,-3.2599,-3.2753,-3.3136,-3.374,-3.3974,-3.3873,-3.4467,-3.4594,-3.417,-3.4227,-3.4302,-3.4339,-3.4484,-3.4489,-3.4286,-3.442,-3.4401,-3.4216,-3.4216,-3.3838,-3.3039,-3.2228,0.0,0.0,0.0,0.0,0.0,0.0,0.0,0.0,0.0,-3.3714,-3.3105,0.0,-3.5382,0.0,-3.4339,-3.4577,-3.5117,-3.5186,0.0,0.0,-3.5681,-3.5424,-3.6076,-3.5783,-3.5765,-3.6384,-3.6582,-3.6662,-3.6662,-3.6662,-3.682,-3.7301,-3.8547,-3.9431,-3.9435,-3.9381,-3.9324,-3.9345,-3.95,-3.9252,-3.8077,-3.7427,-3.7299,-3.7737,-3.71,-3.6796,-3.7386,-3.6416,-3.5788,-3.6378,-3.6017,-3.5902,-3.6444,-3.6055,-3.5969,-3.67,-3.6913,-3.6741,-3.6164,-3.5954,-3.5901,-3.9279,-3.8995,-3.9129,-3.9551,-4.0154,-4.0279,-4.0328,-4.0311,-4.0311,-4.0328,-4.0294,-3.9844,-3.9314,-3.8721,-3.848,-3.8597,-3.8915,-3.8254,-3.7875,-3.7691,-3.7013,-3.627,-3.556,-3.5722,-3.57,-3.5543,-3.5443,-3.4951,-3.415,-3.3468,-3.2798,-3.2057,-3.1697,-3.1748,-3.2162,-3.2791,-3.3013,-3.2816,-3.3226,-3.342,-3.3327,-3.3342,-3.343,-3.3587,-3.3712,-3.3721,-3.3634,-3.3743,-3.381,-3.3792,-3.3792,-3.3647,-3.3276,-3.2502,-3.1875,0.0,0.0,0.0,0.0,0.0,0.0,0.0,0.0,0.0,0.0,0.0,-3.5037,-3.4692,-3.4316,-3.4411,-3.5213,-3.5286,-3.5337,-3.5462,-3.5027,-3.4936,-3.5403,-3.5057,-3.5111,-3.5911,-3.5897,-3.5802,-3.5802,-3.582,-3.5836,-3.582,-3.6608,-3.7446,-3.8058,-3.8034,-3.7873,-3.8035,-3.7872,-3.7399,-3.6276,-3.5491,-3.5286,-3.5988,-3.5287,-3.4775,-3.5552,-3.468,-3.396,-3.4358,-3.4112,-3.4074,-3.487,-3.4737,-3.4567,-3.4974,-3.5508,-3.5651,-3.5297,-3.5306,-3.5379,-3.8634,-3.8513,-3.8525,-3.8695,-3.8974,-3.9226,-3.9437,-3.961,-3.961,-3.961,-3.9594,-3.9532,-3.9532,-3.9532,-3.9454,-3.9454,-3.9404,-3.8546,-3.782,-3.716,-3.6415,-3.5656,-3.4998,-3.5128,-3.5178,-3.5115,-3.451,-3.4153,-3.4002,-3.2676,-3.1955,-3.1817,-3.116,-3.1027,-3.149,-3.1896,-3.2179,-3.2301,-3.2301,-3.2487,-3.2896,-3.2912,-3.3065,-3.3415,-3.3473,-3.3397,-3.3232,-3.3243,-3.3258,-3.3258,-3.3168,-3.3259,-3.348,-3.2661,-3.2156,0.0,-3.1315,0.0,0.0,0.0,0.0,0.0,0.0,0.0,0.0,-3.3615,-3.483,-3.5584,-3.492,-3.4815,-3.5684,-3.5757,-3.5466,-3.479,-3.4717,-3.4662,-3.4571,-3.4553,-3.4841,-3.553,-3.5297,-3.5101,-3.5173,-3.5119,-3.4939,-3.4882,-3.4489,-3.4746,-3.6058,-3.6006,-3.5852,-3.6093,-3.5369,-3.4741,-3.45,-3.3718,-3.3391,-3.4083,-3.3252,-3.2486,-3.3356,-3.2684,-3.2078,-3.221,-3.219,-3.2379,-3.324,-3.3373,-3.3392,-3.3562,-3.4111,-3.4518,-3.4601,-3.4819,-3.4839,-3.8264,-3.7359,-3.7549,-3.7679,-3.7738,-3.7796,-3.8518,-3.961,-3.961,-3.961,-3.9584,-3.9259,-3.9131,-3.9104,-3.8794,-3.8644,-3.8513,-3.6682,-3.5915,-3.5976,-3.4728,-3.4051,-3.3951,-3.4795,-3.5062,-3.4785,-3.4397,-3.3845,-3.3203,-3.2387,-3.1666,-3.1026,-3.0871,-3.0865,-3.0948,0.0,0.0,0.0,-3.2301,-3.2352,-3.242,-3.2437,-3.2471,-3.2537,-3.2766,0.0,-3.2813,-3.2965,-3.3072,-3.3036,-3.249,0.0,0.0,0.0,0.0,0.0,0.0,0.0,0.0,0.0,0.0,0.0,-3.0505,-3.0523,-3.0725,-3.2103,-3.3212,-3.3668,-3.3438,-3.3598,-3.437,-3.446,-3.4406,-3.4263,-3.4227,-3.3976,-3.338,-3.3273,-3.3326,-3.3452,-3.2885,-3.2711,-3.3263,-3.2302,-3.1783,-3.2389,-3.1793,-3.1733,-3.2645,-3.3579,-3.4137,-3.4128,-3.307,-3.2471,-3.3069,-3.1901,-3.1347,-3.1901,-3.1491,-3.1195,-3.1877,-3.1071,-3.0471,-3.1017,-3.0749,-3.0684,-3.1526,-3.1659,-3.1914,-3.2539,-3.2785,-3.2889,-3.2961,-3.3563,-3.3881,-3.7451,-3.632,-3.6767,-3.6856,0.0,-3.7053,-3.7695,-3.8546,-3.8684,-3.8838,-3.9007,-3.8777,-3.8711,-3.8683,-3.8504,-3.8019,-3.7307,-3.5849,-3.4924,-3.4366,-3.3304,-3.2994,-3.3377,-3.3928,-3.4085,-3.39,-3.336,-3.2704,-3.1979,-3.1292,-3.0566,-2.9819,-2.9803,-2.9703,-2.9516,-2.9694,-3.0359,-3.1548,-3.1731,-3.1859,-3.1949,-3.2109,-3.2249,-3.2301,-3.242,0.0,0.0,0.0,0.0,0.0,0.0,0.0,0.0,0.0,0.0,-3.0389,-3.028,-2.972,-2.862,-2.8695,-2.8958,-2.9325,-2.9597,-3.0186,-3.1219,-3.1996,-3.2715,-3.3286,-3.3339,-3.35,-3.3909,-3.4047,-3.3937,-3.3562,-3.3508,-3.3346,-3.2936,-3.2543,-3.2311,-3.2224,-3.1581,-3.1278,-3.1635,-3.1082,-3.0674,-3.0993,-3.044,-3.0086,-3.0558,-3.1441,-3.2039,-3.1747,-3.0872,-3.0289,-3.069,-3.0277,-2.9931,-3.0657,-3.0309,-3.0202,-3.0954,-3.0155,-2.9575,-2.9998,-2.9889,-3.0053,-3.0798,-3.0803,-3.0806,-3.1564,-3.1791,-3.1459,-3.098,-3.1982,-3.298,-3.6522,-3.5414,-3.603,-3.6136,-3.5896,-3.6472,-3.6887,-3.7139,-3.7618,0.0,0.0,-3.8278,-3.8307,-3.829,-3.8177,-3.7434,-3.619,-3.5198,-3.4066,-3.2822,-3.2118,-3.2206,-3.2886,-3.2902,-3.2967,-3.3032,-3.2222,-3.1487,-3.0888,-3.0107,-2.941,-2.8859,-2.8676,-2.8449,-2.8158,-2.8381,-2.9098,-3.0229,-3.0771,-3.1162,-3.1452,-3.173,-3.193,-3.2038,-3.2038,-3.1967,-3.1875,-3.1737,-3.1409,-3.075,-3.0456,-3.0161,-2.9894,-2.9753,-2.9666,-2.965,-2.9622,-2.9226,-2.8361,-2.8283,-2.827,-2.8253,-2.9076,-3.0266,-3.1934,-3.1916,-3.2213,-3.302,-3.323,-3.3385,-3.3561,-3.3715,-3.3529,-3.2775,-3.2686,-3.265,-3.2454,-3.1918,-3.1474,-3.1403,-3.0796,-3.0386,-3.0547,-3.0243,-3.0157,-3.0175,-2.9658,-2.9191,-2.9248,-2.9758,-3.0005,-2.9616,-2.9166,-2.8773,-2.8797,-2.8858,-2.9093,-2.9744,-2.9382,-2.9195,-2.954,-2.9326,-2.8933,-2.869,-2.8958,-2.9308,-2.9917,-2.9624,-2.9643,-3.0313,-3.0426,-3.0057,-2.9012,-3.0119,-3.1323,-3.5845,-3.4705,-3.5367,-3.5629,-3.5582,-3.5674,-3.5856,-3.6199,-3.706,-3.7506,-3.7565,-3.7857,-3.7988,-3.7924,-3.7379,-3.6689,-3.5835,-3.3874,-3.256,-3.1799,-3.1281,-3.1438,-3.2141,-3.2158,-3.2481,-3.2935,-3.1697,-3.1001,-3.0775,-2.9583,-2.8908,-2.873,-2.8158,-2.7806,-2.7766,-2.7826,-2.7944,-2.816,-2.9387,-3.032,-3.0908,-3.0948,-3.1004,-3.1007,-3.0993,-3.1024,-3.0985,-3.0434,-3.0063,-2.9928,-2.8748,-2.8329,-2.8855,-2.8297,-2.794,-2.7992,-2.8514,-2.8225,-2.6876,-2.7313,-2.77,-2.7784,-2.8979,-3.0141,-3.0976,-3.0522,-3.0519,-3.1406,-3.1563,-3.1909,-3.2642,-3.2765,-3.253,-3.1943,-3.1867,-3.1617,-3.098,-3.0749,-3.0627,-3.0609,-3.0011,-2.9786,-3.011,-2.9326,-2.8877,-2.928,-2.8945,-2.8396,-2.8463,-2.8445,-2.8495,-2.8433,-2.8335,-2.8273,-2.8335,-2.8313,-2.8447,-2.8522,-2.8508,-2.8247,-2.7936,-2.7856,-2.7624,-2.6969,-2.7212,-2.738,-2.7539,-2.7363,-2.7531,-2.7792,-2.7839,-2.7586,-2.7407,-2.7924,-2.8353,-3.5398,-3.4566,-3.4844,-3.4967,-3.4982,-3.5352,-3.5566,-3.5763,-3.6535,-3.7104,-3.737,-3.7197,-3.708,-3.7017,-3.6393,-3.5502,-3.4436,-3.3073,-3.1824,-3.0784,-3.0316,-3.0551,-3.1194,-3.1343,-3.1568,-3.185,-3.1228,-3.071,-3.0279,-2.9292,-2.8595,-2.8158,-2.7102,-2.6568,-2.6571,-2.6571,-2.6782,-2.717,-2.8336,-2.9084,-2.938,-2.9557,-2.9671,-2.9654,-2.9671,-2.9654,-2.9654,-2.9372,-2.902,-2.8615,-2.7961,-2.7541,-2.7441,-2.7122,-2.6937,-2.6954,-2.7273,-2.7138,-2.6434,-2.7139,-2.7593,-2.7626,-2.8213,-2.8747,-2.9056,-2.9535,-2.981,-2.9865,-3.0246,-3.0559,-3.0682,-3.1081,-3.1183,-3.0776,-3.0574,-3.0402,-3.0192,-2.9675,-2.9371,-2.9283,-2.8671,-2.8416,-2.8912,-2.8361,-2.8099,-2.8617,-2.8374,-2.8182,-2.8164,-2.7821,-2.771,-2.8088,-2.8196,-2.8196,-2.8178,-2.8196,-2.8209,-2.825,-2.7888,-2.7521,-2.7138,-2.7,-2.6603,-2.6336,-2.6414,-2.6583,-2.6587,-2.6366,-2.6423,-2.6805,-2.6498,-2.6357,-2.6372,-2.6378,-2.6801,-3.4614,-3.4043,-3.4197,-3.4351,-3.4536,-3.5059,-3.5322,-3.5552,-3.603,-3.6599,-3.7068,-3.6544,-3.6287,-3.6209,-3.5433,-3.4313,-3.3009,-3.2268,-3.1164,-2.984,-2.9528,-2.9802,-3.0447,-3.0576,-3.0674,-3.0787,-3.072,-3.0409,-2.9864,-2.9167,-2.8336,-2.7446,-2.6196,-2.5597,-2.5597,-2.5597,-2.5888,-2.6461,-2.7215,-2.7761,-2.8089,-2.8343,-2.8477,-2.8477,-2.8474,-2.8458,-2.8477,-2.8327,-2.7994,-2.7443,-2.7243,-2.6859,-2.6258,-2.6225,-2.6226,-2.6208,-2.6225,-2.6208,-2.6241,-2.6792,-2.716,-2.716,-2.7309,-2.7343,-2.7276,-2.8344,-2.8934,-2.8598,-2.9053,-2.9299,-2.9238,-2.9618,-2.9866,-2.9551,-2.9263,-2.9142,-2.9181,-2.8567,-2.8075,-2.8006,-2.7558,-2.734,-2.7522,-2.7597,-2.7689,-2.7914,-2.8025,-2.8081,-2.801,-2.7446,-2.7335,-2.766,-2.7785,-2.7589,-2.766,-2.7607,-2.7571,-2.766,-2.7157,-2.6701,-2.6466,-2.6,-2.5613,-2.5494,-2.5554,-2.5627,-2.5739,-2.5483,-2.5446,-2.5826,-2.5558,-2.5273,-2.531,-2.5381,-2.5772,-3.3213,-3.2721,-3.3275,-3.3891,-3.4428,-3.4566,-3.4951,-3.546,-3.5568,-3.5953,-3.6507,-3.613,-3.5921,-3.5765,-3.4591,-3.3275,-3.205,-3.1263,-3.0192,-2.9005,-2.9037,-2.9524,-3.0125,-2.9818,-2.998,-3.0468,-3.0184,-2.9966,-2.9826,-2.9135,-2.813,-2.6847,-2.5969,-2.5597,-2.5597,-2.5597,-2.5646,-2.5694,-2.5797,-2.6464,-2.7664,-2.7766,-2.777,-2.777,-2.779,-2.7786,-2.7729,-2.7205,-2.6847,-2.675,-2.6151,-2.5756,-2.5675,-2.5675,-2.5675,-2.5659,-2.5675,-2.5656,-2.5675,-2.574,-2.5842,-2.5837,-2.6428,-2.6509,-2.5956,-2.6558,-2.7213,-2.7563,-2.776,-2.817,-2.8878,-2.9013,-2.8831,-2.8322,-2.8202,-2.7962,-2.7431,-2.7155,-2.7137,-2.712,-2.7121,-2.7197,-2.7213,-2.726,-2.7291,-2.7384,-2.7612,-2.7692,-2.7581,-2.7154,-2.6739,-2.6832,-2.6501,-2.6096,-2.6127,-2.602,-2.6234,-2.6145,-2.5997,-2.5724,-2.5325,-2.5004,-2.4653,-2.4342,-2.3912,-2.4008,-2.4096,-2.388,-2.399,-2.4229,-2.4176,-2.4004,-2.4208,-2.4293,-2.474,-3.289,-3.2982,-3.2859,-3.2967,-3.3349,-3.415,-3.4659,-3.4936,-3.5352,-3.5675,-3.5752,-3.4885,-3.4635,-3.4943,-3.3209,-3.2106,-3.1533,-3.0469,-2.9685,-2.9098,-2.895,-2.9006,-2.9257,-2.9303,-2.9434,-2.9688,-2.9517,-2.9502,-2.9472,-2.8645,-2.764,-2.6717,-2.5972,-2.5597,-2.5597,-2.5597,-2.5597,-2.5597,-2.5597,-2.5888,-2.6374,-2.6474,-2.6455,-2.6438,-2.6438,-2.6455,-2.6374,-2.5778,-2.5389,-2.5373,-2.5098,-2.4952,-2.4952,-2.5373,-2.5405,-2.5017,-2.4952,-2.4952,-2.497,-2.5338,-2.5597,-2.5597,-2.5872,-2.5904,-2.5629,-2.5891,-2.6168,-2.6407,-2.6827,-2.7095,-2.7075,-2.7373,-2.7454,-2.7058,-2.6803,-2.665,-2.664,-2.6453,-2.6349,-2.6367,-2.6436,-2.659,-2.6774,-2.7036,-2.7181,-2.7197,-2.7338,-2.7278,-2.6854,-2.6208,-2.56,-2.5119,-2.4467,-2.4609,-2.5379,-2.5788,-2.5752,-2.5699,-2.5426,-2.4962,-2.4724,-2.4219,-2.3844,-2.3529,-2.3225,-2.3187,-2.3625,-2.2751,-2.2358,-2.2733,-2.265,-2.2467,-2.2544,-2.2639,-2.2878,-3.2675,-3.3013,-3.2582,-3.249,-3.2782,-3.3996,-3.4446,-3.4405,-3.5033,-3.5217,-3.491,-3.3747,-3.3502,-3.3686,-3.2048,-3.1198,-3.0955,-2.9792,-2.9204,-2.9079,-2.8669,-2.8446,-2.847,-2.8574,-2.8716,-2.8826,-2.8897,-2.9082,-2.922,-2.811,-2.7246,-2.6716,-2.5879,-2.541,-2.5317,-2.5333,-2.5355,-2.5394,-2.5394,-2.5467,-2.5575,-2.5486,-2.5467,-2.5597,-2.5597,-2.5516,-2.5308,-2.4774,-2.4419,-2.4241,-2.4225,-2.4241,-2.4257,-2.4742,-2.4774,-2.4338,-2.4419,-2.4499,-2.4499,-2.5195,-2.5597,-2.5597,-2.5597,-2.5597,-2.5597,-2.5597,-2.5597,-2.5681,-2.6102,-2.6153,-2.5775,-2.6085,-2.6254,-2.6061,-2.5793,-2.5828,-2.61,-2.5956,-2.5846,-2.5862,-2.5974,-2.6048,-2.6315,-2.6607,-2.6791,-2.6825,-2.6923,-2.6899,-2.6311,-2.5721,-2.5023,-2.4195,-2.3484,-2.3571,-2.4706,-2.4779,-2.4959,-2.487,-2.4355,-2.4113,-2.4175,-2.3608,-2.3401,-2.3277,-2.2814,-2.2803,-2.3372,-2.2583,-2.1739,-2.219,-2.1998,-2.1476,-2.1714,-2.1559,-2.1432,-3.2413,-3.2444,-3.2398,-3.268,-3.3354,-3.4092,-3.4193,-3.3774,-3.4485,-3.4454,-3.3804,-3.3034,-3.2747,-3.2672,-3.1315,-3.0684,-3.0313,-2.928,-2.8627,-2.8388,-2.802,-2.784,-2.784,-2.7655,-2.779,-2.8149,-2.8359,-2.8638,-2.8926,-2.7668,-2.7031,-2.6867,-2.5638,-2.4875,-2.4684,-2.4664,-2.4744,-2.4918,-2.4938,-2.5127,-2.5448,-2.513,-2.513,-2.5502,-2.5597,-2.5255,-2.4642,-2.4515,-2.4193,-2.3561,-2.3528,-2.3528,-2.3527,-2.3576,-2.3592,-2.3558,-2.4092,-2.4432,-2.4513,-2.5125,-2.5578,-2.5597,-2.5597,-2.5597,-2.5597,-2.5597,-2.5597,-2.5597,-2.5697,-2.5678,-2.5629,-2.5694,-2.5745,-2.5705,-2.5654,-2.5619,-2.5654,-2.5735,-2.5719,-2.5735,-2.5809,-2.5917,-2.597,-2.5936,-2.6064,-2.6189,-2.635,-2.6489,-2.6369,-2.6085,-2.542,-2.468,-2.3955,-2.3443,-2.3023,-2.3337,-2.3193,-2.3206,-2.3393,-2.2946,-2.2933,-2.2932,-2.3057,-2.3133,-2.2959,-2.3017,-2.3357,-2.3187,-2.2625,-2.2322,-2.1535,-2.1141,-2.0852,-2.1287,-2.1106,-3.1781,-3.1508,-3.1508,-3.1643,-3.1928,-3.2616,-3.2796,-3.266,-3.2898,-3.2883,-3.2571,-3.1916,-3.1634,-3.1545,-2.9998,-2.9417,-2.9445,-2.8282,-2.7667,-2.7545,-2.7418,-2.7342,-2.7342,-2.7276,-2.7302,-2.7454,-2.7565,-2.7538,-2.7361,-2.6303,-2.5728,-2.5589,-2.4775,-2.4251,-2.4173,-2.4152,-2.4235,-2.4359,-2.4395,-2.4513,-2.4751,-2.4609,-2.4614,-2.4771,-2.5029,-2.4815,-2.413,-2.3953,-2.3408,-2.2443,-2.2648,-2.2698,-2.2445,-2.2411,-2.2291,-2.2193,-2.2671,-2.3159,-2.3556,-2.4531,-2.5317,-2.5559,-2.5597,-2.5597,-2.5597,-2.5597,-2.5597,-2.5597,-2.5597,-2.5597,-2.5597,-2.5597,-2.5597,-2.5597,-2.5597,-2.5597,-2.5616,-2.5619,-2.5656,-2.5656,-2.5733,-2.5791,-2.5879,-2.5915,-2.5915,-2.5936,-2.6066,-2.6025,-2.5562,-2.5112,-2.4553,-2.373,-2.299,-2.2401,-2.2214,-2.2535,-2.2721,-2.2734,-2.2747,-2.2751,-2.2743,-2.273,-2.2833,-2.2776,-2.2775,-2.2769,-2.2894,-2.2394,-2.2054,-2.0877,-2.0163,-2.0153,-1.9867,-2.0173,-2.0011,-3.1292,-3.1043,-3.0999,-3.0999,-3.1102,-3.1942,-3.2087,-3.1832,-3.2008,-3.1993,-3.1655,-3.107,-3.0675,-3.0309,-2.9073,-2.8395,-2.8273,-2.7348,-2.6967,-2.7071,-2.6967,-2.689,-2.6864,-2.6759,-2.6785,-2.6857,-2.685,-2.6599,-2.6111,-2.5235,-2.4791,-2.4753,-2.404,-2.3659,-2.358,-2.358,-2.3666,-2.3788,-2.3831,-2.3915,-2.412,-2.4015,-2.3846,-2.3726,-2.3933,-2.3849,-2.3349,-2.295,-2.2272,-2.1431,-2.1475,-2.1492,-2.1287,-2.1271,-2.1184,-2.1049,-2.1766,-2.2394,-2.2972,-2.4147,-2.5095,-2.5559,-2.5597,-2.5597,-2.5597,-2.5597,-2.5597,-2.5597,-2.5597,-2.5597,-2.5597,-2.5597,-2.5597,-2.5597,-2.5597,-2.5597,-2.5597,-2.5597,-2.5597,-2.5616,-2.564,-2.5715,-2.5787,-2.5805,-2.5807,-2.5844,-2.5864,-2.5655,-2.5265,-2.4659,-2.4001,-2.3307,-2.2694,-2.2212,-2.1927,-2.2087,-2.2284,-2.2312,-2.2364,-2.2433,-2.25,-2.2514,-2.2523,-2.2451,-2.2388,-2.2356,-2.2047,-2.1549,-2.0572,-1.9365,-1.9043,-1.9092,-1.8992,-1.8977,-1.9058,-3.097,-3.0911,-3.0984,-3.0881,-3.1028,-3.2085,-3.2163,-3.132,-3.1809,-3.1637,-3.1044,-3.054,-3.0038,-2.9433,-2.8757,-2.7897,-2.7145,-2.6709,-2.6654,-2.6916,-2.6642,-2.6484,-2.6484,-2.6177,-2.6147,-2.6381,-2.6243,-2.5825,-2.5186,-2.4507,-2.4168,-2.4094,-2.3555,-2.3127,-2.2926,-2.2934,-2.3009,-2.3165,-2.3194,-2.3406,-2.3758,-2.3435,-2.2979,-2.2448,-2.2393,-2.2283,-2.2145,-2.1553,-2.0957,-2.0271,-2.008,-2.0015,-2.0194,-2.0231,-2.022,-2.038,-2.1427,-2.2313,-2.2886,-2.4052,-2.4938,-2.5336,-2.5521,-2.5448,-2.541,-2.5464,-2.5483,-2.5505,-2.5524,-2.5559,-2.5597,-2.5597,-2.5597,-2.5597,-2.5597,-2.5597,-2.5597,-2.5597,-2.5597,-2.5597,-2.5616,-2.5597,-2.5616,-2.5635,-2.5675,-2.5698,-2.5719,-2.5758,-2.5651,-2.5114,-2.4524,-2.3835,-2.3029,-2.2322,-2.1945,-2.1648,-2.1738,-2.1812,-2.1901,-2.1972,-2.2087,-2.2113,-2.2212,-2.2169,-2.2084,-2.2022,-2.1394,-2.0865,-2.0228,-1.9247,-1.8797,-1.8371,-1.8489,-1.8614,-1.8715,-3.0021,-3.0021,-3.0052,-3.0021,-3.0095,-3.048,-3.0415,-3.0162,-3.0361,-3.0318,-3.0089,-2.9891,-2.9692,-2.9341,-2.8491,-2.7824,-2.7411,-2.658,-2.6177,-2.6258,-2.615,-2.6096,-2.6084,-2.5975,-2.5735,-2.5431,-2.4989,-2.4437,-2.3817,-2.3202,-2.2864,-2.2806,-2.2678,-2.2509,-2.2449,-2.2426,-2.2518,-2.2632,-2.2655,-2.2791,-2.2971,-2.2859,-2.2488,-2.1859,-2.1433,-2.1003,-2.0597,-2.0835,-2.0561,-1.9654,-1.9808,-1.9826,-1.9663,-1.9642,-1.9566,-1.9531,-2.0568,-2.1535,-2.2139,-2.327,-2.4235,-2.4594,-2.4726,-2.471,-2.471,-2.4746,-2.4851,-2.5052,-2.513,-2.5208,-2.5505,-2.5597,-2.5578,-2.5597,-2.5597,-2.5597,-2.5597,-2.5597,-2.5597,-2.5597,-2.5597,-2.5597,-2.5597,-2.5597,-2.5616,-2.5621,-2.5677,-2.5719,-2.5658,-2.5205,-2.4538,-2.3851,-2.3112,-2.2392,-2.1883,-2.1573,-2.1603,-2.1664,-2.1709,-2.1753,-2.1827,-2.1855,-2.1926,-2.1826,-2.1749,-2.1369,-2.0766,-2.0226,-1.9665,-1.9001,-1.8378,-1.8211,-1.8283,-1.8371,-1.844,-2.9602,-2.9602,-2.9602,-2.9602,-2.9645,-2.9827,-2.994,-2.9922,-2.9954,-2.994,-2.9926,-2.9701,-2.935,-2.8844,-2.8129,-2.7538,-2.7031,-2.6231,-2.5893,-2.5893,-2.5893,-2.5893,-2.5893,-2.5893,-2.5416,-2.4739,-2.4275,-2.3628,-2.2784,-2.2419,-2.2194,-2.2194,-2.2194,-2.2194,-2.2194,-2.2194,-2.2254,-2.2324,-2.2333,-2.237,-2.2454,-2.244,-2.2156,-2.1508,-2.0898,-2.0287,-1.9731,-1.9963,-1.9782,-1.929,-1.9354,-1.9317,-1.9176,-1.9161,-1.9087,-1.9229,-2.0114,-2.112,-2.1675,-2.2888,-2.3788,-2.4177,-2.4281,-2.4302,-2.4317,-2.4281,-2.4431,-2.4619,-2.4679,-2.4859,-2.5224,-2.5336,-2.5355,-2.532,-2.5505,-2.5578,-2.5597,-2.5597,-2.5597,-2.5597,-2.5597,-2.5597,-2.5597,-2.5597,-2.5597,-2.5616,-2.5621,-2.5677,-2.5531,-2.5098,-2.4415,-2.3715,-2.2997,-2.2312,-2.1675,-2.1511,-2.1496,-2.1542,-2.1603,-2.1679,-2.1738,-2.1751,-2.1779,-2.1387,-2.1192,-2.0638,-2.0043,-1.9841,-1.9408,-1.8682,-1.7975,-1.7943,-1.7982,-1.8029,-1.8114,-2.9571,-2.9571,-2.9571,-2.954,-2.961,-3.0087,-3.0311,-3.0455,-3.0455,-3.0427,-3.0329,-2.9841,-2.9012,-2.8085,-2.7805,-2.7102,-2.6132,-2.5964,-2.5893,-2.5893,-2.5893,-2.5851,-2.5753,-2.585,-2.5219,-2.4177,-2.4064,-2.3431,-2.2348,-2.2236,-2.2194,-2.2194,-2.2194,-2.2194,-2.2194,-2.2194,-2.2194,-2.2194,-2.2208,-2.2217,-2.2231,-2.2217,-2.1935,-2.133,-2.0739,-2.0112,-1.9514,-1.9016,-1.8729,-1.8673,-1.8755,-1.8788,-1.8731,-1.8755,-1.8898,-1.8912,-2.0114,-2.095,-2.1662,-2.2693,-2.3616,-2.3988,-2.4051,-2.4219,-2.4094,-2.403,-2.4099,-2.4224,-2.4261,-2.4431,-2.4759,-2.4879,-2.4879,-2.4902,-2.5166,-2.5391,-2.554,-2.5486,-2.5371,-2.541,-2.5502,-2.5502,-2.5391,-2.541,-2.541,-2.541,-2.541,-2.5355,-2.5294,-2.4794,-2.4234,-2.3522,-2.2742,-2.2166,-2.152,-2.1403,-2.1387,-2.1418,-2.1496,-2.1557,-2.1648,-2.1676,-2.1507,-2.1085,-2.0647,-2.0007,-1.942,-1.919,-1.8834,-1.8141,-1.7737,-1.7657,-1.768,-1.7766,-1.7845,-2.924,-2.9226,-2.9226,-2.9226,-2.924,-2.942,-2.9853,-3.0423,-3.0469,-3.0409,-3.0343,-2.9869,-2.9139,-2.8394,-2.7453,-2.6849,-2.6469,-2.6076,-2.5893,-2.5893,-2.5893,-2.5639,-2.5442,-2.5669,-2.5022,-2.3713,-2.3881,-2.3431,-2.2278,-2.2208,-2.2194,-2.2194,-2.2194,-2.2194,-2.2194,-2.2194,-2.2194,-2.2194,-2.2194,-2.2194,-2.2194,-2.2194,-2.1898,-2.133,-2.0745,-2.0105,-1.9438,-1.8821,-1.8498,-1.8537,-1.8556,-1.8542,-1.8627,-1.897,-1.9101,-1.9128,-2.0336,-2.1205,-2.1275,-2.2244,-2.3024,-2.3171,-2.3297,-2.3253,-2.3268,-2.3275,-2.3436,-2.3674,-2.3803,-2.3958,-2.4349,-2.4451,-2.4451,-2.4467,-2.4589,-2.4755,-2.4974,-2.4831,-2.4645,-2.463,-2.467,-2.471,-2.471,-2.471,-2.4726,-2.471,-2.4731,-2.4715,-2.4732,-2.4618,-2.4115,-2.3164,-2.2404,-2.1887,-2.1485,-2.1344,-2.1293,-2.1324,-2.1356,-2.1387,-2.1509,-2.1615,-2.131,-2.0903,-2.0458,-1.9894,-1.8996,-1.8386,-1.7919,-1.7799,-1.7592,-1.7557,-1.7545,-1.7587,-1.7599,-2.8876,-2.8876,-2.8908,-2.8876,-2.8908,-2.8876,-2.921,-2.9647,-2.9835,-2.9913,-2.9806,-2.9414,-2.8886,-2.8226,-2.727,-2.6666,-2.6385,-2.6062,-2.5907,-2.5893,-2.5893,-2.5738,-2.5569,-2.5753,-2.5163,-2.4064,-2.4022,-2.3516,-2.27,-2.2348,-2.2208,-2.2194,-2.2194,-2.2194,-2.2194,-2.2194,-2.2194,-2.2194,-2.2194,-2.2194,-2.2194,-2.2194,-2.2053,-2.1603,-2.1082,-2.0386,-1.9536,-1.9326,-1.9107,-1.8666,-1.8512,-1.8596,-1.8871,-1.9179,-1.9395,-1.9434,-2.0748,-2.1338,-2.1318,-2.2085,-2.2655,-2.2721,-2.2752,-2.2775,-2.2797,-2.2775,-2.2941,-2.3127,-2.3179,-2.3421,-2.3788,-2.3973,-2.4099,-2.424,-2.3967,-2.3994,-2.4578,-2.4467,-2.4323,-2.4281,-2.4281,-2.4281,-2.4281,-2.4281,-2.4281,-2.4302,-2.4385,-2.4364,-2.4349,-2.422,-2.3938,-2.3001,-2.2478,-2.2108,-2.153,-2.1247,-2.0955,-2.0973,-2.0958,-2.1055,-2.126,-2.1381,-2.1072,-2.0669,-2.0254,-1.969,-1.8807,-1.8207,-1.8228,-1.8087,-1.7718,-1.7486,-1.7486,-1.7486,-1.7486,-2.8536,-2.8522,-2.8522,-2.8554,-2.8554,-2.8536,-2.8682,-2.882,-2.916,-2.926,-2.9218,-2.8873,-2.839,-2.7734,-2.6989,-2.6413,-2.5936,-2.5921,-2.5907,-2.5893,-2.5893,-2.5864,-2.585,-2.5864,-2.5388,-2.4697,-2.4331,-2.3783,-2.3083,-2.2521,-2.2278,-2.2222,-2.2194,-2.2194,-2.2194,-2.2194,-2.2194,-2.2194,-2.2194,-2.2194,-2.2194,-2.2194,-2.2137,-2.2025,-2.1504,-2.0689,-2.0,-1.9915,-1.9866,-1.8764,-1.8694,-1.9045,-1.948,-1.955,-1.9803,-2.0351,-2.1036,-2.1597,-2.1563,-2.2101,-2.2592,-2.2592,-2.2615,-2.2615,-2.2638,-2.2638,-2.2684,-2.2737,-2.2615,-2.2904,-2.326,-2.3458,-2.3653,-2.3818,-2.3341,-2.3407,-2.3903,-2.4156,-2.4156,-2.4156,-2.4114,-2.4156,-2.4156,-2.4156,-2.4114,-2.3775,-2.3839,-2.3818,-2.3818,-2.3767,-2.3456,-2.2904,-2.258,-2.2454,-2.1792,-2.1157,-2.0786,-2.0548,-2.0477,-2.0564,-2.0879,-2.094,-2.0747,-2.0437,-2.0085,-1.95,-1.8702,-1.843,-1.8381,-1.8087,-1.7569,-1.7486,-1.7486,-1.7486,-1.7486,-2.821,-2.821,-2.821,-2.821,-2.821,-2.8224,-2.8629,-2.9252,-2.9318,-2.9446,-2.9509,-2.8765,-2.817,-2.7734,-2.6736,-2.6006,-2.595,-2.5921,-2.5893,-2.5893,-2.5893,-2.5893,-2.5893,-2.5893,-2.5303,-2.4683,-2.4711,-2.4165,-2.3322,-2.2957,-2.2634,-2.225,-2.2194,-2.2194,-2.2194,-2.2194,-2.2194,-2.2194,-2.2194,-2.2194,-2.2194,-2.2194,-2.2194,-2.2137,-2.1645,-2.0998,-2.04,-2.033,-2.0245,-2.0063,-2.0021,-2.0056,-2.0231,-2.0569,-2.0703,-2.0751,-2.1434,-2.1846,-2.16,-2.2016,-2.244,-2.244,-2.2523,-2.2615,-2.2615,-2.2578,-2.2578,-2.2601,-2.2615,-2.2692,-2.2888,-2.2962,-2.3105,-2.3164,-2.309,-2.2955,-2.3179,-2.3231,-2.3297,-2.3275,-2.3275,-2.3209,-2.3231,-2.3297,-2.3275,-2.3231,-2.3253,-2.3231,-2.3253,-2.3319,-2.3074,-2.2736,-2.2685,-2.2474,-2.1723,-2.1039,-2.0512,-2.0139,-2.0008,-2.012,-2.0419,-2.0653,-2.0527,-2.0256,-1.993,-1.9318,-1.8825,-1.8148,-1.8033,-1.7712,-1.7474,-1.7462,-1.7451,-1.7462,-1.7486,-2.7802,-2.7802,-2.7802,-2.7802,-2.7802,-2.7802,-2.8107,-2.8559,-2.8751,-2.893,-2.8969,-2.8418,-2.8127,-2.7891,-2.6848,-2.6329,-2.6231,-2.6006,-2.5893,-2.5893,-2.5893,-2.5893,-2.5893,-2.5907,-2.5486,-2.4978,-2.4936,-2.443,-2.3755,-2.3248,-2.276,-2.225,-2.2194,-2.2194,-2.2194,-2.2194,-2.2194,-2.2194,-2.2194,-2.2194,-2.2194,-2.2194,-2.2194,-2.218,-2.187,-2.1448,-2.09,-2.1139,-2.1046,-2.097,-2.1082,-2.1088,-2.0886,-2.1147,-2.1223,-2.1448,-2.1721,-2.2081,-2.1935,-2.2029,-2.2324,-2.2287,-2.237,-2.2394,-2.2417,-2.2402,-2.2402,-2.2402,-2.2417,-2.2477,-2.2606,-2.2689,-2.2721,-2.2752,-2.2834,-2.2849,-2.2849,-2.288,-2.2888,-2.2888,-2.2955,-2.2933,-2.291,-2.2888,-2.291,-2.3068,-2.3068,-2.3031,-2.3031,-2.3075,-2.2958,-2.2761,-2.2739,-2.2407,-2.163,-2.0907,-2.0228,-1.9827,-1.9527,-1.9711,-1.9967,-2.0213,-2.0388,-2.0194,-2.0084,-1.9756,-1.9246,-1.8496,-1.7778,-1.7515,-1.7395,-1.7391,-1.7398,-1.7451,-1.7474,-2.7503,-2.7503,-2.7503,-2.7503,-2.7503,-2.7503,-2.7549,-2.7616,-2.7835,-2.8146,-2.8103,-2.812,-2.8068,-2.7928,-2.7124,-2.6722,-2.6428,-2.6106,-2.5798,-2.5893,-2.5893,-2.5893,-2.5893,-2.5879,-2.5851,-2.5823,-2.543,-2.4838,-2.4233,-2.3586,-2.308,-2.2461,-2.2222,-2.2208,-2.2194,-2.2194,-2.2194,-2.2194,-2.2194,-2.2194,-2.2194,-2.2194,-2.2194,-2.218,-2.2151,-2.1912,-2.1603,-2.1758,-2.1912,-2.1504,-2.194,-2.1884,-2.1589,-2.1462,-2.1617,-2.2137,-2.2165,-2.2151,-2.2109,-2.2165,-2.2194,-2.2194,-2.2194,-2.2194,-2.2217,-2.2217,-2.2217,-2.2217,-2.224,-2.2287,-2.2394,-2.25,-2.2569,-2.2615,-2.2698,-2.2772,-2.2795,-2.2849,-2.288,-2.2888,-2.2888,-2.2888,-2.2888,-2.2888,-2.2888,-2.2888,-2.2888,-2.2888,-2.2888,-2.2873,-2.2815,-2.2801,-2.2797,-2.2557,-2.1789,-2.0821,-2.0147,-1.979,-1.9378,-1.9365,-1.9581,-1.9681,-1.9937,-2.0419,-2.0337,-1.9904,-1.942,-1.8756,-1.8106,-1.7604,-1.732,-1.7316,-1.7362,-1.7407,-1.7448,-2.7503,-2.7503,-2.7503,-2.7503,-2.7503,-2.7503,-2.7503,-2.749,-2.7603,-2.7802,-2.8032,-2.7836,-2.795,-2.7823,-2.6976,-2.6257,-2.5911,-2.5675,-2.573,-2.5866,-2.5893,-2.5893,-2.5893,-2.5893,-2.5893,-2.5879,-2.567,-2.5292,-2.4781,-2.4233,-2.3463,-2.2929,-2.2385,-2.2161,-2.2123,-2.217,-2.21,-2.2077,-2.21,-2.21,-2.21,-2.217,-2.2194,-2.2194,-2.2194,-2.2109,-2.2067,-2.2109,-2.2151,-2.2067,-2.2151,-2.2137,-2.2011,-2.1983,-2.2067,-2.2151,-2.2194,-2.2194,-2.2194,-2.2194,-2.2194,-2.2194,-2.2194,-2.2194,-2.2194,-2.2194,-2.2194,-2.2194,-2.2194,-2.224,-2.237,-2.2417,-2.2486,-2.2569,-2.2592,-2.2615,-2.2638,-2.2721,-2.2826,-2.2843,-2.2865,-2.2888,-2.2888,-2.2888,-2.2888,-2.2888,-2.2888,-2.2888,-2.2888,-2.2888,-2.2873,-2.2859,-2.2881,-2.2512,-2.2026,-2.0971,-2.0138,-1.9905,-1.9546,-1.9172,-1.9269,-1.9213,-1.9464,-1.9937,-2.0,-1.9605,-1.9154,-1.8796,-1.8199,-1.7504,-1.7332,-1.7257,-1.7292,-1.7351,-1.7481,-2.7503,-2.7503,-2.7503,-2.7503,-2.7503,-2.7503,-2.7503,-2.7503,-2.7503,-2.7603,-2.7756,-2.7824,-2.7854,-2.767,-2.7023,-2.622,-2.566,-2.5508,-2.5647,-2.5839,-2.5893,-2.5893,-2.5893,-2.5893,-2.5893,-2.5811,-2.5577,-2.5313,-2.494,-2.4374,-2.3607,-2.2716,-2.2097,-2.1769,-2.1769,-2.1746,-2.1783,-2.1797,-2.1821,-2.1793,-2.1841,-2.2006,-2.217,-2.2194,-2.2194,-2.2194,-2.2194,-2.2194,-2.2194,-2.218,-2.2194,-2.2194,-2.2194,-2.2194,-2.2194,-2.2194,-2.2194,-2.2194,-2.2194,-2.2194,-2.2194,-2.2194,-2.2194,-2.2194,-2.2194,-2.2194,-2.2194,-2.2194,-2.2194,-2.2217,-2.2263,-2.2287,-2.2324,-2.2394,-2.244,-2.2486,-2.2509,-2.2606,-2.2698,-2.2752,-2.282,-2.2865,-2.2888,-2.2888,-2.2888,-2.2888,-2.2888,-2.2888,-2.2888,-2.2888,-2.288,-2.2888,-2.2859,-2.262,-2.2193,-2.1351,-2.0422,-2.0117,-1.9725,-1.9348,-1.9116,-1.9116,-1.9195,-1.9479,-1.9351,-1.9322,-1.9137,-1.8883,-1.8146,-1.7515,-1.7531,-1.7482,-1.7316,-1.7295,-1.7468,-2.7503,-2.7503,-2.7503,-2.7503,-2.7503,-2.7503,-2.7503,-2.7503,-2.7503,-2.7503,-2.757,-2.7861,-2.7868,-2.7409,-2.6789,-2.6054,-2.5326,-2.5285,-2.5439,-2.5743,-2.5798,-2.5825,-2.5825,-2.5825,-2.5798,-2.5688,-2.5203,-2.4956,-2.483,-2.4182,-2.3274,-2.2485,-2.1724,-2.139,-2.143,-2.1334,-2.1309,-2.1484,-2.128,-2.1264,-2.1496,-2.1793,-2.21,-2.217,-2.2194,-2.2194,-2.2194,-2.2194,-2.2194,-2.2194,-2.2194,-2.2194,-2.2194,-2.2194,-2.2194,-2.2194,-2.2194,-2.2194,-2.2194,-2.2194,-2.2194,-2.2194,-2.2194,-2.2194,-2.2194,-2.2194,-2.2194,-2.2194,-2.2194,-2.2194,-2.2217,-2.2194,-2.2208,-2.2217,-2.2324,-2.237,-2.2394,-2.244,-2.2532,-2.2623,-2.2752,-2.2797,-2.276,-2.2783,-2.276,-2.2775,-2.2775,-2.2834,-2.2834,-2.2872,-2.2872,-2.2888,-2.283,-2.2678,-2.2301,-2.183,-2.1017,-2.0494,-2.0001,-1.9508,-1.9275,-1.9116,-1.9195,-1.9269,-1.9317,-1.9304,-1.9131,-1.8944,-1.8425,-1.7999,-1.7864,-1.7694,-1.7516,-1.7477,-1.7608,-2.7503,-2.7503,-2.7503,-2.7503,-2.7503,-2.7503,-2.7503,-2.7503,-2.7503,-2.7503,-2.7536,-2.7829,-2.7733,-2.7063,-2.6136,-2.532,-2.4811,-2.4666,-2.4948,-2.5355,-2.5453,-2.5411,-2.5481,-2.555,-2.5411,-2.5272,-2.4793,-2.4794,-2.4513,-2.3696,-2.2986,-2.2272,-2.1734,-2.1394,-2.1354,-2.1105,-2.1197,-2.1734,-2.1184,-2.0923,-2.1304,-2.1474,-2.1769,-2.203,-2.217,-2.2147,-2.2123,-2.2123,-2.217,-2.2137,-2.217,-2.2194,-2.2194,-2.2194,-2.2194,-2.2194,-2.2194,-2.2194,-2.2194,-2.2194,-2.2194,-2.2194,-2.2194,-2.2194,-2.2194,-2.2194,-2.2194,-2.2194,-2.2194,-2.2194,-2.2194,-2.2194,-2.2194,-2.2194,-2.2217,-2.224,-2.224,-2.2324,-2.2417,-2.244,-2.2546,-2.2578,-2.2601,-2.2623,-2.2623,-2.2638,-2.2661,-2.2721,-2.2781,-2.2803,-2.2841,-2.2857,-2.2888,-2.2728,-2.2519,-2.2033,-2.1438,-2.0857,-2.0262,-1.9667,-1.9333,-1.9116,-1.9116,-1.9176,-1.925,-1.9269,-1.913,-1.8923,-1.8665,-1.842,-1.8202,-1.7939,-1.7702,-1.7741,-1.7807,-2.7503,-2.7503,-2.7503,-2.7503,-2.7503,-2.7503,-2.7503,-2.7503,-2.7503,-2.7503,-2.7536,-2.7669,-2.7281,-2.643,-2.5684,-2.5109,-2.4571,-2.4234,-2.435,-2.4708,-2.4806,-2.4679,-2.4538,-2.4878,-2.5033,-2.4394,-2.4005,-2.364,-2.356,-2.3384,-2.2821,-2.2252,-2.1712,-2.1379,-2.1366,-2.1176,-2.1342,-2.1404,-2.105,-2.0733,-2.0964,-2.1231,-2.1506,-2.1759,-2.2044,-2.1996,-2.1878,-2.2091,-2.1983,-2.1926,-2.1973,-2.2194,-2.2194,-2.2194,-2.2194,-2.2194,-2.2194,-2.2194,-2.2194,-2.2194,-2.2194,-2.2194,-2.2194,-2.2194,-2.2194,-2.2194,-2.2194,-2.2194,-2.2194,-2.2194,-2.2194,-2.2194,-2.2194,-2.2194,-2.2194,-2.2194,-2.2194,-2.2231,-2.2278,-2.2301,-2.2324,-2.2394,-2.2463,-2.2509,-2.2532,-2.2569,-2.2592,-2.2615,-2.2698,-2.2758,-2.2795,-2.2841,-2.2857,-2.2844,-2.2635,-2.2258,-2.1656,-2.104,-2.0416,-1.987,-1.9333,-1.9116,-1.9097,-1.9097,-1.9157,-1.9139,-1.9116,-1.9004,-1.8822,-1.8644,-1.8499,-1.8323,-1.8138,-1.802,-1.8095,-2.7503,-2.7503,-2.7503,-2.7503,-2.7503,-2.7503,-2.7503,-2.7503,-2.7503,-2.7423,-2.7271,-2.7121,-2.655,-2.5881,-2.5463,-2.4952,-2.4426,-2.392,-2.3855,-2.393,-2.3959,-2.38,-2.3787,-2.4163,-2.4092,-2.3391,-2.3148,-2.2967,-2.28,-2.2622,-2.2401,-2.2022,-2.1597,-2.1411,-2.1349,-2.1191,-2.1154,-2.1141,-2.1005,-2.0804,-2.0762,-2.0977,-2.1231,-2.144,-2.1626,-2.1674,-2.152,-2.153,-2.1482,-2.1602,-2.1736,-2.1959,-2.2161,-2.2194,-2.2194,-2.2194,-2.2194,-2.2194,-2.2194,-2.2194,-2.2194,-2.2194,-2.2194,-2.2194,-2.2194,-2.2194,-2.2194,-2.2194,-2.2194,-2.2194,-2.2194,-2.2194,-2.2194,-2.2194,-2.2194,-2.2194,-2.2194,-2.2231,-2.2231,-2.2254,-2.2254,-2.2217,-2.2287,-2.2394,-2.2454,-2.25,-2.2523,-2.2546,-2.2606,-2.2666,-2.2698,-2.2743,-2.2803,-2.2834,-2.2727,-2.2388,-2.1801,-2.1294,-2.0686,-2.0072,-1.9575,-1.9204,-1.9064,-1.9064,-1.9097,-1.9116,-1.9116,-1.9058,-1.8999,-1.8887,-1.8771,-1.8746,-1.8626,-1.8465,-1.8428,-2.7503,-2.7503,-2.7503,-2.7503,-2.7503,-2.7503,-2.7503,-2.7503,-2.7469,-2.7188,-2.6773,-2.6286,-2.6077,-2.5697,-2.527,-2.4749,-2.4198,-2.3679,-2.3343,-2.319,-2.3177,-2.3088,-2.3118,-2.3148,-2.3237,-2.2925,-2.2586,-2.2463,-2.239,-2.2022,-2.1692,-2.126,-2.1439,-2.1415,-2.1354,-2.1224,-2.1054,-2.1066,-2.1037,-2.0925,-2.0697,-2.0688,-2.0862,-2.1149,-2.1019,-2.0908,-2.1313,-2.1129,-2.1055,-2.1313,-2.1578,-2.1855,-2.2137,-2.217,-2.2194,-2.2194,-2.2194,-2.2194,-2.2194,-2.2194,-2.2194,-2.2194,-2.2194,-2.2194,-2.2194,-2.2194,-2.2194,-2.2194,-2.2194,-2.2194,-2.2194,-2.2194,-2.2194,-2.2194,-2.2194,-2.2194,-2.2194,-2.2194,-2.2194,-2.2194,-2.2264,-2.239,-2.2559,-2.2753,-2.2451,-2.2446,-2.2361,-2.237,-2.2454,-2.25,-2.2569,-2.2638,-2.2749,-2.2795,-2.2795,-2.2472,-2.2119,-2.1665,-2.111,-2.0477,-1.9866,-1.9541,-1.9219,-1.9059,-1.9059,-1.9097,-1.9101,-1.9087,-1.9072,-1.9087,-1.9047,-1.8946,-1.8844,-1.8673,-1.8731,-2.7503,-2.7503,-2.7503,-2.7503,-2.7503,-2.7503,-2.7503,-2.7423,-2.7154,-2.6918,-2.6667,-2.6439,-2.6147,-2.5757,-2.5269,-2.455,-2.3685,-2.2825,-2.2537,-2.2402,-2.2372,-2.2187,-2.2218,-2.239,-2.2525,-2.2125,-2.1889,-2.1796,-2.1651,-2.1569,-2.1487,-2.1362,-2.1457,-2.164,-2.157,-2.1548,-2.1536,-2.1356,-2.1139,-2.077,-2.062,-2.0268,-2.0374,-2.0812,-2.0784,-2.0684,-2.0883,-2.1068,-2.1019,-2.1093,-2.153,-2.1864,-2.2137,-2.217,-2.2194,-2.2194,-2.2194,-2.2194,-2.2194,-2.2194,-2.2194,-2.2194,-2.2194,-2.2194,-2.2194,-2.2194,-2.2194,-2.2194,-2.2194,-2.2194,-2.2194,-2.2194,-2.2194,-2.2194,-2.2222,-2.225,-2.2376,-2.2461,-2.2475,-2.2587,-2.2714,-2.2817,-2.3023,-2.3216,-2.277,-2.239,-2.2292,-2.2231,-2.2301,-2.237,-2.244,-2.2509,-2.2606,-2.2666,-2.2689,-2.2583,-2.2462,-2.2001,-2.1506,-2.0869,-2.0253,-1.9781,-1.9477,-1.9267,-1.9123,-1.9214,-1.9233,-1.914,-1.9116,-1.9116,-1.9116,-1.9087,-1.897,-1.8854,-1.8941,-2.7503,-2.7503,-2.7503,-2.7503,-2.7503,-2.7503,-2.7503,-2.7436,-2.7121,-2.6714,-2.6474,-2.6311,-2.5987,-2.5523,-2.5013,-2.435,-2.3384,-2.2522,-2.1972,-2.1765,-2.1671,-2.1494,-2.1526,-2.1671,-2.1858,-2.138,-2.1431,-2.1494,-2.1316,-2.1316,-2.1313,-2.1376,-2.1486,-2.1588,-2.1819,-2.1999,-2.2092,-2.1884,-2.156,-2.0952,-2.0858,-2.0382,-2.0199,-2.0515,-2.0284,-2.0182,-2.0308,-2.0459,-2.056,-2.0784,-2.1226,-2.1817,-2.203,-2.2147,-2.217,-2.2194,-2.2194,-2.2194,-2.2208,-2.2194,-2.2194,-2.2194,-2.2194,-2.2194,-2.2194,-2.2194,-2.2194,-2.2194,-2.2194,-2.2194,-2.2194,-2.2194,-2.2405,-2.2465,-2.2578,-2.2648,-2.2953,-2.3108,-2.3037,-2.3037,-2.3206,-2.3417,-2.3502,-2.3642,-2.3291,-2.2784,-2.2348,-2.2264,-2.2231,-2.2278,-2.2324,-2.237,-2.244,-2.2486,-2.2518,-2.2506,-2.248,-2.2218,-2.1725,-2.1233,-2.0656,-2.0187,-1.9943,-1.9916,-1.976,-1.9512,-1.945,-1.9469,-1.9305,-1.9145,-1.913,-1.9116,-1.9087,-1.8985,-1.9029,-2.7503,-2.7503,-2.7503,-2.7503,-2.7503,-2.7503,-2.7503,-2.7456,-2.7323,-2.6769,-2.5884,-2.5429,-2.517,-2.4963,-2.4548,-2.3895,-2.3245,-2.2309,-2.1686,-2.1472,-2.1371,-2.1265,-2.1288,-2.1363,-2.1443,-2.1265,-2.1296,-2.1328,-2.1201,-2.1233,-2.1221,-2.1221,-2.1296,-2.1423,-2.1698,-2.1843,-2.1906,-2.1913,-2.1961,-2.1596,-2.1206,-2.0675,-2.0508,-2.0466,-1.9832,-1.9647,-2.0125,-2.0028,-2.0156,-2.0501,-2.0947,-2.1458,-2.1783,-2.2044,-2.2137,-2.2147,-2.217,-2.2208,-2.2236,-2.2222,-2.2194,-2.2194,-2.2194,-2.2194,-2.2194,-2.2194,-2.2194,-2.2194,-2.2194,-2.2194,-2.2194,-2.2278,-2.2578,-2.2788,-2.2901,-2.3154,-2.3473,-2.3614,-2.3516,-2.3544,-2.3864,-2.4103,-2.4092,-2.405,-2.3769,-2.3277,-2.2601,-2.2362,-2.2376,-2.2386,-2.2466,-2.2278,-2.2347,-2.2356,-2.2417,-2.2509,-2.2475,-2.2241,-2.1954,-2.1492,-2.1036,-2.059,-2.0465,-2.0521,-2.0229,-1.9806,-1.9806,-1.9881,-1.9637,-1.9392,-1.9155,-1.9116,-1.9116,-1.9116,-1.9116,-2.7503,-2.7503,-2.7503,-2.7503,-2.7503,-2.7503,-2.7503,-2.7356,-2.6756,-2.6035,-2.5394,-2.504,-2.5004,-2.4742,-2.4132,-2.3504,-2.2881,-2.1955,-2.1345,-2.1638,-2.1397,-2.1445,-2.1468,-2.1351,-2.1224,-2.1201,-2.1201,-2.1201,-2.1201,-2.1201,-2.1201,-2.1201,-2.1233,-2.1316,-2.1506,-2.1643,-2.1761,-2.171,-2.1523,-2.121,-2.1033,-2.0623,-2.0433,-2.0699,-1.9824,-1.9718,-2.0298,-1.9998,-2.0089,-2.0475,-2.096,-2.1291,-2.1585,-2.1838,-2.1981,-2.2024,-2.2072,-2.2419,-2.2531,-2.2507,-2.2208,-2.2236,-2.2208,-2.2222,-2.2208,-2.2194,-2.2194,-2.2194,-2.2194,-2.2194,-2.2194,-2.2606,-2.2943,-2.3097,-2.3305,-2.3684,-2.3938,-2.3966,-2.3977,-2.4103,-2.4329,-2.4838,-2.5049,-2.4781,-2.4472,-2.4303,-2.3755,-2.3122,-2.2981,-2.2841,-2.2784,-2.24,-2.2254,-2.224,-2.2287,-2.2254,-2.2254,-2.2086,-2.1983,-2.1826,-2.1389,-2.0929,-2.0673,-2.0524,-2.0299,-2.0074,-2.0196,-2.0216,-1.9918,-1.9661,-1.9344,-1.9126,-1.9116,-1.9116,-1.9116,-2.7503,-2.7503,-2.7503,-2.7503,-2.7503,-2.7503,-2.7403,-2.7053,-2.6104,-2.5358,-2.5004,-2.4838,-2.4695,-2.4448,-2.3885,-2.3359,-2.2846,-2.2167,-2.1604,-2.1927,-2.1629,-2.1675,-2.1663,-2.1479,-2.1397,-2.1339,-2.1259,-2.1201,-2.1201,-2.1201,-2.1201,-2.1201,-2.1201,-2.1253,-2.1368,-2.1474,-2.158,-2.1542,-2.1404,-2.1337,-2.1094,-2.0806,-2.0582,-2.0567,-2.0263,-1.998,-2.0302,-2.0357,-2.0236,-2.0625,-2.0926,-2.1278,-2.1493,-2.1809,-2.2051,-2.2234,-2.2211,-2.2533,-2.2675,-2.2658,-2.257,-2.2967,-2.2531,-2.2348,-2.2376,-2.2348,-2.2236,-2.2194,-2.2222,-2.2362,-2.2545,-2.2999,-2.3294,-2.3473,-2.3994,-2.4374,-2.4683,-2.4739,-2.4739,-2.4838,-2.4908,-2.5471,-2.578,-2.5556,-2.5219,-2.5119,-2.495,-2.4264,-2.3617,-2.3435,-2.3119,-2.2618,-2.2192,-2.2096,-2.1989,-2.1864,-2.1864,-2.1912,-2.1885,-2.1806,-2.1587,-2.1115,-2.0822,-2.0616,-2.0635,-2.0629,-2.0633,-2.0534,-2.0061,-1.9669,-1.9363,-1.9204,-1.9126,-1.9064,-1.9045,-2.7503,-2.7503,-2.7503,-2.749,-2.7469,-2.7289,-2.7007,-2.6555,-2.5511,-2.5004,-2.4909,-2.4431,-2.4298,-2.4122,-2.3626,-2.3385,-2.3212,-2.2765,-2.2455,-2.2157,-2.2042,-2.2042,-2.1847,-2.1592,-2.1512,-2.1537,-2.1489,-2.1201,-2.1201,-2.1201,-2.1201,-2.1201,-2.1201,-2.1233,-2.1285,-2.1336,-2.1411,-2.1396,-2.1436,-2.1397,-2.128,-2.1096,-2.0916,-2.0776,-2.0464,-2.0247,-2.0309,-2.0157,-2.0211,-2.0397,-2.0563,-2.1121,-2.1637,-2.2141,-2.2596,-2.2741,-2.2466,-2.256,-2.2738,-2.2719,-2.3236,-2.361,-2.2989,-2.2845,-2.2831,-2.2812,-2.2658,-2.2475,-2.2447,-2.2714,-2.2995,-2.3361,-2.3727,-2.4219,-2.4783,-2.5217,-2.5611,-2.571,-2.5696,-2.571,-2.5682,-2.5865,-2.5878,-2.5739,-2.5612,-2.5584,-2.5375,-2.4961,-2.4387,-2.4137,-2.3697,-2.2787,-2.239,-2.1972,-2.176,-2.1426,-2.1554,-2.1602,-2.1636,-2.1602,-2.1411,-2.1205,-2.0794,-2.0652,-2.1051,-2.1155,-2.1028,-2.0612,-2.0024,-1.9706,-1.9575,-1.9156,-1.9042,-1.896,-1.8931,-2.7503,-2.7503,-2.7503,-2.7302,-2.685,-2.6057,-2.5604,-2.5406,-2.5087,-2.485,-2.4406,-2.4273,-2.42,-2.4143,-2.3637,-2.3465,-2.3224,-2.2983,-2.2926,-2.2742,-2.2593,-2.2501,-2.2271,-2.195,-2.1675,-2.1466,-2.1328,-2.1201,-2.1201,-2.1201,-2.1201,-2.1201,-2.1201,-2.1201,-2.1233,-2.1253,-2.1253,-2.1285,-2.136,-2.136,-2.1403,-2.1194,-2.1101,-2.0962,-2.0698,-2.0575,-2.0628,-2.0381,-2.0481,-2.0728,-2.1054,-2.1498,-2.1605,-2.2247,-2.2763,-2.2485,-2.24,-2.2491,-2.2906,-2.2839,-2.3232,-2.4184,-2.3868,-2.373,-2.3713,-2.3536,-2.3213,-2.2985,-2.2736,-2.2923,-2.3308,-2.3698,-2.4177,-2.4781,-2.5288,-2.5584,-2.5893,-2.5893,-2.5893,-2.5893,-2.5893,-2.5893,-2.5893,-2.5879,-2.5781,-2.5851,-2.5713,-2.5272,-2.4982,-2.466,-2.3901,-2.2953,-2.2307,-2.1817,-2.1214,-2.0833,-2.1093,-2.1288,-2.1299,-2.1299,-2.1126,-2.0868,-2.0572,-2.0535,-2.0734,-2.1053,-2.1315,-2.0776,-2.0159,-2.014,-2.0006,-1.944,-1.8965,-1.8931,-1.8855,-2.7503,-2.7503,-2.7503,-2.7087,-2.6302,-2.5406,-2.4909,-2.4743,-2.4671,-2.4467,-2.4225,-2.42,-2.4189,-2.4154,-2.3866,-2.3728,-2.3705,-2.3546,-2.3397,-2.3155,-2.3109,-2.3041,-2.2788,-2.2317,-2.1984,-2.1652,-2.1397,-2.1201,-2.1201,-2.1201,-2.1201,-2.1201,-2.1201,-2.1201,-2.1201,-2.1233,-2.1201,-2.1201,-2.1233,-2.1201,-2.1201,-2.1201,-2.1201,-2.1175,-2.0904,-2.1022,-2.1072,-2.0728,-2.0717,-2.089,-2.1178,-2.1312,-2.1659,-2.2495,-2.2778,-2.2563,-2.2405,-2.259,-2.2881,-2.2863,-2.3539,-2.4232,-2.4544,-2.4514,-2.4245,-2.3983,-2.3733,-2.3508,-2.3238,-2.3119,-2.3596,-2.4078,-2.4683,-2.5288,-2.5583,-2.5851,-2.5893,-2.5893,-2.5893,-2.5893,-2.5893,-2.5893,-2.5893,-2.5893,-2.5784,-2.5564,-2.5328,-2.5009,-2.483,-2.475,-2.3798,-2.271,-2.2115,-2.1563,-2.0901,-2.0308,-2.0485,-2.0684,-2.0833,-2.0809,-2.0709,-2.051,-2.0182,-2.0156,-2.0258,-2.0595,-2.0915,-2.0796,-2.0411,-2.0331,-1.9987,-1.9318,-1.8946,-1.905,-1.8939,-2.7503,-2.7503,-2.7436,-2.6735,-2.5814,-2.5158,-2.4635,-2.4225,-2.4261,-2.4189,-2.4189,-2.4189,-2.4189,-2.4177,-2.4085,-2.4097,-2.4062,-2.3971,-2.3775,-2.3476,-2.3499,-2.3465,-2.304,-2.2502,-2.2203,-2.2111,-2.1811,-2.1201,-2.1201,-2.1201,-2.1201,-2.1201,-2.1201,-2.1259,-2.1374,-2.1236,-2.1259,-2.1397,-2.1282,-2.1201,-2.1201,-2.1201,-2.1201,-2.1201,-2.1187,-2.119,-2.1086,-2.0873,-2.0622,-2.0751,-2.092,-2.1084,-2.1925,-2.2627,-2.2744,-2.263,-2.2402,-2.2545,-2.2802,-2.2924,-2.338,-2.4053,-2.4652,-2.4762,-2.4545,-2.4367,-2.4167,-2.3872,-2.3547,-2.368,-2.4088,-2.4263,-2.4694,-2.5306,-2.578,-2.5893,-2.5893,-2.5893,-2.5893,-2.5893,-2.5893,-2.5893,-2.5893,-2.5893,-2.5674,-2.5286,-2.5033,-2.478,-2.4317,-2.4321,-2.3531,-2.2348,-2.1756,-2.1102,-2.024,-1.9759,-1.9837,-2.0003,-2.0245,-2.0308,-2.0232,-2.0003,-1.9759,-1.9759,-1.9759,-2.0055,-2.0306,-2.0276,-2.0215,-2.0004,-1.9607,-1.9016,-1.8848,-1.895,-1.8952,-2.7503,-2.739,-2.6633,-2.5849,-2.5194,-2.4647,-2.4334,-2.42,-2.4189,-2.4189,-2.4189,-2.4189,-2.4189,-2.4189,-2.4189,-2.4189,-2.4189,-2.4189,-2.412,-2.3982,-2.3936,-2.3602,-2.3327,-2.2696,-2.2375,-2.195,-2.1537,-2.1201,-2.1201,-2.1201,-2.1201,-2.1201,-2.1213,-2.1316,-2.1548,-2.1385,-2.1316,-2.1523,-2.1339,-2.1213,-2.1201,-2.1201,-2.1201,-2.1201,-2.1201,-2.1201,-2.1144,-2.1098,-2.1026,-2.1105,-2.1438,-2.1837,-2.2419,-2.2676,-2.2484,-2.2163,-2.2286,-2.2444,-2.2659,-2.2991,-2.3492,-2.4002,-2.4502,-2.4654,-2.47,-2.4651,-2.4477,-2.4163,-2.4012,-2.4215,-2.4445,-2.4512,-2.4702,-2.5337,-2.5893,-2.5893,-2.5893,-2.5893,-2.5893,-2.5893,-2.5893,-2.5893,-2.5893,-2.5757,-2.5536,-2.5314,-2.509,-2.4654,-2.3567,-2.3151,-2.2721,-2.1771,-2.129,-2.0564,-1.9807,-1.9466,-1.9633,-1.956,-1.9706,-1.9733,-1.9734,-1.9578,-1.937,-1.9251,-1.9251,-1.9604,-1.9862,-1.9927,-1.9849,-1.9664,-1.954,-1.9094,-1.8637,-1.859,-1.8711,-2.6865,-2.6346,-2.5539,-2.513,-2.4921,-2.4442,-2.4189,-2.4189,-2.4189,-2.4189,-2.4189,-2.4189,-2.4189,-2.4189,-2.4189,-2.4189,-2.4189,-2.4189,-2.4166,-2.4166,-2.3982,-2.3637,-2.3224,-2.2719,-2.225,-2.1802,-2.1433,-2.1201,-2.1201,-2.1201,-2.1201,-2.1201,-2.1224,-2.1362,-2.1594,-2.1374,-2.1351,-2.1525,-2.1339,-2.1224,-2.1201,-2.1201,-2.1201,-2.1201,-2.1201,-2.1201,-2.1201,-2.1201,-2.1201,-2.1221,-2.1404,-2.1518,-2.1873,-2.2144,-2.2146,-2.2,-2.2078,-2.2297,-2.2553,-2.2945,-2.3404,-2.3835,-2.4263,-2.4392,-2.4376,-2.4376,-2.459,-2.4282,-2.3851,-2.3946,-2.4491,-2.4682,-2.4901,-2.5411,-2.5769,-2.5893,-2.5893,-2.5893,-2.5893,-2.5893,-2.5893,-2.5893,-2.5811,-2.5481,-2.5188,-2.4567,-2.4465,-2.3806,-2.2837,-2.237,-2.1807,-2.1411,-2.1045,-2.0699,-2.0247,-1.9834,-1.9633,-1.95,-1.9393,-1.9314,-1.9356,-1.9198,-1.9013,-1.9013,-1.904,-1.9146,-1.937,-1.9578,-1.9527,-1.9344,-1.9321,-1.9245,-1.8784,-1.8327,-1.8437,-2.5977,-2.4997,-2.4508,-2.4482,-2.472,-2.4371,-2.4189,-2.4189,-2.4189,-2.4189,-2.4189,-2.4189,-2.4189,-2.4189,-2.4189,-2.4189,-2.4189,-2.4189,-2.4189,-2.4085,-2.381,-2.3602,-2.3167,-2.2559,-2.2112,-2.1732,-2.1374,-2.1247,-2.1201,-2.1201,-2.1201,-2.1201,-2.127,-2.1339,-2.1351,-2.1339,-2.1466,-2.1558,-2.1454,-2.1236,-2.1201,-2.1201,-2.1201,-2.1201,-2.1201,-2.1201,-2.1201,-2.1201,-2.1201,-2.1233,-2.1265,-2.1328,-2.1411,-2.1671,-2.1765,-2.173,-2.1862,-2.2075,-2.2368,-2.2669,-2.2988,-2.3321,-2.3787,-2.4057,-2.4112,-2.4258,-2.4463,-2.4334,-2.3907,-2.3939,-2.446,-2.479,-2.5025,-2.5232,-2.5508,-2.5811,-2.5811,-2.5784,-2.5757,-2.5784,-2.5866,-2.5866,-2.5536,-2.523,-2.4694,-2.4034,-2.3344,-2.2536,-2.197,-2.1909,-2.164,-2.1404,-2.1202,-2.0858,-2.0562,-2.0314,-1.9956,-1.9812,-1.9694,-1.9317,-1.9011,-1.9025,-1.9013,-1.9013,-1.904,-1.9066,-1.9146,-1.9356,-1.924,-1.9099,-1.9132,-1.9153,-1.8878,-1.8493,-1.8298,-2.5416,-2.4427,-2.4336,-2.4096,-2.3826,-2.4064,-2.4189,-2.4189,-2.4189,-2.4189,-2.4189,-2.4189,-2.4189,-2.4189,-2.4189,-2.4189,-2.4189,-2.4189,-2.4189,-2.4131,-2.3925,-2.3694,-2.3316,-2.2697,-2.2053,-2.1707,-2.1443,-2.1282,-2.1489,-2.1385,-2.1224,-2.1247,-2.1652,-2.1893,-2.2226,-2.2099,-2.1835,-2.1904,-2.165,-2.1374,-2.1293,-2.127,-2.1213,-2.1201,-2.1201,-2.1201,-2.1201,-2.1201,-2.1201,-2.1201,-2.1201,-2.1201,-2.1265,-2.1316,-2.1411,-2.1514,-2.1625,-2.1878,-2.2152,-2.2586,-2.2913,-2.3187,-2.3645,-2.3982,-2.4024,-2.4096,-2.4245,-2.4245,-2.4024,-2.4083,-2.4458,-2.4558,-2.4739,-2.4824,-2.5006,-2.5286,-2.5453,-2.5314,-2.5231,-2.5439,-2.566,-2.5439,-2.5104,-2.4765,-2.4337,-2.3741,-2.3237,-2.248,-2.1965,-2.1717,-2.1524,-2.1416,-2.1332,-2.1019,-2.0706,-2.0694,-2.0418,-2.0261,-1.9985,-1.9552,-1.9215,-1.9037,-1.9013,-1.9013,-1.9013,-1.904,-1.9119,-1.9198,-1.9133,-1.9042,-1.9028,-1.8996,-1.8797,-1.8604,-1.8414]},{"header":{"parameterUnit":"m.s-1","parameterCategory":1,"la1":31.0,"la2":29.5877,"lo1":-88.7671,"lo2":-86.6584,"dy":0.0162,"dx":0.0185,"nx":115,"ny":88,"refTime":"2026-05-18T00:00:00:Z","depth":0,"parameterNumber":3,"parameterNumberName":"V-component_of_WINDS"},"data":[0.0,0.0,0.0,0.0,0.0,0.0,0.0,0.0,0.0,0.0,0.0,0.0,0.0,0.0,0.0,0.0,0.0,0.0,0.0,0.0,0.0,0.0,0.0,0.0,0.0,0.0,0.0,0.0,0.0,0.0,0.0,0.0,0.0,0.0,0.0,0.0,0.0,0.0,0.0,0.0,0.0,0.0,0.0,0.0,0.0,0.0,0.0,0.0,0.0,0.0,0.0,0.0,0.0,0.0,0.0,0.0,0.0,0.0,0.0,0.0,0.0,0.0,0.0,0.0,0.0,0.0,0.0,0.0,0.0,0.0,0.0,0.0,0.0,0.0,0.0,0.0,0.0,0.0,0.0,0.0,0.0,0.0,0.0,0.0,0.0,0.0,0.0,0.0,0.0,0.0,0.0,0.0,0.0,0.0,0.0,0.0,0.0,0.0,0.0,0.0,0.0,0.0,0.0,0.0,0.0,0.0,0.0,0.0,0.0,0.0,0.0,0.0,0.0,0.0,0.0,0.0,0.0,0.0,0.0,0.0,0.0,0.0,0.0,0.0,0.0,0.0,0.0,0.0,0.0,0.0,0.0,0.0,0.0,0.0,0.0,0.0,0.0,0.0,0.0,0.0,0.0,0.0,0.0,0.0,0.0,0.0,0.0,0.0,0.0,0.0,0.0,0.0,0.0,0.0,0.0,0.0,0.0,0.0,0.0,0.0,0.0,0.0,0.0,0.0,0.0,0.0,0.0,0.0,0.0,0.0,0.0,0.0,0.0,0.0,0.0,0.0,0.0,0.0,0.0,0.0,0.0,0.0,0.0,0.0,0.0,0.0,0.0,0.0,0.0,0.0,0.0,0.0,0.0,0.0,0.0,0.0,0.0,0.0,0.0,0.0,0.0,0.0,0.0,0.0,0.0,0.0,0.0,0.0,0.0,0.0,0.0,0.0,0.0,0.0,0.0,0.0,0.0,0.0,0.0,0.0,0.0,0.0,0.0,0.0,0.0,0.0,0.0,0.0,0.0,0.0,0.0,0.0,0.0,0.0,0.0,0.0,0.0,0.0,0.0,0.0,0.0,0.0,0.0,0.0,0.0,0.0,0.0,0.0,0.0,0.0,0.0,0.0,0.0,0.0,0.0,0.0,0.0,0.0,0.0,0.0,0.0,0.0,0.0,0.0,0.0,0.0,0.0,0.0,0.0,0.0,0.0,0.0,0.0,0.0,0.0,0.0,0.0,0.0,0.0,0.0,0.0,0.0,0.0,0.0,0.0,0.0,0.0,0.0,0.0,0.0,0.0,0.0,0.0,0.0,0.0,0.0,0.0,0.0,0.0,0.0,0.0,0.0,0.0,0.0,0.0,0.0,0.0,0.0,0.0,0.0,0.0,0.0,0.0,0.0,0.0,0.0,0.0,0.0,0.0,0.0,0.0,0.0,0.0,0.0,0.0,0.0,0.0,0.0,0.0,0.0,0.0,0.0,0.0,0.0,0.0,0.0,0.0,0.0,0.0,0.0,0.0,0.0,0.0,0.0,0.0,0.0,0.0,0.0,0.0,0.0,0.0,0.0,0.0,0.0,0.0,0.0,0.0,0.0,0.0,0.0,0.0,0.0,0.0,0.0,0.0,0.0,0.0,0.0,0.0,0.0,0.0,0.0,0.0,0.0,0.0,0.0,0.0,0.0,0.0,0.0,0.0,0.0,0.0,0.0,0.0,0.0,0.0,0.0,0.0,0.0,0.0,0.0,0.0,0.0,0.0,0.0,0.0,0.0,0.0,0.0,0.0,0.0,0.0,0.0,0.0,0.0,0.0,0.0,0.0,0.0,0.0,0.0,0.0,0.0,0.0,0.0,0.0,0.0,0.0,0.0,0.0,0.0,0.0,0.0,0.0,0.0,0.0,0.0,0.0,0.0,0.0,0.0,0.0,0.0,0.0,0.0,0.0,0.0,0.0,0.0,0.0,0.0,0.0,0.0,0.0,0.0,0.0,0.0,0.0,0.0,0.0,0.0,0.0,0.0,0.0,0.0,0.0,0.0,0.0,0.0,0.0,0.0,0.0,0.0,0.0,0.0,0.0,0.0,0.0,0.0,0.0,0.0,0.0,0.0,0.0,0.0,0.0,0.0,0.0,0.0,0.0,0.0,0.0,0.0,0.0,0.0,0.0,0.0,0.0,0.0,0.0,0.0,0.0,0.0,0.0,0.0,0.0,0.0,0.0,0.0,0.0,0.0,0.0,0.0,0.0,0.0,0.0,0.0,0.0,0.0,0.0,0.0,0.0,0.0,0.0,0.0,0.0,0.0,0.0,0.0,0.0,0.0,0.0,0.0,0.0,0.0,0.0,0.0,0.0,0.0,0.0,0.0,0.0,0.0,0.0,0.0,0.0,0.0,0.0,0.0,0.0,0.0,0.0,0.0,0.0,0.0,0.0,0.0,0.0,0.0,0.0,0.0,0.0,0.0,0.0,0.0,0.0,0.0,0.0,0.0,0.0,0.0,0.0,0.0,0.0,0.0,0.0,0.0,0.0,0.0,0.0,0.0,0.0,0.0,0.0,0.0,0.0,0.0,0.0,0.0,0.0,0.0,0.0,0.0,0.0,0.0,0.0,0.0,0.0,0.0,0.0,0.0,0.0,0.0,0.0,0.0,0.0,0.0,0.0,0.0,0.0,0.0,0.0,0.0,0.0,0.0,0.0,0.0,0.0,0.0,0.0,0.0,0.0,0.0,0.0,0.0,0.0,0.0,0.0,0.0,0.0,0.0,0.0,0.0,0.0,0.0,0.0,0.0,0.0,0.0,0.0,0.0,0.0,0.0,0.0,0.0,0.0,0.0,0.0,0.0,0.0,0.0,0.0,0.0,0.0,0.0,0.0,0.0,0.0,0.0,0.0,0.0,0.0,0.0,0.0,0.0,0.0,0.0,0.0,0.0,0.0,0.0,0.0,0.0,0.0,0.0,0.0,0.0,0.0,0.0,0.0,0.0,0.0,0.0,0.0,0.0,0.0,0.0,0.0,0.0,0.0,0.0,0.0,0.0,0.0,0.0,0.0,0.0,0.0,0.0,0.0,0.0,0.0,0.0,0.0,0.0,0.0,0.0,0.0,0.0,0.0,0.0,0.0,0.0,0.0,0.0,0.0,0.0,0.0,0.0,0.0,0.0,0.0,0.0,0.0,0.0,0.0,0.0,0.0,0.0,0.0,0.0,0.0,0.0,0.0,0.0,0.0,0.0,0.0,0.0,0.0,0.0,0.0,0.0,0.0,0.0,0.0,0.0,0.0,0.0,0.0,0.0,0.0,0.0,0.0,0.0,0.0,0.0,0.0,0.0,0.0,0.0,0.0,0.0,0.0,0.0,0.0,0.0,0.0,0.0,0.0,0.0,0.0,0.0,0.0,0.0,0.0,0.0,0.0,0.0,0.0,0.0,0.0,0.0,0.0,0.0,0.0,0.0,0.0,0.0,0.0,0.0,0.0,0.0,0.0,0.0,0.0,0.0,0.0,0.0,0.0,0.0,0.0,0.0,0.0,0.0,0.0,0.0,0.0,0.0,0.0,0.0,0.0,0.0,0.0,0.0,0.0,0.0,0.0,0.0,0.0,0.0,0.0,0.0,0.0,0.0,0.0,0.0,0.0,0.0,0.0,0.0,0.0,0.0,0.0,0.0,0.0,0.0,0.0,0.0,0.0,0.0,0.0,0.0,0.0,0.0,0.0,0.0,0.0,0.0,0.0,0.0,0.0,0.0,0.0,0.0,0.0,0.0,0.0,0.0,0.0,0.0,0.0,0.0,0.0,0.0,0.0,0.0,0.0,0.0,0.0,0.0,0.0,0.0,0.0,0.0,0.0,0.0,0.0,0.0,0.0,0.0,0.0,0.0,0.0,0.0,0.0,0.0,0.0,0.0,0.0,0.0,0.0,0.0,0.0,0.0,0.0,0.0,0.0,0.0,0.0,0.0,0.0,0.0,0.0,0.0,0.0,0.0,0.0,0.0,0.0,0.0,0.0,0.0,0.0,0.0,0.0,0.0,0.0,0.0,0.0,0.0,0.0,0.0,0.0,0.0,0.0,0.0,0.0,0.0,0.0,0.0,0.0,0.0,0.0,0.0,0.0,0.0,0.0,0.0,0.0,0.0,0.0,0.0,0.0,0.0,0.0,0.0,0.0,0.0,0.0,0.0,0.0,0.0,0.0,0.0,0.0,0.0,0.0,0.0,0.0,0.0,0.0,0.0,0.0,0.0,0.0,0.0,0.0,0.0,0.0,0.0,0.0,0.0,0.0,0.0,-0.0652,0.0,0.0,0.0,0.0,0.0,0.0,0.0,0.0,0.0,0.0,0.0,0.0,0.0,0.0,0.0,0.0,0.0,0.0,0.0,0.0,0.0,0.0,0.0,0.0,0.0,0.0,0.0,0.0,0.0,0.0,0.0,0.0,0.0,0.0,0.0,0.0,0.0,0.0,0.0,0.0,0.0,0.0,0.0,0.0,0.0,0.0,0.0,0.0,0.0,0.0,0.0,0.0,0.0,0.0,0.0,0.0,0.0,0.0,0.0,0.0,0.0,0.0,0.0,0.0,0.0,0.0,0.0,0.0,0.0,0.0,0.0,0.0,0.0,0.0,0.0,0.0,0.0,0.0,0.0,0.0,0.0,0.0,0.0,0.0,0.0,0.0,0.0,0.0,0.0,0.0,0.0,0.0,0.0,0.0,0.0,0.0,0.0,0.0,0.0,0.0,0.0,0.0,0.0,0.0,0.0,0.0,0.0,0.0,0.0,0.0,0.1518,0.0044,-0.0443,-0.065,-0.0623,0.0,0.0,0.0,0.0,0.0,0.0,0.0,0.0,0.0,0.0,0.0,0.0,0.0,0.0,0.0,0.0,0.0,0.0,0.0,0.0,0.0,0.0,0.0,0.0,0.0,0.0,0.0,0.0,0.0,0.0,0.0,0.0,0.0,0.0,0.0,0.0,0.0,0.0,0.0,0.0,0.0,0.0,0.0,0.0,0.0,0.0,0.0,0.0,0.0,0.0,0.0,0.0,0.0,0.0,0.0,0.0,0.0,0.0,0.0,0.0,0.0,0.0,0.0,0.0,0.0,0.0,0.0,0.0,0.0,0.0,0.0,0.0,0.0,0.0,0.0,0.0,0.0,0.0,0.0,0.0,0.0,0.0,0.0,0.0,0.0,0.0,0.0,0.0,0.0,0.0,0.0,0.0,0.0,0.0,0.0,0.0,0.0,0.0,0.0,0.0,0.0,0.0,0.0,0.0,0.0,0.0,0.0,0.0,0.0,0.0,0.0,0.0,-0.045,-0.0704,-0.0759,0.0,0.0,0.0,0.0,0.0,0.0,0.0,0.0,0.0,0.0,0.0,0.0,0.0,0.0,0.0,0.0,0.0,0.0,0.0,0.0,0.0,0.0,0.0,0.0,0.0,0.0,0.0,0.0,0.0,0.0,0.0,0.0,0.0,0.0,0.0,0.0,0.0,0.0,0.0,0.0,0.0,0.0,0.0,0.0,0.0,0.0,0.0,0.0,0.0,0.0,0.0,0.0,0.0,0.0,0.0,0.0,0.0,0.0,0.0,0.0,0.0,0.0,0.0,0.0,0.0,0.0,0.0,0.0,0.0,0.0,0.0,0.0,0.0,0.0,0.0,0.0,0.0,0.0,0.0,0.0,0.0,0.0,0.0,0.0,0.0,0.0,0.0,0.0,0.0,0.0,0.0,0.0,0.0,0.0,0.0,0.0,0.0,0.0,0.0,0.0,0.0,0.0,0.0,0.0,0.0,0.0,0.0,0.0,0.0,0.0,0.1989,0.0046,-0.0453,0.0,-0.1224,0.0,0.0,0.0,0.0,0.0,0.0,0.0,0.0,0.0,0.0,0.0,0.0,0.0,0.0,0.0,0.0,0.0,0.0,0.0,0.0,0.0,0.0,0.0,0.0,0.0,0.0,0.0,0.0,0.0,0.0,0.0,0.0,0.0,0.0,0.0,0.0,0.0,0.0,0.0,0.0,0.0,0.0,0.0,0.0,0.0,0.0,0.0,0.0,0.0,0.0,0.0,0.0,0.0,0.0,0.0,0.0,0.0,0.0,0.0,0.0,0.0,0.0,0.0,0.0,0.0,0.0,0.0,0.0,0.0,0.0,0.0,0.0,0.0,0.0,0.0,0.0,0.0,0.0,0.0,0.0,0.0,0.0,0.0,0.0,0.0,0.0,0.0,0.0,0.0,0.0,0.0,0.0,0.0,0.0,0.0,0.0,0.0,0.0,0.0,0.0,0.0,0.0,0.0,0.0,0.0,0.0,0.0,0.0,0.0,0.0,0.2275,0.0987,-0.009,-0.0869,0.0,0.0,0.0,0.0,0.0,0.0,0.0,0.0,0.0,0.0,0.0,0.0,0.0,0.0,0.0,0.0,0.0,0.0,0.0,0.0,0.0,0.0,0.0,0.0,0.0,0.0,0.0,0.0,0.0,0.0,0.0,0.0,0.0,0.0,0.0,0.0,0.0,0.0,0.0,0.0,0.0,0.0,0.0,0.0,0.0,0.0,0.0,0.0,0.0,0.0,0.0,0.0,0.0,0.0,0.0,0.0,0.0,0.0,0.0,0.0,0.0,0.0,0.0,0.0,0.0,0.0,0.0,0.0,0.0,0.0,0.0,0.0,0.0,0.0,0.0,0.0,0.0,0.0,0.0,0.0,0.0,0.0,0.0,0.0,0.0,0.0,0.0,0.0,0.0,0.0,0.0,0.0,0.0,0.0,0.0,0.0,0.0,0.0,0.0,0.0,0.0,0.0,0.0,0.0,0.0,0.0,0.0,0.0,0.0,0.0,0.3477,0.229,0.0987,-0.0045,-0.0823,-0.1307,0.0,0.0,0.0,0.0,0.0,0.0,0.0,0.0,0.0,0.0,0.0,0.0,0.0,0.0,0.0,0.0,0.0,0.0,0.0,0.0,0.0,0.0,0.0,0.0,0.0,0.0,0.0,0.0,0.0,0.0,0.0,0.0,0.0,0.0,0.0,0.0,0.0,0.0,0.0,0.0,0.0,0.0,0.0,0.0,0.0,0.0,0.0,0.0,0.0,0.0,0.0,0.0,0.0,0.0,0.0,0.0,0.0,0.0,0.0,0.0,0.0,0.0,0.0,0.0,0.0,0.0,0.0,0.0,0.0,0.0,0.0,0.0,0.0,0.0,0.0,0.0,0.0,0.0,0.0,0.0,0.0,0.0,0.0,0.0,0.0,0.0,0.0,0.0,0.0,0.0,0.0,0.0,0.0,0.0,0.0,0.0,0.0,0.0,0.0,0.0,0.0,0.0,0.0,0.0,0.0,0.0,0.0,0.0,0.4715,0.3526,0.1798,-0.0463,-0.068,-0.0879,0.0,0.0,0.0,0.0,0.0,0.0,0.0,0.0,0.0,0.0,0.0,0.0,0.0,0.0,0.0,0.0,0.0,0.0,0.0,0.0,0.0,0.0,0.0,0.0,0.0,0.0,0.0,0.0,0.0,0.0,0.0,0.0,0.0,0.0,0.0,0.0,0.0,0.0,0.0,0.0,0.0,0.0,0.0,0.0,0.0,0.0,0.0,0.0,0.0,0.0,0.0,0.0,0.0,0.0,0.0,0.0,0.0,0.0,0.0,0.0,0.0,0.0,0.0,0.0,0.0,0.0,0.0,0.0,0.0,0.0,0.0,0.0,0.0,0.0,0.0,0.0,0.0,0.0,0.0,0.0,0.0,0.0,0.0,0.0,0.0,0.0,0.0,0.0,0.0,0.0,0.0,0.0,0.0,0.0,0.0,0.0,0.0,0.0,0.0,0.0,0.0,0.0,0.0,0.0,0.0,0.0,0.0,0.0,0.0,0.5667,0.4007,0.1859,-0.0613,-0.0677,-0.0873,0.0,0.0,0.0,0.0,0.0,0.0,0.0,0.0,0.0,0.0,0.0,0.0,0.0,0.0,0.0,0.0,0.0,0.0,0.0,0.0,0.0,0.0,0.0,0.0,0.0,0.0,0.0,0.0,0.0,0.0,0.0,0.0,0.0,0.0,0.0,0.0,0.0,0.0,0.0,0.0,0.0,0.0,0.0,0.0,0.0,0.0,0.0,0.0,0.0,0.0,0.0,0.0,0.0,0.0,0.0,0.0,0.0,0.0,0.0,0.0,0.0,0.0,0.0,0.0,0.0,0.0,0.0,0.0,0.0,0.0,0.0,0.0,0.0,0.0,0.0,0.0,0.0,0.0,0.0,0.0,0.0,0.0,0.0,0.0,0.0,0.0,0.0,0.0,0.0,0.0,0.0,0.0,0.0,0.0,0.0,0.0,0.0,0.0,0.0,0.0,0.0,0.0,0.0,0.0,0.0,0.0,0.0,0.0,0.0,0.5184,0.0,0.194,-0.0619,-0.0679,-0.0873,0.0,0.0,0.0,0.0,0.0,0.0,0.0,0.0,0.0,0.0,0.0,0.0,0.0,0.0,0.0,0.0,0.0,0.0,0.0,0.0,0.0,0.0,0.0,0.0,0.0,0.0,0.0,0.0,0.0,0.0,0.0,0.0,0.0,0.0,0.0,0.0,0.0,0.0,0.0,0.0,0.0,0.0,0.0,0.0,0.0,0.0,0.0,0.0,0.0,0.0,0.0,0.0,0.0,0.0,0.0,0.0,0.0,0.0,0.0,0.0,0.0,0.0,0.0,0.0,0.0,0.0,0.0,0.0,0.0,0.0,0.0,0.0,0.0,0.0,0.0,0.0,0.0,0.0,0.0,0.0,0.0,0.0,0.0,0.0,0.0,0.0,0.0,0.0,0.0,0.0,0.0,0.0,0.0,0.0,0.0,0.0,0.0,0.0,0.0,0.0,0.0,0.0,0.0,0.0,0.0,0.0,0.0,0.0,0.4944,0.3044,0.3152,0.1942,-0.0572,-0.0688,-0.088,0.0,0.0,0.0,0.0,0.0,0.0,0.0,0.0,0.0,0.0,0.0,0.0,0.0,0.0,0.0,0.0,0.0,0.0,0.0,0.0,0.0,0.0,0.0,0.0,0.0,0.0,0.0,0.0,0.0,0.0,0.0,0.0,0.0,0.0,0.0,0.0,0.0,0.0,0.0,0.0,0.0,0.0,0.0,0.0,0.0,0.0,0.0,0.0,0.0,0.0,0.0,0.0,0.0,0.0,0.0,0.0,0.0,0.0,0.0,0.0,0.0,0.0,0.0,0.0,0.0,0.0,0.0,0.0,0.0,0.0,0.0,0.0,0.0,0.0,0.0,0.0,0.0,0.0,0.0,0.0,0.0,0.0,0.0,0.0,0.0,0.0,0.0,0.0,0.0,0.0,0.0,0.0,0.0,0.0,0.0,0.0,0.0,0.0,0.0,0.0,0.0,0.0,0.0,0.0,0.0,0.0,0.0,0.0,0.0,0.3057,0.3123,0.1916,-0.0643,-0.0744,-0.0936,0.0,0.0,0.0,0.0,0.0,0.0,0.0,0.0,0.0,0.0,0.0,0.0,0.0,0.0,0.0,0.0,0.0,0.0,0.0,0.0,0.0,0.0,0.0,0.0,0.0,0.0,0.0,0.0,0.0,0.0,0.0,0.0,0.0,0.0,0.0,0.0,0.0,0.0,0.0,0.0,0.0,0.0,0.0,0.0,0.0,0.0,0.0,0.0,0.0,0.0,0.0,0.0,0.0,0.0,0.0,0.0,0.0,0.0,0.0,0.0,0.0,0.0,0.0,0.0,0.0,0.0,0.0,0.0,0.0,0.0,0.0,0.0,0.0,0.0,0.0,0.0,0.0,0.0,0.0,0.0,0.0,0.0,0.0,0.0,0.0,0.0,0.0,0.0,0.0,0.0,0.0,0.0,0.0,0.0,0.0,0.0,0.0,0.0,0.0,0.0,0.0,0.0,0.0,0.0,0.0,0.0,0.0,0.0,0.0,0.3134,0.3105,0.1985,-0.06,-0.0705,-0.0859,-0.1254,0.0,0.0,0.0,0.0,0.0,0.0,0.0,0.0,0.0,0.0,0.0,0.0,0.0,0.0,0.0,0.0,0.0,0.0,0.0,0.0,0.0,0.0,0.0,0.0,0.0,0.0,0.0,0.0,0.0,0.0,0.0,0.0,0.0,0.0,0.0,0.0,0.0,0.0,0.0,0.0,0.0,0.0,0.0,0.0,0.0,0.0,0.0,0.0,0.0,0.0,0.0,0.0,0.0,0.0,0.0,0.0,0.0,0.0,0.0,0.0,0.0,0.0,0.0,0.0,0.0,0.0,0.0,0.0,0.0,0.0,0.0,0.0,0.0,0.0,0.0,0.0,0.0,0.0,0.0,0.0,0.0,0.0,0.0,0.0,0.0,0.0,0.0,0.0,0.0,0.0,0.0,0.0,0.0,0.0,0.0,0.0,0.0,0.0,0.0,0.0,0.0,0.0,0.0,0.0,0.0,0.0,0.0,0.0,0.304,0.3144,0.2049,-0.0295,-0.0615,-0.078,0.0,0.0,0.0,0.0,0.0,0.0,0.0,0.0,0.0,0.0,0.0,0.0,0.0,0.0,0.0,0.0,0.0,0.0,0.0,0.0,0.0,0.0,0.0,0.0,0.0,0.0,0.0,0.0,0.0,0.0,0.0,0.0,0.0,0.0,0.0,0.0,0.0,0.0,0.0,0.0,0.0,0.0,0.0,0.0,0.0,0.0,0.0,0.0,0.0,0.0,0.0,0.0,0.0,0.0,0.0,0.0,0.0,0.0,0.0,0.0,0.0,0.0,0.0,0.0,0.0,0.0,0.0,0.0,0.0,0.0,0.0,0.0,0.0,0.0,0.0,0.0,0.0,0.0,0.0,0.0,0.0,0.0,0.0,0.0,0.0,0.0,0.0,0.0,0.0,0.0,0.0,0.0,0.0,0.0,0.0,0.0,0.0,0.0,0.0,0.0,0.0,0.0,0.0,0.0,0.0,0.0,0.0,0.0,0.0,0.325,0.3165,0.2062,-0.0301,-0.058,-0.0797,0.0,0.0,0.0,0.0,0.0,0.0,0.0,0.0,0.0,0.0,0.0,0.0,0.0,0.0,0.0,0.0,0.0,0.0,0.0,0.0,0.0,0.0,0.0,0.0,0.0,0.0,0.0,0.0,0.0,0.0,0.0,0.0,0.0,0.0,0.0,0.0,0.0,0.0,0.0,0.0,0.0,0.0,0.0,0.0,0.0,0.0,0.0,0.0,0.0,0.0,0.0,0.0,0.0,0.0,0.0,0.0,0.0,0.0,0.0,0.0,0.0,0.0,0.0,0.0,0.0,0.0,0.0,0.0,0.0,0.0,0.0,0.0,0.0,0.0,0.0,0.0,0.0,0.0,0.0,0.0,0.0,0.0,0.0,0.0,0.0,0.0,0.0,0.0,0.0,0.0,0.0,0.0,0.0,0.0,0.0,0.0,0.0,0.0,0.0,0.0,0.0,0.0,0.0,0.0,0.0,0.0,0.0,0.0,0.5384,0.3275,0.3225,0.2117,-0.0151,-0.0442,-0.067,0.0,0.0,0.0,0.0,0.0,0.0,0.0,0.0,0.0,0.0,0.0,0.0,0.0,0.0,0.0,0.0,0.0,0.0,0.0,0.0,0.0,0.0,0.0,0.0,0.0,0.0,0.0,0.0,0.0,0.0,0.0,0.0,0.0,0.0,0.0,0.0,0.0,0.0,0.0,0.0,0.0,0.0,0.0,0.0,0.0,0.0,0.0,0.0,0.0,0.0,0.0,0.0,0.0,0.0,0.0,0.0,0.0,0.0,0.0,0.0,0.0,0.0,0.0,0.0,0.0,0.0,0.0,0.0,0.0,0.0,0.0,0.0,0.0,0.0,0.0,0.0,0.0,0.0,0.0,0.0,0.0,0.0,0.0,0.0,0.0,0.0,0.0,0.0,0.0,0.0,0.0,0.0,0.0,0.0,0.0,0.0,0.0,0.0,0.0,0.0,0.0,0.0,0.0,0.0,0.0,0.0,0.0,0.0,0.5381,0.3274,0.3225,0.2168,0.0101,-0.0248,-0.0486,0.0,0.0,0.0,0.0,0.0,0.0,0.0,0.0,0.0,0.0,0.0,0.0,0.0,0.0,0.0,0.0,0.0,0.0,0.0,0.0,0.0,0.0,0.0,0.0,0.0,0.0,0.0,0.0,0.0,0.0,0.0,0.0,0.0,0.0,0.0,0.0,0.0,0.0,0.0,0.0,0.0,0.0,0.0,0.0,0.0,0.0,0.0,0.0,0.0,0.0,0.0,0.0,0.0,0.0,0.0,0.0,0.0,0.0,0.0,0.0,0.0,0.0,0.0,0.0,0.0,0.0,0.0,0.0,0.0,0.0,0.0,0.0,0.0,0.0,0.0,0.0,0.0,0.0,0.0,0.0,0.0,0.0,0.0,0.0,0.0,0.0,0.0,0.0,0.0,0.0,0.0,0.0,0.0,0.0,0.0,0.0,0.0,0.0,0.0,0.0,0.0,0.0,0.0,0.0,0.0,0.0,0.0,0.0,0.5381,0.3274,0.3225,0.2167,0.005,-0.0248,-0.0487,0.0,0.0,0.0,0.0,0.0,0.0,0.0,0.0,0.0,0.0,0.0,0.0,0.0,0.0,0.0,0.0,0.0,0.0,0.0,0.0,0.0,0.0,0.0,0.0,0.0,0.0,0.0,0.0,0.0,0.0,0.0,0.0,0.0,0.0,0.0,0.0,0.0,0.0,0.0,0.0,0.0,0.0,0.0,0.0,0.0,0.0,0.0,0.0,-0.0438,0.0,0.0,0.0,0.0,0.0,0.0,0.0,0.0,0.0,0.0,0.0,0.0,0.0,0.0,0.0,0.0,0.0,0.0,0.0,0.0,0.0,0.0,0.0,0.0,0.0,0.0,0.0,0.0,0.0,0.0,0.0,0.0,0.0,0.0,0.0,0.0,0.0,0.0,0.0,0.0,0.0,0.0,0.0,0.0,0.0,0.0,0.0,0.0,0.0,0.0,0.0,0.0,0.0,0.0,0.0,0.0,0.0,0.0,0.0,0.5632,0.4028,0.3475,0.2418,0.0807,0.01,-0.0344,0.0,0.0,0.0,0.0,0.0,0.0,0.0,0.0,0.0,0.0,0.0,0.0,0.0,0.0,0.0,0.0,0.0,0.0,0.0,0.0,0.0,0.0,0.0,0.0,0.0,0.0,0.0,0.0,0.0,0.0,0.0,0.0,0.0,0.0,0.0,0.0,0.0,0.0,0.0,0.0,0.0,0.0,0.0,0.0,0.0,0.0,0.0,0.0,0.0,0.0,0.0,0.0,0.0,0.0,0.0,0.0,0.0,0.0,0.0,0.0,0.0,0.0,0.0,0.0,0.0,0.0,0.0,0.0,0.0,0.0,0.0,0.0,0.0,0.0,0.0,0.0,0.0,0.0,0.0,0.0,0.0,0.0,0.0,0.0,0.0,0.0,0.0,0.0,0.0,0.0,0.0,0.0,0.0,0.0,0.0,0.0,0.0,0.0,0.0,0.0,0.0,0.0,0.0,0.0,0.0,0.0,0.0,0.6387,0.5884,0.4834,0.3778,0.272,0.1613,0.0555,-0.0198,-0.0621,0.0,0.0,0.0,0.0,0.0,0.0,0.0,0.0,0.0,0.0,0.0,0.0,0.0,0.0,0.0,0.0,0.0,0.0,0.0,0.0,0.0,0.0,0.0,0.0,0.0,0.0,0.0,0.0,0.0,0.0,0.0,0.0,0.0,0.0,0.0,0.0,0.0,0.0,0.6838,0.6841,0.0,0.0,0.0,0.0,0.0,0.0,0.0,0.0,-0.0589,0.0,0.0,0.0,0.0,0.0,0.0,0.0,0.0,0.0,0.0,0.0,0.0,0.0,0.0,0.0,0.0,0.0,0.0,0.0,0.0,0.0,0.0,0.0,0.0,0.0,0.0,0.0,0.0,0.0,0.0,0.0,0.0,0.0,0.0,0.0,0.0,0.0,0.0,0.0,0.0,0.0,0.0,0.0,0.0,0.0,0.0,0.0,0.0,0.0,0.0,0.0,0.0,0.0,0.0,0.0,0.0,0.6387,0.6387,0.5884,0.4834,0.3776,0.267,0.1613,0.0555,-0.0149,-0.043,0.0,0.0,0.0,0.0,0.0,0.0,0.0,0.0,0.0,0.0,0.0,0.0,0.0,0.0,0.0,0.0,0.0,0.0,0.0,0.0,0.0,0.0,0.0,0.0,0.0,0.0,0.0,0.0,0.0,0.0,0.0,0.0,0.0,0.0,0.0,0.0,0.0,0.0,0.0,0.6999,0.6795,0.0,0.0,0.0,0.0,0.0,0.0,0.0,0.0,-0.0834,0.0,0.0,0.0,0.0,0.0,0.0,0.0,0.0,0.0,0.0,0.0,0.0,0.0,0.0,0.0,0.0,0.0,0.0,0.0,0.0,0.0,0.0,0.0,0.0,0.0,0.0,0.0,0.0,0.0,0.0,0.0,0.0,0.0,0.0,0.0,0.0,0.0,0.0,0.0,0.0,0.0,0.0,0.0,0.0,0.0,0.0,0.0,0.0,0.0,0.0,0.0,0.0,0.0,0.0,0.0,0.6387,0.6387,0.6137,0.5636,0.458,0.3776,0.3274,0.1663,0.0694,0.0,0.0,0.0,0.0,0.0,0.0,0.0,0.0,0.0,0.0,0.0,0.0,0.0,0.0,0.0,0.0,0.0,0.0,0.0,0.0,0.0,0.0,0.0,0.0,0.0,0.0,0.0,0.0,0.0,0.0,0.0,0.0,0.0,0.0,0.0,0.0,0.0,0.0,0.0,0.0,0.7217,0.7018,0.6803,0.0,0.0,0.0,0.0,0.0,0.0,0.0487,0.0049,0.0,0.0,0.0,0.0,0.0,0.0,0.0,0.0,0.0,0.0,0.0,0.0,0.0,0.0,0.0,0.0,0.0,0.0,0.0,0.0,0.0,0.0,0.0,0.0,0.0,0.0,0.0,0.0,0.0,0.0,0.0,0.0,0.0,0.0,0.0,0.0,0.0,0.0,0.0,0.0,0.0,0.0,0.0,0.0,0.0,0.0,0.0,0.0,0.0,0.0,0.0,0.0,0.0,0.0,0.0,0.6783,0.6587,0.6437,0.6387,0.5334,0.4782,0.4784,0.2922,0.1733,0.0,0.0,0.0,0.0,0.0,0.0,0.0,0.0,0.0,0.0,0.0,0.0,0.0,0.0,0.0,0.0,0.0,0.0,0.0,0.0,0.0,0.0,0.0,0.0,0.0,0.0,0.0,0.0,0.0,0.0,0.0,0.0,0.0,0.0,0.0,0.0,0.0,0.0,0.0,0.0,0.0,0.7271,0.6765,0.6489,0.0,0.0,0.0,0.0,0.2055,0.1508,0.0,0.0,0.0,0.0,0.0,0.0,0.0,0.0,0.0,0.0,0.0,0.0,0.0,0.0,0.0,0.0,0.0,0.0,0.0,0.0,0.0,0.0,0.0,0.0,0.0,0.0,0.0,0.0,0.0,0.0,0.0,0.0,0.0,0.0,0.0,0.0,0.0,0.0,0.0,0.0,0.0,0.0,0.0,0.0,0.0,0.0,0.0,0.0,0.0,0.0,0.0,0.0,0.0,0.0,0.0,0.0,0.8166,0.7235,0.6642,0.6387,0.5386,0.4782,0.4784,0.3626,0.2574,0.0,0.0,0.0,0.0,0.0,0.0,0.0,0.0,0.0,0.0,0.0,0.0,0.0,0.0,0.0,0.0,0.0,0.0,0.0,0.0,0.0,0.0,0.0,0.0,0.0,0.0,0.0,0.0,0.0,0.0,0.0,0.0,0.0,0.0,0.0,0.0,0.0,0.0,0.0,0.0,0.0,0.7324,0.6567,0.6342,0.5922,0.0,0.0,0.4159,0.3163,0.1984,0.0,0.0,0.0,0.0,0.0,0.0,0.0,0.0,0.0,0.0,0.0,0.0,0.0,0.0,0.0,0.0,0.0,0.0,0.0,0.0,0.0,0.0,0.0,0.0,0.0,0.0,0.0,0.0,0.0,0.0,0.0,0.0,0.0,0.0,0.0,0.0,0.0,0.0,0.0,0.0,0.0,0.0,0.0,0.0,0.0,0.0,0.0,0.0,0.0,0.0,0.0,0.0,0.0,0.0,0.0,0.8429,0.8143,0.7245,0.6692,0.6387,0.5934,0.5734,0.5684,0.4682,0.3612,0.0,0.0,0.0,0.0,0.0,0.0,0.0,0.0,0.0,0.0,0.0,0.0,0.0,0.0,0.0,0.0,0.0,0.0,0.0,0.0,0.0,0.0,0.0,0.0,0.0,0.0,0.0,0.0,0.0,0.0,0.0,0.0,0.0,0.0,0.0,0.0,0.0,0.0,0.0,0.0,0.0,0.0,0.6667,0.6501,0.0,0.0,0.0,0.5186,0.4204,0.0,0.0,0.0,0.0,0.0,0.0,0.0,0.0,0.0,0.0,0.0,0.0,0.0,0.0,0.0,0.0,0.0,0.0,0.0,0.0,0.0,0.0,0.0,0.0,0.0,0.0,0.0,0.0,0.0,0.0,0.0,0.0,0.0,0.0,0.0,0.0,0.0,0.0,0.0,0.0,0.0,0.0,0.0,0.0,0.0,0.0,0.0,0.0,0.0,0.0,0.0,0.0,0.0,0.0,0.0,0.0,0.0,0.862,0.7806,0.7089,0.6539,0.6489,0.6489,0.6387,0.5613,0.0,0.0,0.0,0.0,0.0,0.0,0.0,0.0,0.0,0.0,0.0,0.0,0.0,0.0,0.0,0.0,0.0,0.0,0.0,0.0,0.0,0.0,0.0,0.0,0.0,0.0,0.0,0.5127,0.0,0.0,0.0,0.0,0.0,0.0,0.0,0.0,0.0,0.0,0.0,0.0,0.0,0.0,0.7379,0.7213,0.6792,0.6465,0.0,0.0,0.603,0.5268,0.4937,0.4445,0.0,0.0,0.0,0.0,0.0,0.0,0.0,0.0,0.0,0.0,0.0,0.0,0.0,0.0,0.0,0.0,0.0,0.0,0.0,0.0,0.0,0.0,0.0,0.0,0.0,0.0,0.0,0.0,0.0,0.0,0.0,0.0,0.0,0.0,0.0,0.0,0.0,0.0,0.0,0.0,0.0,0.0,0.0,0.0,0.0,0.0,0.0,0.0,0.0,0.0,0.0,0.0,0.0,0.0,1.1427,1.0248,0.9466,0.8326,0.6842,0.6795,0.6642,0.6434,0.6287,0.5685,0.0,0.0,0.0,0.0,0.0,0.0,0.0,0.0,0.0,0.0,0.0,0.0,0.0,0.0,0.0,0.0,0.0,0.0,0.0,0.0,0.0,0.0,0.0,0.0,0.0,0.0,0.0,0.0,0.0,0.0,0.0,0.0,0.0,0.0,0.0,0.0,0.0,0.0,0.0,0.0,0.0,0.8612,0.8357,0.7434,0.6692,0.0,0.6336,0.6304,0.6258,0.5429,0.4775,0.46,0.0,0.0,0.0,0.0,0.0,0.0,0.0,0.0,0.0,0.0,0.0,0.0,0.0,0.0,0.0,0.0,0.0,0.0,0.0,0.0,0.0,0.0,0.0,0.0,0.0,0.0,0.0,0.0,0.0,0.0,0.0,0.0,0.0,0.0,0.0,0.0,0.0,0.0,0.0,0.0,0.0,0.0,0.0,0.0,0.0,0.0,0.0,0.0,0.0,0.0,0.0,0.0,0.0,1.1672,1.0847,1.0411,0.9505,0.812,0.8021,0.7585,0.6623,0.668,0.6075,0.0,0.0,0.0,0.0,0.0,0.0,0.0,0.0,0.0,0.0,0.0,0.0,0.0,0.0,0.0,0.0,0.0,0.0,0.0,0.0,0.0,0.0,0.0,0.0,0.0,0.0,0.0,0.0,0.5518,0.5818,0.6239,0.0,0.0,0.0,0.0,0.0,0.0,0.0,0.0,0.0,0.0,0.9449,0.8531,0.8071,0.0,0.0,0.6399,0.6388,0.6379,0.603,0.5713,0.5678,0.527,0.0,0.0,0.0,0.0,0.0,0.0,0.0,0.0,0.0,0.0,0.0,0.0,0.0,0.0,0.0,0.0,0.0,0.0,0.0,0.0,0.0,0.0,0.0,0.0,0.0,0.0,0.0,0.0,0.0,0.0,0.0,0.0,0.0,0.0,0.0,0.0,0.0,0.0,0.0,0.0,0.0,0.0,0.0,0.0,0.0,0.0,0.0,0.0,0.0,0.0,0.0,0.0,1.1896,1.1162,1.1123,1.05,0.9191,0.8855,0.8225,0.7215,0.699,0.6311,0.0,0.0,0.0,0.0,0.0,0.0,0.0,0.0,0.0,0.0,0.0,0.0,0.0,0.0,0.0,0.0,0.0,0.0,0.0,0.0,0.0,0.0,0.0,0.0,0.0,0.0,0.0,0.0,0.6533,0.6724,0.7283,0.0,0.0,0.0,0.0,0.0,0.0,0.0,0.0,0.0,0.0,1.0333,0.9444,0.8761,0.7912,0.688,0.6562,0.6373,0.6391,0.632,0.6303,0.6219,0.0,0.0,0.0,0.0,0.0,0.0,0.0,0.0,0.0,0.0,0.0,0.0,0.0,0.0,0.0,0.0,0.0,0.0,0.0,0.0,0.0,0.0,0.0,0.0,0.0,0.0,0.0,1.3958,0.0,0.0,1.4298,0.0,0.0,0.0,0.0,0.0,0.0,0.0,0.0,0.0,0.0,0.0,0.0,0.0,0.0,0.0,0.0,0.0,0.0,0.0,0.0,0.0,0.0,1.2458,1.1246,1.1677,1.1267,1.0005,0.908,0.8524,0.8178,0.7165,0.6597,0.653,0.0,0.0,0.0,0.0,0.0,0.0,0.0,0.0,0.0,0.0,0.0,0.0,0.0,0.0,0.0,0.0,0.0,0.0,0.0,0.0,0.0,0.0,0.0,0.0,0.0,0.0,0.8853,0.8569,0.8373,0.0,0.0,0.0,0.0,0.0,0.0,0.0,0.0,0.0,1.4142,1.25,1.1287,1.1463,0.9509,0.7931,0.7498,0.6851,0.6396,0.6342,0.6317,0.6276,0.0,0.0,0.0,0.0,0.0,0.0,0.0,0.0,0.0,0.0,0.0,0.0,0.0,0.0,0.0,0.0,0.0,0.0,0.0,0.0,0.0,0.0,0.0,0.0,0.0,0.0,0.0,1.5718,1.6186,0.0,0.0,0.0,0.0,0.0,0.0,0.0,0.0,0.0,0.0,0.0,1.6438,1.6206,0.0,0.0,0.0,0.0,0.0,0.0,0.0,0.0,0.0,0.0,0.0,0.0,1.254,1.1983,1.2609,1.2403,1.1288,1.0966,1.0301,0.9303,0.9104,0.8504,0.7432,0.0,0.0,0.0,0.0,0.0,0.0,0.0,0.0,0.0,0.0,0.0,0.0,0.0,0.0,0.0,0.0,0.0,0.0,0.0,0.0,0.0,0.0,0.0,0.0,0.0,0.8832,0.0,0.0,0.0,0.0,0.0,0.0,0.0,0.0,0.0,0.0,1.3356,1.3613,1.4014,1.3281,1.2457,1.1712,1.048,0.9158,0.0,0.0,0.0,0.0,0.0,0.0,0.0,0.0,0.0,0.0,0.0,0.0,0.0,0.0,0.5371,0.4548,0.4208,0.3992,0.3638,0.0,0.0,0.0,0.0,0.0,0.0,0.0,0.0,0.0,0.0,0.0,0.0,0.0,0.0,1.6927,1.7446,1.7196,0.0,0.0,0.0,0.0,0.0,0.0,0.0,0.0,1.8083,1.8055,1.7761,1.7472,1.7089,1.6669,1.596,1.5119,0.0,0.0,0.0,0.0,0.0,0.0,0.0,0.0,1.2487,1.2349,1.2916,1.2868,1.2187,1.1874,1.1263,1.0366,1.018,0.9525,0.8386,0.7506,0.6888,0.0,0.0,0.0,0.0,0.0,0.0,0.0,0.0,0.0,0.0,0.0,0.0,0.0,0.0,0.0,0.0,0.0,0.0,0.0,0.0,0.0,0.0,0.0,0.9823,0.0,0.0,0.0,0.0,0.0,0.0,0.0,0.0,0.0,1.2765,1.3304,1.3749,1.4008,1.3636,1.3008,1.2037,0.0,0.0,0.0,0.0,0.0,0.0,0.0,0.6296,0.638,0.6061,0.5882,0.6002,0.6024,0.6021,0.6021,0.0,0.0,0.5048,0.475,0.4429,0.3955,0.3768,0.3511,0.2912,0.2845,0.2863,0.0,0.0,0.0,0.0,1.801,0.0,0.0,0.0,1.7694,1.7731,0.0,1.773,0.0,0.0,0.0,0.0,1.7611,1.8753,0.0,0.0,2.0072,2.0268,1.9834,1.9066,1.8709,1.862,1.7196,1.6548,1.6569,1.5602,0.0,0.0,0.0,0.0,0.0,0.0,1.2336,1.2329,1.2596,1.2687,1.2638,1.1778,1.13,1.1295,1.0423,0.9743,0.9354,0.9081,0.8734,0.8226,0.812,0.0,0.0,0.0,0.0,0.0,0.0,0.0,0.0,0.0,0.0,0.0,0.0,0.0,0.0,0.0,0.0,0.0,0.0,0.0,0.0,1.2282,0.0,0.0,0.0,0.0,0.0,0.0,0.0,0.0,0.0,1.2054,1.2955,1.3544,1.3978,1.4208,0.0,0.0,0.0,0.0,0.9938,0.9315,0.864,0.8166,0.7976,0.7447,0.7031,0.7034,0.0,0.0,0.5925,0.5987,0.6033,0.5944,0.6033,0.598,0.6134,0.5665,0.512,0.4616,0.4089,0.3528,0.3057,0.2853,0.2778,2.0521,0.0,0.0,0.0,0.0,1.8218,1.866,1.9512,1.9254,1.9543,2.0079,1.9503,0.0,0.0,0.0,0.0,0.0,0.0,1.9847,2.0148,2.0389,2.0268,1.9893,1.9693,1.9403,1.9112,1.8696,1.8215,1.7653,1.7371,1.6165,1.4166,0.0,0.0,0.0,0.0,1.3048,1.2445,1.2873,1.2779,1.2149,1.1864,1.1729,1.1735,1.081,1.0218,1.0018,0.9325,0.8818,0.8585,0.8445,0.0,0.0,0.0,0.0,0.0,0.0,0.0,0.0,0.0,0.0,0.0,0.0,0.0,0.0,0.0,0.0,0.0,0.0,0.0,1.1447,1.1642,1.1655,0.0,0.0,0.0,0.0,0.0,0.0,0.0,0.0,0.0,1.274,1.3127,1.3375,0.0,0.0,1.2785,1.2647,1.1531,1.0517,0.992,0.919,0.0,0.8072,0.7759,0.7594,0.7549,0.7337,0.719,0.7231,0.7238,0.7282,0.7238,0.7238,0.7255,0.7244,0.6367,0.543,0.4844,0.4377,0.3864,0.3313,0.294,0.276,2.1389,1.994,1.994,1.994,1.9914,1.974,2.0088,2.0844,2.0651,2.0863,2.1284,2.0817,2.0515,2.0332,1.9962,0.0,0.0,0.0,2.0397,2.0521,2.0521,2.0218,1.9696,1.9637,1.9549,1.9311,1.9152,1.8906,1.8545,1.8082,1.7098,1.5696,0.0,1.3757,1.3317,1.3498,1.3399,1.2965,1.3293,1.3193,1.2632,1.2359,1.216,1.1886,1.1347,1.0987,1.0751,1.0222,0.9839,0.9652,0.9585,0.9422,0.0,0.0,0.0,0.0,0.0,0.0,0.0,0.0,0.0,0.0,0.0,1.1184,1.1353,0.0,0.0,0.0,1.1886,1.1787,1.1461,1.1543,0.0,0.0,0.0,0.0,0.0,0.0,0.0,1.2043,1.2506,1.2908,1.3069,1.3243,1.3299,1.3254,1.3052,1.2811,1.2586,0.0,1.1159,1.0391,0.9881,0.9367,0.8905,0.848,0.8122,0.7748,0.7591,0.7554,0.7554,0.7554,0.7554,0.755,0.755,0.7554,0.755,0.6873,0.6143,0.5677,0.5288,0.4808,0.4283,0.3628,0.3151,2.2197,2.1909,2.1865,2.1776,2.1687,2.1687,2.1687,2.1687,2.1687,2.1687,2.1687,2.1659,2.1456,2.1121,2.0804,0.0,2.1281,2.1244,2.0989,2.0605,2.0526,2.0136,1.939,1.935,1.9341,1.9381,1.8962,1.8886,1.9134,1.8,1.7431,1.7351,1.5811,1.45,1.3502,1.3485,1.355,1.3687,1.3747,1.3715,1.3655,1.308,1.2528,1.2013,1.1939,1.1778,1.1548,1.1492,1.1345,1.1135,1.1117,1.0991,1.0695,0.0,0.0,0.0,0.0,0.0,0.0,0.0,0.0,0.0,0.0,0.0,0.0,0.0,0.0,0.0,1.1979,0.0,1.2003,1.201,0.0,0.0,0.0,1.201,1.204,1.2241,1.2381,1.24,0.0,0.0,1.3707,1.3701,1.3641,1.3544,1.3256,1.2915,1.2474,1.2175,1.1714,1.0878,1.0636,1.0448,0.9928,0.932,0.8605,0.7889,0.748,0.7424,0.7477,0.7394,0.7349,0.7454,0.7353,0.7394,0.7364,0.7368,0.7274,0.7045,0.655,0.6045,0.5515,0.4661,0.3917,2.3266,2.381,2.3454,2.2677,2.1687,2.1687,2.1687,2.1687,2.1687,2.1687,2.1668,2.1392,2.1327,2.1492,2.1885,2.232,2.2663,2.2338,2.1851,2.1329,2.0933,2.0455,1.9981,1.9499,1.9539,1.9923,1.942,1.8882,1.8383,1.8076,1.7484,1.6599,1.6165,1.5579,1.4796,1.5022,1.4684,1.3815,1.4013,1.3802,1.3117,1.2968,1.2825,1.2668,1.2211,1.196,1.1889,1.1433,1.1178,1.1117,1.1117,1.0954,1.0695,1.0472,0.0,0.0,0.0,0.0,0.0,0.0,0.0,0.0,0.0,1.1691,1.148,0.0,1.1882,0.0,1.2668,1.2756,1.3042,1.3025,0.0,0.0,1.3208,1.3113,1.3264,1.3157,1.315,1.3333,1.3586,1.3707,1.3707,1.3707,1.3675,1.3669,1.3132,1.2764,1.2623,1.2275,1.1929,1.1655,1.1047,1.0472,1.0025,0.9418,0.8955,0.8886,0.8693,0.8622,0.876,0.8533,0.8386,0.8524,0.8439,0.8413,0.8498,0.8448,0.8387,0.8346,0.7343,0.6231,0.589,0.5333,0.4726,2.4307,2.4723,2.451,2.3823,2.295,2.2731,2.2643,2.2633,2.2633,2.2643,2.2624,2.2428,2.2413,2.2581,2.295,2.3249,2.344,2.2986,2.2478,2.1981,2.1477,2.1046,2.0634,2.0313,2.0352,2.0624,2.0053,1.9573,1.9125,1.8743,1.818,1.7542,1.7345,1.6881,1.6079,1.5861,1.5394,1.4697,1.488,1.4488,1.355,1.3513,1.3295,1.2893,1.2562,1.2482,1.2659,1.2365,1.2181,1.2174,1.2174,1.1998,1.1702,1.143,1.1209,0.0,0.0,0.0,0.0,0.0,0.0,0.0,0.0,0.0,0.0,0.0,1.2579,1.323,1.3173,1.3252,1.3561,1.3589,1.3565,1.3568,1.3446,1.3411,1.3502,1.3369,1.339,1.365,1.3959,1.4148,1.4148,1.4155,1.4116,1.4155,1.346,1.3031,1.3291,1.3003,1.2626,1.2129,1.1534,1.0724,0.9805,0.9261,0.8961,0.8973,0.8798,0.867,0.8864,0.8647,0.8467,0.8566,0.8505,0.8496,0.8694,0.8661,0.8618,0.8599,0.8035,0.7375,0.7061,0.6384,0.5604,2.539,2.5431,2.5378,2.5189,2.4829,2.4392,2.4049,2.38,2.38,2.38,2.379,2.393,2.393,2.393,2.4059,2.4059,2.4029,2.3448,2.295,2.2494,2.1989,2.1583,2.1237,2.1211,2.1242,2.1308,2.0685,2.0369,2.0279,1.9489,1.9059,1.9023,1.8676,1.8094,1.7276,1.6515,1.6044,1.5798,1.5798,1.5365,1.4517,1.4482,1.4078,1.3331,1.3185,1.3324,1.368,1.36,1.3564,1.3564,1.3527,1.3353,1.3062,1.2742,1.2586,0.0,1.2692,0.0,0.0,0.0,0.0,0.0,0.0,0.0,0.0,1.3199,1.3632,1.3793,1.3668,1.367,1.3967,1.3995,1.3881,1.3573,1.3544,1.3523,1.3488,1.348,1.3549,1.3772,1.4306,1.4629,1.4659,1.4637,1.4561,1.4493,1.3803,1.3469,1.3977,1.3731,1.3138,1.234,1.192,1.1079,0.9852,0.9311,0.9103,0.8934,0.8716,0.8401,0.8704,0.8415,0.8184,0.8218,0.8138,0.811,0.8288,0.8321,0.8325,0.8368,0.8426,0.8407,0.8147,0.7441,0.6654,2.7042,2.733,2.6969,2.6753,2.667,2.6588,2.5495,2.38,2.38,2.38,2.3844,2.4413,2.469,2.4733,2.5253,2.5517,2.5431,2.4164,2.3268,2.2699,2.1859,2.1432,2.137,2.127,2.1433,2.1842,2.0872,2.0236,1.9901,1.9364,1.8933,1.8596,1.8549,1.8408,1.823,0.0,0.0,0.0,1.5798,1.5692,1.5551,1.5515,1.5444,1.5259,1.476,0.0,1.4609,1.4163,1.3911,1.3896,1.3583,0.0,0.0,0.0,0.0,0.0,0.0,0.0,0.0,0.0,0.0,0.0,1.4023,1.4031,1.368,1.4377,1.4527,1.3903,1.415,1.4522,1.49,1.4939,1.4916,1.4853,1.4838,1.4729,1.4384,1.4338,1.4361,1.4415,1.4299,1.4308,1.4506,1.4171,1.3943,1.4167,1.3824,1.3716,1.4067,1.3396,1.2763,1.2506,1.1873,1.122,1.0665,1.0212,0.9959,1.002,0.9891,0.9724,0.9632,0.8983,0.8522,0.8602,0.8096,0.7722,0.7897,0.793,0.7957,0.8113,0.8174,0.8162,0.7951,0.7865,0.7434,2.8093,2.7806,2.7832,2.7584,0.0,2.7418,2.6764,2.5453,2.5242,2.5041,2.485,2.5242,2.538,2.5422,2.5728,2.5644,2.5164,2.4181,2.3281,2.2531,2.1835,2.1632,2.1831,2.1771,2.1924,2.2173,2.1355,2.0785,2.0324,1.9839,1.9379,1.8951,1.8941,1.8696,1.8221,1.793,1.7572,1.7129,1.6872,1.6629,1.6455,1.6184,1.5947,1.5798,1.5507,0.0,0.0,0.0,0.0,0.0,0.0,0.0,0.0,0.0,0.0,1.3809,1.3999,1.3859,1.3308,1.3879,1.432,1.4501,1.4918,1.505,1.4849,1.5261,1.5386,1.5082,1.5106,1.5223,1.5409,1.5293,1.511,1.4943,1.4919,1.4803,1.4621,1.4447,1.4344,1.4347,1.4061,1.3926,1.4085,1.3839,1.3697,1.3799,1.3553,1.3434,1.3526,1.3305,1.2985,1.2505,1.1735,1.1062,1.0755,1.0573,1.0379,1.0369,1.0178,1.0069,1.0095,0.958,0.9148,0.91,0.85,0.8053,0.8216,0.7966,0.7717,0.7906,0.7963,0.7844,0.7581,0.7678,0.7614,2.8534,2.7606,2.815,2.7917,2.7234,2.7671,2.7608,2.7169,2.6771,0.0,0.0,2.6063,2.6021,2.601,2.5933,2.5428,2.4583,2.3853,2.3086,2.2243,2.1715,2.1723,2.2182,2.2193,2.2237,2.228,2.1734,2.1288,2.0883,2.026,1.9791,1.942,1.9342,1.8874,1.8069,1.7606,1.7744,1.8479,1.799,1.7586,1.7345,1.6915,1.6533,1.628,1.628,1.642,1.6682,1.6609,1.6394,1.6093,1.5939,1.5617,1.5068,1.4956,1.4912,1.4945,1.5256,1.5214,1.4803,1.5118,1.5349,1.534,1.5787,1.5966,1.5791,1.5739,1.5799,1.606,1.5805,1.5612,1.5605,1.5365,1.5016,1.455,1.451,1.4494,1.4407,1.4169,1.4013,1.3982,1.3711,1.3529,1.36,1.3465,1.3466,1.3474,1.3243,1.2996,1.306,1.321,1.3086,1.2457,1.1858,1.1262,1.0982,1.0933,1.0805,1.0789,1.0585,1.041,1.0316,1.0098,0.9857,0.96,0.9026,0.8681,0.8685,0.8215,0.777,0.791,0.794,0.7808,0.7402,0.7405,0.7412,2.8005,2.7054,2.757,2.7711,2.7612,2.7684,2.7513,2.7093,2.7111,2.7062,2.6981,2.6569,2.6415,2.637,2.5991,2.5512,2.4859,2.3609,2.2693,2.2111,2.1348,2.1255,2.168,2.1691,2.1909,2.2215,2.143,2.096,2.0807,1.9954,1.9453,1.9333,1.8993,1.8711,1.8596,1.8505,1.854,1.8639,1.8096,1.7949,1.8297,1.823,1.8172,1.8128,1.8075,1.8138,1.8206,1.7793,1.7576,1.7497,1.6807,1.6479,1.6701,1.6378,1.6254,1.6243,1.6588,1.6502,1.5752,1.6089,1.6317,1.6366,1.707,1.701,1.5826,1.5384,1.5258,1.536,1.5394,1.5262,1.5265,1.5279,1.4996,1.4305,1.4188,1.4077,1.3874,1.3771,1.3756,1.3748,1.3362,1.334,1.3524,1.3172,1.2932,1.3036,1.2925,1.2717,1.271,1.2702,1.2687,1.2585,1.2468,1.2367,1.2174,1.2274,1.2112,1.2034,1.1918,1.1628,1.1252,1.0763,1.0328,1.0016,0.9337,0.8896,0.8848,0.8628,0.8417,0.8431,0.8412,0.8237,0.773,0.7547,0.73,2.7594,2.6946,2.7162,2.7258,2.727,2.7558,2.76,2.7442,2.7782,2.7644,2.7151,2.6655,2.6449,2.6404,2.5899,2.5265,2.4506,2.3591,2.2752,2.1958,2.1129,2.0997,2.1439,2.1291,2.1343,2.1483,2.1113,2.0763,2.0424,1.9757,1.9288,1.8993,1.8323,1.7962,1.7923,1.7923,1.8065,1.8327,1.8008,1.7954,1.8181,1.7892,1.774,1.773,1.774,1.773,1.773,1.7518,1.7308,1.7109,1.6718,1.6507,1.6447,1.6256,1.6185,1.6195,1.6347,1.6306,1.5923,1.6266,1.6497,1.6518,1.6868,1.6849,1.6189,1.6413,1.6481,1.6258,1.6252,1.6163,1.5929,1.5965,1.559,1.4597,1.4747,1.4746,1.428,1.4274,1.4365,1.4322,1.4061,1.3783,1.3559,1.3262,1.2991,1.2891,1.267,1.2621,1.2613,1.2423,1.2337,1.2543,1.259,1.259,1.2582,1.259,1.256,1.2467,1.2271,1.2038,1.1695,1.1218,1.085,1.0573,0.9941,0.9479,0.935,0.8854,0.8617,0.858,0.845,0.8247,0.8,0.7845,0.7433,2.7043,2.6537,2.6657,2.6777,2.6922,2.733,2.7596,2.7714,2.815,2.802,2.7429,2.6857,2.6546,2.6489,2.5862,2.5044,2.4148,2.3606,2.2798,2.183,2.1062,2.1013,2.1419,2.1063,2.0885,2.0962,2.0818,2.0511,2.0096,1.9627,1.9113,1.8512,1.7711,1.7306,1.7306,1.7306,1.7503,1.7806,1.7801,1.7856,1.8068,1.7668,1.7451,1.7451,1.7492,1.7482,1.7451,1.7359,1.7155,1.6858,1.6735,1.654,1.6249,1.6228,1.6189,1.6218,1.6228,1.6218,1.6239,1.6499,1.6684,1.6684,1.6776,1.6797,1.6756,1.7369,1.7601,1.7099,1.6943,1.6831,1.6542,1.6545,1.6174,1.5138,1.5355,1.5292,1.4789,1.4831,1.4928,1.4891,1.4653,1.427,1.3872,1.3722,1.358,1.3202,1.292,1.2797,1.2765,1.24,1.217,1.2351,1.2407,1.232,1.2351,1.2328,1.2312,1.2351,1.2091,1.1818,1.1576,1.1373,1.1137,1.0821,1.0422,1.003,0.9848,0.9306,0.8886,0.8924,0.88,0.8548,0.8377,0.8094,0.7757,2.5949,2.5564,2.5997,2.6478,2.6837,2.6946,2.7246,2.7642,2.7789,2.8026,2.8203,2.7412,2.7007,2.689,2.5948,2.4904,2.3933,2.3452,2.27,2.1808,2.134,2.1401,2.1737,2.1024,2.0895,2.1185,2.0599,2.026,2.0118,1.9605,1.8929,1.8108,1.7558,1.7306,1.7306,1.7306,1.7339,1.7372,1.7359,1.7767,1.8572,1.8596,1.8555,1.8555,1.8525,1.8566,1.844,1.8135,1.7897,1.7832,1.7391,1.721,1.7155,1.7155,1.7155,1.7145,1.7155,1.7183,1.7155,1.7199,1.7186,1.7264,1.7575,1.7629,1.7262,1.7662,1.7588,1.6849,1.6598,1.6635,1.6505,1.6583,1.627,1.5498,1.5472,1.5261,1.501,1.4782,1.4734,1.4725,1.4764,1.4499,1.4469,1.438,1.4321,1.4142,1.3692,1.3394,1.3266,1.2662,1.2115,1.2052,1.1834,1.1687,1.1667,1.1619,1.1714,1.1675,1.1574,1.1419,1.1209,1.1067,1.0944,1.0679,1.0397,1.0222,1.0166,0.9922,0.9601,0.9422,0.9341,0.9244,0.8811,0.8335,0.7919,2.5697,2.5769,2.5673,2.5757,2.5997,2.6621,2.7018,2.7234,2.7558,2.781,2.787,2.695,2.6697,2.6874,2.554,2.4636,2.4196,2.3432,2.2881,2.2428,2.1816,2.1611,2.1699,2.1241,2.1092,2.1274,2.0909,2.0658,2.0256,1.9458,1.8643,1.8021,1.7518,1.7306,1.7306,1.7306,1.7306,1.7306,1.7306,1.7503,1.7831,1.7857,1.7886,1.7875,1.7875,1.7886,1.7831,1.7387,1.7125,1.7114,1.6929,1.683,1.683,1.7114,1.7136,1.6874,1.683,1.683,1.6803,1.7131,1.7306,1.7306,1.7492,1.7514,1.7328,1.7464,1.7402,1.7108,1.7214,1.7303,1.7042,1.7229,1.6989,1.6098,1.6105,1.6132,1.5536,1.5777,1.595,1.5921,1.5806,1.5546,1.5187,1.4756,1.4529,1.4499,1.4231,1.4049,1.372,1.3138,1.2694,1.2388,1.2033,1.1738,1.1566,1.1515,1.1499,1.1475,1.132,1.1114,1.1072,1.0814,1.0647,1.0538,1.031,1.0202,1.0272,0.9833,0.9462,0.9475,0.9267,0.8992,0.8795,0.8549,0.8412,2.5528,2.5793,2.5456,2.5384,2.5612,2.6501,2.6973,2.7183,2.768,2.7825,2.7583,2.6724,2.653,2.6675,2.5378,2.4594,2.4239,2.3539,2.3023,2.277,2.2248,2.2025,2.1994,2.1827,2.1639,2.1526,2.1431,2.1178,2.0651,1.9546,1.877,1.8404,1.7828,1.7545,1.7645,1.7656,1.759,1.7534,1.7534,1.7462,1.7373,1.7434,1.7462,1.7306,1.7306,1.7251,1.7071,1.671,1.6432,1.6312,1.6302,1.6312,1.6323,1.6688,1.671,1.6378,1.6432,1.6525,1.6525,1.6994,1.7306,1.7306,1.7306,1.7306,1.7306,1.7306,1.7306,1.7322,1.7606,1.7599,1.7426,1.7595,1.7377,1.6563,1.687,1.6853,1.6428,1.6655,1.6825,1.6835,1.6627,1.6475,1.5968,1.5517,1.5235,1.5177,1.4962,1.4681,1.4249,1.3821,1.3305,1.2865,1.2454,1.2075,1.1718,1.1654,1.1638,1.1597,1.1454,1.1372,1.1241,1.0977,1.0726,1.0854,1.0367,1.0153,1.0314,0.9878,0.9368,0.9305,0.9056,0.8732,0.8718,0.8683,0.8632,2.5324,2.5348,2.5312,2.5648,2.6118,2.6696,2.7198,2.7656,2.8175,2.815,2.7681,2.711,2.6875,2.6813,2.5757,2.4737,2.395,2.371,2.3182,2.248,2.269,2.2848,2.2848,2.295,2.2756,2.2341,2.2106,2.1678,2.1161,2.0102,1.9549,1.9475,1.8542,1.8197,1.839,1.8417,1.8309,1.8104,1.8077,1.7881,1.749,1.7843,1.7843,1.7445,1.7306,1.7115,1.6661,1.6535,1.628,1.5854,1.5833,1.5833,1.5869,1.5902,1.5913,1.5928,1.6289,1.6518,1.6573,1.7027,1.7334,1.7306,1.7306,1.7306,1.7306,1.7306,1.7306,1.7306,1.7333,1.7361,1.7328,1.7372,1.7366,1.7216,1.7222,1.7239,1.7222,1.6994,1.6983,1.6994,1.6881,1.6751,1.6705,1.6722,1.6485,1.6285,1.5911,1.5448,1.5148,1.4459,1.3802,1.3365,1.2939,1.2531,1.2113,1.1891,1.1913,1.1888,1.1823,1.1881,1.178,1.1653,1.1402,1.1158,1.0797,1.058,1.0491,1.0202,0.9779,0.9446,0.8948,0.8676,0.8504,0.8627,0.8554,2.6082,2.638,2.638,2.6493,2.6731,2.7247,2.758,2.7771,2.7974,2.7961,2.7695,2.7199,2.6958,2.6942,2.6134,2.5403,2.4707,2.3995,2.3422,2.3113,2.3263,2.3352,2.3352,2.3399,2.3369,2.319,2.3027,2.26,2.1764,2.055,1.9921,1.9813,1.927,1.8989,1.9056,1.9083,1.8977,1.8818,1.8804,1.8682,1.8398,1.8587,1.8548,1.8371,1.8018,1.7578,1.7093,1.6424,1.5975,1.5824,1.5529,1.5491,1.5753,1.5802,1.5937,1.6273,1.6776,1.6903,1.6686,1.7337,1.7645,1.7362,1.7306,1.7306,1.7306,1.7306,1.7306,1.7306,1.7306,1.7306,1.7306,1.7306,1.7306,1.7306,1.7306,1.7306,1.7278,1.7239,1.7183,1.7183,1.7032,1.6909,1.6846,1.679,1.679,1.6722,1.6446,1.6105,1.5703,1.5052,1.4463,1.4013,1.3576,1.3228,1.3085,1.2363,1.2017,1.1993,1.1968,1.2002,1.1934,1.1959,1.176,1.1699,1.1355,1.1013,1.0889,1.0205,0.9819,0.905,0.8584,0.8606,0.8178,0.8408,0.8238,2.6667,2.6985,2.7007,2.7007,2.7096,2.7767,2.8077,2.8101,2.8256,2.8243,2.8006,2.7488,2.7139,2.6874,2.6293,2.5849,2.5401,2.4355,2.3754,2.3636,2.3754,2.3842,2.3872,2.3989,2.3959,2.3761,2.3443,2.2869,2.2056,2.0942,2.0436,2.036,1.9905,1.9721,1.9786,1.9786,1.9683,1.9566,1.9514,1.941,1.9186,1.9317,1.931,1.9085,1.8698,1.8135,1.7436,1.656,1.5997,1.5858,1.5567,1.5543,1.5823,1.5812,1.5927,1.6298,1.6967,1.7145,1.6729,1.7504,1.7859,1.7362,1.7306,1.7306,1.7306,1.7306,1.7306,1.7306,1.7306,1.7306,1.7306,1.7306,1.7306,1.7306,1.7306,1.7306,1.7306,1.7306,1.7306,1.7278,1.7172,1.706,1.6987,1.6959,1.692,1.6864,1.6797,1.6581,1.6212,1.571,1.518,1.467,1.425,1.3879,1.3635,1.3108,1.2769,1.272,1.2589,1.2467,1.2344,1.232,1.2261,1.219,1.1935,1.1576,1.1022,1.0307,0.9538,0.8749,0.8703,0.8877,0.8531,0.8227,0.8188,2.704,2.7108,2.6994,2.7142,2.727,2.8138,2.8581,2.8699,2.9148,2.899,2.8509,2.8047,2.7525,2.6971,2.6408,2.6014,2.5759,2.4797,2.4105,2.3813,2.4147,2.4321,2.4321,2.4679,2.4597,2.4173,2.3218,2.2449,2.1845,2.1257,2.0962,2.0898,2.0476,2.0372,2.0598,2.056,2.0446,2.027,2.0207,1.9991,1.9541,1.9927,1.9888,1.9428,1.9252,1.8657,1.7497,1.6953,1.6447,1.6088,1.6044,1.6064,1.6027,1.5949,1.5869,1.6138,1.6892,1.7121,1.6781,1.7635,1.8077,1.7617,1.7418,1.749,1.7545,1.7501,1.7473,1.7407,1.7379,1.7362,1.7306,1.7306,1.7306,1.7306,1.7306,1.7306,1.7306,1.7306,1.7306,1.7306,1.7278,1.7306,1.7278,1.725,1.7155,1.705,1.6983,1.6888,1.6658,1.6231,1.5812,1.5295,1.4742,1.4289,1.4082,1.3858,1.3716,1.3597,1.3454,1.33,1.3108,1.3025,1.2856,1.2735,1.221,1.1833,1.1226,1.0546,1.003,0.9413,0.9398,0.9159,0.8918,0.8655,0.848,2.8118,2.8118,2.8085,2.8118,2.8125,2.8485,2.8612,2.8623,2.8811,2.8771,2.8616,2.8427,2.8239,2.7843,2.7037,2.6519,2.6413,2.5334,2.4679,2.4593,2.4708,2.4765,2.4806,2.492,2.469,2.4133,2.3405,2.2738,2.2113,2.1542,2.1274,2.1221,2.1101,2.1082,2.1118,2.1142,2.1044,2.0921,2.0896,2.0747,2.0548,2.0673,2.0471,1.9943,1.9511,1.8911,1.8103,1.7252,1.6724,1.6565,1.6256,1.6235,1.6463,1.6518,1.6637,1.6978,1.7958,1.8271,1.7848,1.8592,1.8977,1.8575,1.8464,1.8452,1.8452,1.8437,1.8263,1.7952,1.7843,1.7733,1.7407,1.7306,1.7334,1.7306,1.7306,1.7306,1.7306,1.7306,1.7306,1.7306,1.7306,1.7306,1.7306,1.7306,1.7278,1.72,1.7117,1.6983,1.6862,1.6486,1.5935,1.5415,1.4974,1.4541,1.4177,1.401,1.3962,1.3868,1.3797,1.3692,1.3573,1.3491,1.3338,1.305,1.2525,1.1967,1.1363,1.0925,1.0484,0.9944,0.9618,0.943,0.929,0.9159,0.9019,2.8587,2.8587,2.8587,2.8587,2.8627,2.8804,2.8912,2.8959,2.8926,2.8912,2.8899,2.8682,2.8343,2.7854,2.7104,2.6535,2.6104,2.5331,2.5005,2.5005,2.5005,2.5005,2.5005,2.5005,2.4544,2.3838,2.3391,2.2768,2.1955,2.1602,2.1385,2.1385,2.1385,2.1385,2.1385,2.1385,2.135,2.1277,2.124,2.1229,2.1169,2.1155,2.0887,2.0321,1.9745,1.9168,1.8561,1.77,1.7196,1.7104,1.6824,1.6866,1.7115,1.7102,1.7186,1.7581,1.835,1.8809,1.8349,1.9121,1.9566,1.9146,1.9013,1.8987,1.8999,1.9013,1.8789,1.8509,1.8429,1.8186,1.7744,1.7617,1.759,1.7606,1.7407,1.7334,1.7306,1.7306,1.7306,1.7306,1.7306,1.7306,1.7306,1.7306,1.7306,1.7278,1.72,1.7117,1.7019,1.6612,1.6122,1.5622,1.515,1.4698,1.4211,1.4104,1.4127,1.4057,1.3962,1.3844,1.3716,1.3658,1.3576,1.317,1.2702,1.2066,1.1456,1.1455,1.1149,1.057,0.9913,0.9971,0.9942,0.9814,0.9657,2.8619,2.8619,2.8619,2.8651,2.8719,2.9182,2.9399,2.9475,2.9475,2.9448,2.9352,2.8817,2.8017,2.7121,2.6793,2.6172,2.5236,2.5073,2.5005,2.5005,2.5005,2.4964,2.4869,2.4909,2.4354,2.3296,2.3188,2.2578,2.1534,2.1426,2.1385,2.1385,2.1385,2.1385,2.1385,2.1385,2.1385,2.1385,2.1399,2.1361,2.1375,2.1361,2.109,2.0508,1.994,1.938,1.8762,1.8124,1.7773,1.772,1.7604,1.7597,1.7659,1.7604,1.7623,1.7636,1.8552,1.8823,1.8665,1.9382,1.9773,1.9382,1.9303,1.9093,1.9251,1.933,1.9212,1.9054,1.904,1.8789,1.8321,1.8159,1.8159,1.8093,1.7826,1.7573,1.739,1.7434,1.7601,1.7545,1.7445,1.7445,1.7573,1.7545,1.7545,1.7545,1.7545,1.759,1.7506,1.72,1.6462,1.6016,1.5703,1.5092,1.4687,1.4267,1.4257,1.421,1.4127,1.4033,1.3858,1.3776,1.357,1.3176,1.2808,1.217,1.1669,1.1559,1.1317,1.0686,1.0448,1.0583,1.0545,1.0361,1.0225,2.8986,2.8972,2.8972,2.8972,2.8986,2.9164,2.9337,2.9508,2.9488,2.9494,2.9366,2.8845,2.8139,2.742,2.6511,2.5928,2.5561,2.5181,2.5005,2.5005,2.5005,2.4706,2.4516,2.4788,2.4164,2.2849,2.3012,2.2578,2.1467,2.1399,2.1385,2.1385,2.1385,2.1385,2.1385,2.1385,2.1385,2.1385,2.1385,2.1385,2.1385,2.1385,2.1101,2.0508,1.9989,1.9415,1.8812,1.8215,1.7902,1.7862,1.7842,1.7828,1.7909,1.82,1.8205,1.8034,1.9088,1.9731,1.9367,1.9984,2.0459,2.041,2.0207,2.0258,2.0271,2.0233,2.0016,1.9734,1.9578,1.9357,1.8895,1.8762,1.8762,1.8774,1.8614,1.836,1.8061,1.829,1.8572,1.856,1.8506,1.8452,1.8452,1.8452,1.8464,1.8452,1.8425,1.8414,1.8259,1.8216,1.7682,1.7062,1.6578,1.5829,1.5184,1.4669,1.4396,1.435,1.4303,1.4257,1.4035,1.3836,1.3478,1.3062,1.2815,1.2281,1.1727,1.1377,1.0981,1.0801,1.0728,1.0785,1.0805,1.0699,1.0679,2.932,2.932,2.9289,2.932,2.9289,2.932,2.9402,2.9518,2.9383,2.9332,2.9162,2.8529,2.7895,2.7257,2.6335,2.5751,2.548,2.5168,2.5018,2.5005,2.5005,2.48,2.4638,2.4869,2.4299,2.3188,2.3147,2.2659,2.1873,2.1534,2.1399,2.1385,2.1385,2.1385,2.1385,2.1385,2.1385,2.1385,2.1385,2.1385,2.1385,2.1385,2.125,2.0816,2.0315,1.9686,1.8907,1.8704,1.8452,1.8065,1.7916,1.7997,1.8303,1.8602,1.8688,1.8563,1.9732,2.016,2.001,2.0505,2.0896,2.0911,2.0848,2.0823,2.0799,2.0823,2.0611,2.0372,2.0283,2.0003,1.9566,1.937,1.9212,1.9066,1.9408,1.9344,1.8563,1.8774,1.896,1.9013,1.9013,1.9013,1.9013,1.9013,1.9013,1.8987,1.8881,1.8907,1.8895,1.8965,1.8787,1.8051,1.7483,1.6811,1.615,1.5614,1.5085,1.496,1.4812,1.4709,1.4306,1.4018,1.3489,1.3104,1.281,1.2423,1.1809,1.1405,1.1335,1.1192,1.1045,1.09,1.09,1.09,1.09,2.9679,2.9665,2.9665,2.9634,2.9634,2.9679,2.9701,2.9649,2.9479,2.9324,2.9091,2.8188,2.7536,2.6782,2.6063,2.5507,2.5046,2.5032,2.5018,2.5005,2.5005,2.4922,2.4909,2.4922,2.4517,2.3798,2.3445,2.2917,2.2291,2.1749,2.1467,2.1412,2.1385,2.1385,2.1385,2.1385,2.1385,2.1385,2.1385,2.1385,2.1385,2.1385,2.1331,2.1223,2.0721,1.9935,1.9356,1.9274,1.9184,1.816,1.8092,1.8432,1.8853,1.8921,1.9165,1.961,2.0138,2.054,2.0462,2.0745,2.1021,2.1021,2.0997,2.0997,2.0972,2.0972,2.0923,2.0835,2.0997,2.0623,2.022,1.9991,1.9759,1.9591,2.0156,2.008,1.9486,1.9172,1.9172,1.9172,1.9225,1.9172,1.9172,1.9172,1.9225,1.9642,1.9565,1.9591,1.9591,1.9592,1.9293,1.8672,1.8203,1.7861,1.7218,1.6604,1.6095,1.5732,1.5536,1.5321,1.4721,1.4291,1.3667,1.3177,1.2857,1.2393,1.1829,1.1601,1.1569,1.1302,1.0952,1.09,1.09,1.09,1.09,2.9988,2.9988,2.9988,2.9988,2.9988,3.0003,3.0103,3.0291,3.0227,2.9965,2.9573,2.8577,2.7622,2.6782,2.5819,2.5113,2.5059,2.5032,2.5005,2.5005,2.5005,2.5005,2.5005,2.5005,2.4435,2.3784,2.3811,2.3336,2.2522,2.2169,2.1857,2.144,2.1385,2.1385,2.1385,2.1385,2.1385,2.1385,2.1385,2.1385,2.1385,2.1385,2.1385,2.1331,2.0857,2.0233,1.97,1.9632,1.9551,1.9374,1.9334,1.941,1.9537,1.9863,1.9949,2.0039,2.0654,2.0958,2.0678,2.0893,2.1155,2.1155,2.1095,2.0997,2.0997,2.1008,2.1008,2.0983,2.0997,2.0885,2.0699,2.0675,2.0486,2.0359,2.0473,2.0624,2.0372,2.0283,2.0207,2.0233,2.0233,2.0309,2.0283,2.0207,2.0233,2.0283,2.0258,2.0283,2.0258,2.0182,1.9838,1.9332,1.912,1.8733,1.7987,1.7343,1.6722,1.6345,1.6166,1.5932,1.5352,1.4903,1.4407,1.3663,1.2881,1.2425,1.2109,1.1645,1.1571,1.1202,1.0919,1.0938,1.0957,1.0938,1.09,3.0341,3.0341,3.0341,3.0341,3.0341,3.0341,3.0405,3.0492,3.0364,3.0221,2.9803,2.873,2.7944,2.7349,2.6097,2.5426,2.5331,2.5113,2.5005,2.5005,2.5005,2.5005,2.5005,2.4963,2.4611,2.4069,2.4028,2.354,2.289,2.2402,2.1979,2.144,2.1385,2.1385,2.1385,2.1385,2.1385,2.1385,2.1385,2.1385,2.1385,2.1385,2.1385,2.1372,2.1074,2.0667,2.0139,2.0369,2.0324,2.0206,2.0315,2.0365,2.0125,2.0332,2.045,2.0667,2.0975,2.1277,2.109,2.1134,2.1277,2.1288,2.1229,2.1204,2.118,2.1166,2.1166,2.1166,2.118,2.1144,2.1035,2.0974,2.0911,2.0848,2.0787,2.08,2.08,2.0737,2.0699,2.0699,2.0624,2.0649,2.0674,2.0699,2.0674,2.0498,2.0498,2.0511,2.0511,2.046,2.0446,2.0137,1.9985,1.9564,1.8761,1.8015,1.7276,1.6934,1.6714,1.6466,1.6061,1.5686,1.5329,1.4504,1.3674,1.3076,1.2678,1.2184,1.1711,1.1293,1.1082,1.1052,1.1004,1.0957,1.0919,3.0612,3.0612,3.0612,3.0612,3.0612,3.0612,3.0597,3.0536,3.031,3.0183,2.9875,2.8803,2.8252,2.7867,2.6597,2.5974,2.5689,2.5375,2.5131,2.5005,2.5005,2.5005,2.5005,2.4991,2.4964,2.4937,2.4557,2.3933,2.335,2.2727,2.2239,2.1643,2.1412,2.1399,2.1385,2.1385,2.1385,2.1385,2.1385,2.1385,2.1385,2.1385,2.1385,2.1372,2.1345,2.1114,2.0816,2.0965,2.1114,2.0721,2.1141,2.1087,2.0803,2.0681,2.083,2.1331,2.1358,2.1345,2.1304,2.1358,2.1385,2.1385,2.1385,2.1385,2.1361,2.1361,2.1361,2.1361,2.1337,2.1288,2.1204,2.112,2.1046,2.0997,2.0936,2.0913,2.0888,2.08,2.0737,2.0699,2.0699,2.0699,2.0699,2.0699,2.0699,2.0699,2.0699,2.0699,2.0699,2.0686,2.0633,2.062,2.0391,2.0044,1.932,1.838,1.7668,1.7394,1.7182,1.6871,1.665,1.6441,1.6037,1.5352,1.4607,1.4002,1.3535,1.3225,1.262,1.1762,1.1519,1.1735,1.1491,1.1063,1.1035,3.0612,3.0612,3.0612,3.0612,3.0612,3.0612,3.0612,3.0598,3.0522,3.0341,2.9995,2.9078,2.8505,2.7944,2.6858,2.6029,2.5685,2.5396,2.5229,2.5033,2.5005,2.5005,2.5005,2.5005,2.5005,2.4991,2.4843,2.4531,2.3879,2.335,2.2658,2.2142,2.1665,2.1447,2.1458,2.141,2.1482,2.1506,2.1482,2.1482,2.1482,2.141,2.1385,2.1385,2.1385,2.1304,2.1263,2.1304,2.1345,2.1263,2.1345,2.1331,2.1209,2.1182,2.1263,2.1345,2.1385,2.1385,2.1385,2.1385,2.1385,2.1385,2.1385,2.1385,2.1385,2.1385,2.1385,2.1385,2.1385,2.1337,2.1229,2.118,2.1106,2.1046,2.1021,2.0997,2.0972,2.0911,2.0825,2.0749,2.0724,2.0699,2.0699,2.0699,2.0699,2.0699,2.0699,2.0699,2.0699,2.0699,2.0686,2.0673,2.0648,2.027,1.9788,1.88,1.7974,1.7765,1.7522,1.7149,1.701,1.7073,1.6697,1.6037,1.5451,1.4874,1.4499,1.4196,1.3528,1.2659,1.2563,1.2567,1.208,1.1648,1.1488,3.0612,3.0612,3.0612,3.0612,3.0612,3.0612,3.0612,3.0612,3.0612,3.0522,3.0224,2.9708,2.9033,2.8342,2.7499,2.6508,2.5716,2.5508,2.5313,2.5061,2.5005,2.5005,2.5005,2.5005,2.5005,2.509,2.5245,2.4984,2.4137,2.3486,2.3098,2.2666,2.2097,2.1817,2.1817,2.1841,2.1831,2.1845,2.1821,2.1793,2.1746,2.1578,2.141,2.1385,2.1385,2.1385,2.1385,2.1385,2.1385,2.1372,2.1385,2.1385,2.1385,2.1385,2.1385,2.1385,2.1385,2.1385,2.1385,2.1385,2.1385,2.1385,2.1385,2.1385,2.1385,2.1385,2.1385,2.1385,2.1385,2.1361,2.1313,2.1288,2.1277,2.1204,2.1155,2.1106,2.1082,2.1035,2.0936,2.0848,2.0774,2.0724,2.0699,2.0699,2.0699,2.0699,2.0699,2.0699,2.0699,2.0699,2.0737,2.0699,2.0673,2.0412,1.9982,1.9224,1.8388,1.8114,1.7761,1.7421,1.7212,1.7212,1.7094,1.671,1.6166,1.5647,1.5222,1.4819,1.4177,1.3715,1.3727,1.3567,1.2784,1.228,1.2203,3.0612,3.0612,3.0612,3.0612,3.0612,3.0612,3.0612,3.0612,3.0612,3.0612,3.0552,3.0206,2.956,2.8757,2.7863,2.6862,2.5716,2.5674,2.5495,2.5188,2.5131,2.5103,2.5103,2.5103,2.5131,2.5244,2.5646,2.5451,2.4722,2.4182,2.3735,2.3385,2.2843,2.254,2.2583,2.2432,2.2455,2.264,2.2376,2.231,2.2114,2.1793,2.1482,2.141,2.1385,2.1385,2.1385,2.1385,2.1385,2.1385,2.1385,2.1385,2.1385,2.1385,2.1385,2.1385,2.1385,2.1385,2.1385,2.1385,2.1385,2.1385,2.1385,2.1385,2.1385,2.1385,2.1385,2.1385,2.1385,2.1385,2.1361,2.1385,2.1399,2.1361,2.1277,2.1229,2.1204,2.1155,2.1057,2.0959,2.0848,2.0799,2.081,2.0785,2.081,2.0823,2.0823,2.0787,2.0787,2.0775,2.0775,2.0699,2.0646,2.0465,2.0124,1.9656,1.8924,1.8453,1.8009,1.7565,1.7356,1.7212,1.7094,1.701,1.6866,1.6342,1.5911,1.5616,1.5324,1.5103,1.499,1.4553,1.3777,1.335,1.3209,3.0612,3.0612,3.0612,3.0612,3.0612,3.0612,3.0612,3.0612,3.0612,3.0612,3.0582,3.0237,2.974,2.8895,2.7783,2.6916,2.6375,2.6163,2.5948,2.5578,2.5508,2.5522,2.5481,2.5439,2.5522,2.5661,2.6069,2.6014,2.5662,2.5466,2.5085,2.4573,2.4032,2.3708,2.3664,2.3337,2.3438,2.4138,2.3424,2.2684,2.2352,2.2189,2.1817,2.1554,2.141,2.1434,2.1458,2.1458,2.141,2.1471,2.141,2.1385,2.1385,2.1385,2.1385,2.1385,2.1385,2.1385,2.1385,2.1385,2.1385,2.1385,2.1385,2.1385,2.1385,2.1385,2.1385,2.1385,2.1385,2.1385,2.1385,2.1385,2.1385,2.1385,2.1361,2.1337,2.1337,2.1277,2.118,2.1155,2.1071,2.1008,2.0983,2.0959,2.0959,2.0972,2.0947,2.0911,2.0875,2.085,2.0838,2.0762,2.0699,2.0555,2.0321,1.9839,1.9303,1.878,1.8244,1.7708,1.7408,1.7212,1.7212,1.7115,1.7031,1.701,1.6666,1.6486,1.6514,1.6261,1.5858,1.5355,1.4788,1.4495,1.4259,3.0612,3.0612,3.0612,3.0612,3.0612,3.0612,3.0612,3.0612,3.0612,3.0612,3.0582,3.0462,2.9838,2.8843,2.7724,2.6926,2.6465,2.6563,2.6457,2.615,2.6084,2.6177,2.6256,2.5988,2.5866,2.639,2.6718,2.7016,2.6748,2.6199,2.5681,2.5712,2.5198,2.4866,2.4851,2.4576,2.4769,2.4896,2.4376,2.3798,2.3385,2.2717,2.2077,2.1855,2.1568,2.1616,2.1736,2.152,2.1602,2.1688,2.164,2.1385,2.1385,2.1385,2.1385,2.1385,2.1385,2.1385,2.1385,2.1385,2.1385,2.1385,2.1385,2.1385,2.1385,2.1385,2.1385,2.1385,2.1385,2.1385,2.1385,2.1385,2.1385,2.1385,2.1385,2.1385,2.1385,2.1375,2.1326,2.1302,2.1277,2.1204,2.1131,2.1082,2.1057,2.1046,2.1021,2.0997,2.0936,2.0899,2.0888,2.0838,2.0762,2.066,2.0425,2.0085,1.9499,1.8986,1.8423,1.7891,1.7408,1.7212,1.7233,1.7233,1.7136,1.7157,1.7212,1.7073,1.6837,1.6714,1.6583,1.6104,1.5663,1.5561,1.5353,3.0612,3.0612,3.0612,3.0612,3.0612,3.0612,3.0612,3.0612,3.0612,3.0657,3.0689,3.0587,2.9944,2.8997,2.8033,2.723,2.6891,2.6977,2.6904,2.6811,2.6785,2.6901,2.6886,2.6602,2.664,2.7206,2.7464,2.7615,2.7475,2.714,2.6816,2.6775,2.6316,2.6089,2.6014,2.5764,2.5719,2.5704,2.5538,2.507,2.4417,2.3452,2.2717,2.225,2.1959,2.1912,2.2091,2.2053,2.21,2.1983,2.1878,2.1626,2.1447,2.1385,2.1385,2.1385,2.1385,2.1385,2.1385,2.1385,2.1385,2.1385,2.1385,2.1385,2.1385,2.1385,2.1385,2.1385,2.1385,2.1385,2.1385,2.1385,2.1385,2.1385,2.1385,2.1385,2.1385,2.1375,2.1375,2.135,2.135,2.1361,2.1288,2.1204,2.1169,2.112,2.1095,2.1071,2.1035,2.0999,2.0936,2.0886,2.085,2.0787,2.0644,2.0291,1.9716,1.9258,1.8708,1.8192,1.7781,1.7405,1.724,1.724,1.7233,1.7212,1.7212,1.716,1.7107,1.6969,1.6865,1.6805,1.6588,1.6445,1.634,3.0612,3.0612,3.0612,3.0612,3.0612,3.0612,3.0612,3.0612,3.0642,3.0866,3.1072,3.0641,3.0331,2.9757,2.8625,2.7913,2.8083,2.7602,2.7452,2.7454,2.7439,2.7515,2.7489,2.7464,2.7388,2.7625,2.7953,2.8052,2.8085,2.8251,2.7889,2.7582,2.7318,2.7287,2.7087,2.6742,2.6528,2.6543,2.6566,2.5956,2.5108,2.4223,2.3528,2.258,2.254,2.2618,2.2263,2.2411,2.248,2.2263,2.2006,2.1759,2.1471,2.141,2.1385,2.1385,2.1385,2.1385,2.1385,2.1385,2.1385,2.1385,2.1385,2.1385,2.1385,2.1385,2.1385,2.1385,2.1385,2.1385,2.1385,2.1385,2.1385,2.1385,2.1385,2.1385,2.1385,2.1385,2.1385,2.1385,2.1453,2.1575,2.1738,2.1733,2.1399,2.1347,2.1267,2.1229,2.1169,2.112,2.1046,2.0972,2.0938,2.0888,2.0888,2.0547,2.018,1.9809,1.9344,1.8763,1.8244,1.7906,1.7534,1.7274,1.7274,1.7233,1.7199,1.7186,1.7173,1.7186,1.7113,1.7021,1.693,1.674,1.6792,3.0612,3.0612,3.0612,3.0612,3.0612,3.0612,3.0612,3.0657,3.0896,3.1102,3.1292,3.1024,3.0682,3.0091,2.9326,2.8681,2.8669,2.8312,2.8143,2.81,2.8125,2.8271,2.8247,2.8085,2.8002,2.8319,2.8527,2.8598,2.8732,2.8818,2.8709,2.8412,2.8218,2.8201,2.7984,2.7704,2.7565,2.7334,2.7057,2.6229,2.5749,2.4424,2.3541,2.2812,2.2731,2.2822,2.264,2.2495,2.254,2.2472,2.2053,2.1722,2.1471,2.141,2.1385,2.1385,2.1385,2.1385,2.1385,2.1385,2.1385,2.1385,2.1385,2.1385,2.1385,2.1385,2.1385,2.1385,2.1385,2.1385,2.1385,2.1385,2.1385,2.1385,2.1412,2.144,2.1562,2.1643,2.1656,2.1765,2.1887,2.2034,2.2185,2.2322,2.1941,2.1575,2.148,2.1375,2.1302,2.1229,2.1155,2.1082,2.1035,2.0999,2.0974,2.083,2.0673,2.0337,1.9923,1.9375,1.8804,1.8365,1.8004,1.7655,1.7408,1.7453,1.7432,1.7272,1.7212,1.7212,1.7212,1.7186,1.7081,1.6977,1.7055,3.0612,3.0612,3.0612,3.0612,3.0612,3.0612,3.0612,3.0672,3.0925,3.1278,3.1481,3.1566,3.1454,3.0824,2.9876,2.9539,2.9266,2.8827,2.8635,2.8622,2.8693,2.885,2.8826,2.8693,2.855,2.8959,2.8897,2.885,2.9006,2.9006,2.8935,2.8889,2.8905,2.8779,2.8629,2.8541,2.8468,2.8136,2.7596,2.6757,2.6458,2.5339,2.4125,2.3599,2.3437,2.3268,2.3157,2.3024,2.2934,2.2731,2.2319,2.1769,2.1554,2.1434,2.141,2.1385,2.1385,2.1385,2.1399,2.1385,2.1385,2.1385,2.1385,2.1385,2.1385,2.1385,2.1385,2.1385,2.1385,2.1385,2.1385,2.1385,2.1589,2.1694,2.1803,2.1871,2.2117,2.2266,2.2198,2.2198,2.2361,2.2564,2.2646,2.2781,2.2442,2.1955,2.1534,2.1453,2.1375,2.1326,2.1277,2.1229,2.1155,2.1106,2.1044,2.0942,2.0826,2.0764,2.0348,1.993,1.9431,1.899,1.8679,1.845,1.8186,1.7879,1.7745,1.7723,1.7497,1.7238,1.7225,1.7212,1.7186,1.7094,1.7133,3.0612,3.0612,3.0612,3.0612,3.0612,3.0612,3.0612,3.0628,3.0747,3.1204,3.1892,3.2256,3.2434,3.1951,3.0586,3.0108,3.0021,2.914,2.8779,2.9085,2.9014,2.9068,2.9099,2.9069,2.8912,2.9068,2.9045,2.9021,2.9114,2.9091,2.9075,2.9075,2.9045,2.8951,2.8794,2.866,2.8612,2.8558,2.8299,2.7766,2.7203,2.6403,2.5439,2.4717,2.4327,2.41,2.3984,2.3554,2.3444,2.3326,2.2661,2.2123,2.1831,2.1568,2.1471,2.1434,2.141,2.1399,2.1426,2.1412,2.1385,2.1385,2.1385,2.1385,2.1385,2.1385,2.1385,2.1385,2.1385,2.1385,2.1385,2.1467,2.1803,2.2007,2.2115,2.2359,2.2619,2.2754,2.2659,2.2686,2.2945,2.3175,2.3215,2.3174,2.2903,2.2429,2.1778,2.1548,2.1562,2.1524,2.1553,2.1326,2.1253,2.1215,2.118,2.1082,2.1004,2.0968,2.0788,2.0395,2.0138,1.984,1.9548,1.9262,1.903,1.8795,1.851,1.8257,1.7916,1.7576,1.7285,1.7212,1.7212,1.7212,1.7212,3.0612,3.0612,3.0612,3.0612,3.0612,3.0612,3.0612,3.0717,3.119,3.1794,3.2284,3.2559,3.2586,3.2099,3.1237,3.0562,3.0642,2.9603,2.9178,2.9714,2.9382,2.9516,2.9548,2.9319,2.9146,2.9114,2.9114,2.9114,2.9114,2.9114,2.9114,2.9114,2.9091,2.9006,2.8865,2.8787,2.8747,2.8614,2.8241,2.7767,2.7534,2.6938,2.6271,2.5561,2.5259,2.5069,2.4955,2.4368,2.3835,2.3815,2.3126,2.2338,2.2109,2.1886,2.1743,2.1643,2.1595,2.1602,2.1711,2.1735,2.1399,2.1426,2.1399,2.1412,2.1399,2.1385,2.1385,2.1385,2.1385,2.1385,2.1385,2.183,2.2156,2.2305,2.2456,2.2822,2.3066,2.3093,2.3053,2.3175,2.3392,2.3933,2.4136,2.3879,2.3581,2.3418,2.289,2.228,2.2144,2.2009,2.1955,2.1537,2.135,2.1337,2.1288,2.135,2.135,2.1328,2.1182,2.0894,2.07,2.0612,2.0315,1.9993,1.986,1.9727,1.9207,1.8729,1.8332,1.7977,1.7571,1.7259,1.7212,1.7212,1.7212,3.0612,3.0612,3.0612,3.0612,3.0612,3.0612,3.0702,3.0984,3.1737,3.2312,3.2586,3.2738,3.2846,3.2518,3.1769,3.1211,3.1444,3.044,2.9667,3.018,2.9769,2.9832,2.9817,2.9564,2.9382,2.9304,2.9193,2.9114,2.9114,2.9114,2.9114,2.9114,2.9114,2.9052,2.8943,2.8889,2.8834,2.8717,2.8405,2.8186,2.7929,2.7486,2.6945,2.6562,2.6229,2.5979,2.5753,2.5083,2.417,2.4149,2.3497,2.2619,2.255,2.2436,2.239,2.2429,2.2259,2.224,2.2235,2.2169,2.2035,2.2131,2.1711,2.1534,2.1562,2.1534,2.1426,2.1385,2.1412,2.1548,2.1724,2.221,2.2495,2.2619,2.312,2.3486,2.3784,2.3838,2.3838,2.3933,2.4001,2.4543,2.4841,2.4679,2.4354,2.4204,2.4042,2.3431,2.2807,2.2631,2.2423,2.1986,2.1808,2.1904,2.1846,2.1722,2.1722,2.1674,2.1506,2.1336,2.1446,2.1393,2.1051,2.0843,2.0907,2.072,1.9795,1.919,1.8666,1.8142,1.7666,1.7405,1.7259,1.724,1.7261,3.0612,3.0612,3.0612,3.0598,3.0642,3.0777,3.0999,3.1438,3.2216,3.2586,3.2683,3.3091,3.3214,3.3124,3.2519,3.2187,3.2023,3.1334,3.0907,3.0496,3.0338,3.0338,3.0069,2.9651,2.954,2.9643,2.9509,2.9114,2.9114,2.9114,2.9114,2.9114,2.9114,2.9091,2.9029,2.8967,2.8936,2.885,2.8771,2.8654,2.8498,2.8123,2.7819,2.7508,2.7157,2.6929,2.6588,2.5916,2.5352,2.4799,2.397,2.3612,2.3406,2.3281,2.3604,2.36,2.3213,2.2958,2.2837,2.2719,2.3085,2.3151,2.2249,2.2061,2.2047,2.1982,2.1833,2.1656,2.1629,2.1887,2.2158,2.251,2.2863,2.3337,2.3933,2.4299,2.4679,2.4773,2.476,2.4773,2.4746,2.4978,2.4936,2.4856,2.4734,2.4706,2.4558,2.4423,2.3809,2.3309,2.3034,2.2539,2.2439,2.2604,2.2484,2.2236,2.203,2.1983,2.1921,2.1791,2.1979,2.2151,2.2056,2.2002,2.2135,2.1764,2.0845,1.9818,1.8878,1.8417,1.8214,1.7747,1.764,1.7412,1.7385,3.0612,3.0612,3.0612,3.0791,3.1161,3.1751,3.2117,3.2299,3.2547,3.2753,3.3134,3.3256,3.3309,3.323,3.2608,3.237,3.2038,3.1706,3.1627,3.1374,3.1097,3.097,3.0654,3.0212,2.9832,2.9477,2.9288,2.9114,2.9114,2.9114,2.9114,2.9114,2.9114,2.9114,2.9091,2.9052,2.9052,2.9029,2.8998,2.8998,2.899,2.8708,2.8582,2.8393,2.7908,2.7805,2.7814,2.6803,2.6332,2.6412,2.5371,2.484,2.4799,2.4384,2.4145,2.3385,2.3196,2.3189,2.3412,2.3039,2.3282,2.4236,2.3557,2.2916,2.2849,2.2778,2.2466,2.2196,2.2004,2.2233,2.2509,2.2835,2.3296,2.3879,2.4367,2.4706,2.5005,2.5005,2.5005,2.5005,2.5005,2.5005,2.5005,2.4991,2.4896,2.4964,2.4994,2.4998,2.4819,2.4339,2.3745,2.3256,2.315,2.3345,2.2999,2.2686,2.2472,2.2287,2.2249,2.2249,2.236,2.2575,2.2897,2.2957,2.2777,2.2429,2.1881,2.0822,1.9724,1.9407,1.9152,1.8528,1.8036,1.8043,1.801,3.0612,3.0612,3.0612,3.0955,3.1625,3.2299,3.2683,3.2834,3.2888,3.3065,3.3266,3.3309,3.3293,3.3245,3.2924,3.2734,3.2703,3.2408,3.2203,3.1943,3.188,3.1713,3.1365,3.0717,3.0259,2.9801,2.9382,2.9114,2.9114,2.9114,2.9114,2.9114,2.9114,2.9114,2.9114,2.9091,2.9114,2.9114,2.9091,2.9114,2.9114,2.9114,2.9114,2.9012,2.8509,2.8737,2.887,2.7569,2.743,2.7471,2.6328,2.5968,2.5985,2.5707,2.5353,2.4677,2.4079,2.4013,2.4006,2.3727,2.4322,2.4875,2.4759,2.4514,2.3982,2.3774,2.3221,2.2751,2.2637,2.262,2.2886,2.3201,2.3784,2.4367,2.4651,2.4964,2.5005,2.5005,2.5005,2.5005,2.5005,2.5005,2.5005,2.5005,2.5118,2.5342,2.555,2.5672,2.56,2.5351,2.4697,2.4088,2.4028,2.4107,2.3624,2.3157,2.3001,2.2822,2.2686,2.2709,2.2799,2.2979,2.3268,2.329,2.3201,2.2823,2.2478,2.1676,2.0771,2.0465,2.0119,1.9572,1.928,1.9343,1.9315,3.0612,3.0612,3.0672,3.1234,3.1949,3.2492,3.2915,3.3266,3.324,3.3293,3.3293,3.3293,3.3293,3.3277,3.3151,3.3166,3.3119,3.2993,3.2724,3.2386,3.2418,3.2297,3.1785,3.1042,3.0559,3.0433,2.9951,2.9114,2.9114,2.9114,2.9114,2.9114,2.9114,2.9193,2.9351,2.9161,2.9193,2.9382,2.9225,2.9114,2.9114,2.9114,2.9114,2.9114,2.9028,2.9098,2.8956,2.8532,2.8061,2.76,2.7202,2.6926,2.6955,2.7085,2.6808,2.6263,2.5321,2.4984,2.4776,2.453,2.4745,2.5236,2.5528,2.553,2.5142,2.4688,2.4115,2.3664,2.3547,2.3525,2.3723,2.374,2.4109,2.4545,2.4841,2.5005,2.5005,2.5005,2.5005,2.5005,2.5005,2.5005,2.5005,2.5005,2.523,2.5619,2.5866,2.6055,2.6248,2.6138,2.5512,2.482,2.4537,2.4382,2.4014,2.3653,2.3588,2.3421,2.3238,2.3157,2.3224,2.3421,2.3653,2.3653,2.3653,2.3377,2.2951,2.2322,2.1821,2.1405,2.1026,2.0616,2.0479,2.0544,2.0728,3.0612,3.0687,3.1321,3.1921,3.2465,3.2931,3.3187,3.3309,3.3293,3.3293,3.3293,3.3293,3.3293,3.3293,3.3293,3.3293,3.3293,3.3293,3.3198,3.3008,3.2945,3.256,3.2181,3.1239,3.0796,3.0212,2.9643,2.9114,2.9114,2.9114,2.9114,2.9114,2.913,2.9272,2.9659,2.9367,2.9272,2.9556,2.9304,2.913,2.9114,2.9114,2.9114,2.9114,2.9114,2.9114,2.9035,2.8972,2.8807,2.8652,2.8257,2.795,2.7686,2.7754,2.7457,2.6886,2.6325,2.5933,2.5668,2.5423,2.5469,2.5795,2.6103,2.6094,2.5915,2.5583,2.5181,2.475,2.4488,2.4481,2.4445,2.4405,2.438,2.4736,2.5005,2.5005,2.5005,2.5005,2.5005,2.5005,2.5005,2.5005,2.5005,2.5146,2.537,2.5591,2.5811,2.6094,2.6638,2.6691,2.608,2.5379,2.4762,2.4507,2.4297,2.4146,2.4137,2.3994,2.3799,2.3726,2.3674,2.3803,2.3973,2.4094,2.4094,2.3782,2.3566,2.3383,2.2884,2.2423,2.2038,2.1677,2.1582,2.1623,2.1956,3.0837,3.0847,3.1468,3.2093,3.2625,3.3107,3.3293,3.3293,3.3293,3.3293,3.3293,3.3293,3.3293,3.3293,3.3293,3.3293,3.3293,3.3293,3.3261,3.3261,3.3008,3.2608,3.2038,3.1343,3.0694,3.0077,2.9501,2.9114,2.9114,2.9114,2.9114,2.9114,2.9146,2.9335,2.9722,2.9351,2.9319,2.9627,2.9304,2.9146,2.9114,2.9114,2.9114,2.9114,2.9114,2.9114,2.9114,2.9114,2.9114,2.9075,2.8795,2.8686,2.8441,2.828,2.8029,2.7597,2.7082,2.6572,2.6406,2.6222,2.605,2.624,2.6537,2.6445,2.6486,2.614,2.5912,2.5477,2.5079,2.5015,2.4977,2.4953,2.4901,2.508,2.5049,2.5005,2.5005,2.5005,2.5005,2.5005,2.5005,2.5005,2.509,2.5425,2.5688,2.6229,2.6351,2.6556,2.7036,2.7197,2.6572,2.6089,2.553,2.5334,2.5397,2.5102,2.4738,2.4569,2.438,2.4118,2.4009,2.4135,2.4281,2.4281,2.4261,2.4177,2.3973,2.3803,2.3794,2.3414,2.3077,2.2784,2.2736,2.2581,2.2617,3.1234,3.1077,3.1439,3.1978,3.2582,3.3087,3.3293,3.3293,3.3293,3.3293,3.3293,3.3293,3.3293,3.3293,3.3293,3.3293,3.3293,3.3293,3.3293,3.3151,3.2771,3.256,3.1959,3.1121,3.0504,2.9911,2.9351,2.9177,2.9114,2.9114,2.9114,2.9114,2.9209,2.9304,2.9319,2.9304,2.9477,2.9604,2.9461,2.9161,2.9114,2.9114,2.9114,2.9114,2.9114,2.9114,2.9114,2.9114,2.9114,2.9091,2.9068,2.9021,2.8936,2.8693,2.8622,2.8255,2.7731,2.7261,2.6894,2.6718,2.6444,2.636,2.6651,2.6777,2.6779,2.6647,2.6406,2.6152,2.575,2.5559,2.5551,2.5503,2.5465,2.5398,2.5287,2.509,2.509,2.5118,2.5146,2.5118,2.5033,2.5033,2.537,2.5674,2.6136,2.6692,2.7092,2.7338,2.7496,2.742,2.7084,2.6848,2.6535,2.6458,2.6318,2.5942,2.5428,2.5244,2.5038,2.4614,2.4333,2.4297,2.4281,2.4281,2.4261,2.424,2.4177,2.4009,2.4027,2.4065,2.3838,2.3495,2.3416,2.3249,2.3055,3.1668,3.1477,3.1573,3.1903,3.2421,3.3045,3.3293,3.3293,3.3293,3.3293,3.3293,3.3293,3.3293,3.3293,3.3293,3.3293,3.3293,3.3293,3.3293,3.3214,3.2929,3.2687,3.2165,3.1311,3.0354,2.9809,2.9446,2.9225,2.9509,2.9367,2.9146,2.9177,2.9801,3.0133,3.0591,3.0417,3.0054,3.0148,2.973,2.9351,2.924,2.9209,2.913,2.9114,2.9114,2.9114,2.9114,2.9114,2.9114,2.9114,2.9114,2.9114,2.9068,2.9006,2.8936,2.8811,2.831,2.8066,2.7725,2.7399,2.7126,2.6969,2.7141,2.687,2.6858,2.682,2.6633,2.6633,2.6332,2.6225,2.6171,2.6049,2.6013,2.5932,2.5838,2.5564,2.5398,2.5536,2.5619,2.5439,2.5216,2.5439,2.577,2.6096,2.6443,2.6953,2.7388,2.7637,2.78,2.7672,2.755,2.7411,2.7303,2.6903,2.6503,2.6488,2.6134,2.5933,2.558,2.5025,2.4594,2.4312,2.4281,2.4281,2.4281,2.4261,2.4198,2.4135,2.4162,2.4209,2.4245,2.4096,2.4005,2.3759,2.3411]}]]